[[{"header":{"parameterUnit":"m.s-1","parameterCategory":1,"la1":31.0,"la2":29.5877,"lo1":-88.7671,"lo2":-86.6584,"dy":0.0162,"dx":0.0185,"nx":115,"ny":88,"refTime":"2023-11-07T18:00:00:Z","depth":0,"parameterNumber":2,"parameterNumberName":"U-component_of_WINDS"},"data":[0.0,0.0,0.0,0.0,0.0,0.0,0.0,0.0,0.0,0.0,0.0,0.0,0.0,0.0,0.0,0.0,0.0,0.0,0.0,0.0,0.0,0.0,0.0,0.0,0.0,0.0,0.0,0.0,0.0,0.0,0.0,0.0,0.0,0.0,0.0,0.0,0.0,0.0,0.0,0.0,0.0,0.0,0.0,0.0,0.0,0.0,0.0,0.0,0.0,0.0,0.0,0.0,0.0,0.0,0.0,0.0,0.0,0.0,0.0,0.0,0.0,0.0,0.0,0.0,0.0,0.0,0.0,0.0,0.0,0.0,0.0,0.0,0.0,0.0,0.0,0.0,0.0,0.0,0.0,0.0,0.0,0.0,0.0,0.0,0.0,0.0,0.0,0.0,0.0,0.0,0.0,0.0,0.0,0.0,0.0,0.0,0.0,0.0,0.0,0.0,0.0,0.0,0.0,0.0,0.0,0.0,0.0,0.0,0.0,0.0,0.0,0.0,0.0,0.0,0.0,0.0,0.0,0.0,0.0,0.0,0.0,0.0,0.0,0.0,0.0,0.0,0.0,0.0,0.0,0.0,0.0,0.0,0.0,0.0,0.0,0.0,0.0,0.0,0.0,0.0,0.0,0.0,0.0,0.0,0.0,0.0,0.0,0.0,0.0,0.0,0.0,0.0,0.0,0.0,0.0,0.0,0.0,0.0,0.0,0.0,0.0,0.0,0.0,0.0,0.0,0.0,0.0,0.0,0.0,0.0,0.0,0.0,0.0,0.0,0.0,0.0,0.0,0.0,0.0,0.0,0.0,0.0,0.0,0.0,0.0,0.0,0.0,0.0,0.0,0.0,0.0,0.0,0.0,0.0,0.0,0.0,0.0,0.0,0.0,0.0,0.0,0.0,0.0,0.0,0.0,0.0,0.0,0.0,0.0,0.0,0.0,0.0,0.0,0.0,0.0,0.0,0.0,0.0,0.0,0.0,0.0,0.0,0.0,0.0,0.0,0.0,0.0,0.0,0.0,0.0,0.0,0.0,0.0,0.0,0.0,0.0,0.0,0.0,0.0,0.0,0.0,0.0,0.0,0.0,0.0,0.0,0.0,0.0,0.0,0.0,0.0,0.0,0.0,0.0,0.0,0.0,0.0,0.0,0.0,0.0,0.0,0.0,0.0,0.0,0.0,0.0,0.0,0.0,0.0,0.0,0.0,0.0,0.0,0.0,0.0,0.0,0.0,0.0,0.0,0.0,0.0,0.0,0.0,0.0,0.0,0.0,0.0,0.0,0.0,0.0,0.0,0.0,0.0,0.0,0.0,0.0,0.0,0.0,0.0,0.0,0.0,0.0,0.0,0.0,0.0,0.0,0.0,0.0,0.0,0.0,0.0,0.0,0.0,0.0,0.0,0.0,0.0,0.0,0.0,0.0,0.0,0.0,0.0,0.0,0.0,0.0,0.0,0.0,0.0,0.0,0.0,0.0,0.0,0.0,0.0,0.0,0.0,0.0,0.0,0.0,0.0,0.0,0.0,0.0,0.0,0.0,0.0,0.0,0.0,0.0,0.0,0.0,0.0,0.0,0.0,0.0,0.0,0.0,0.0,0.0,0.0,0.0,0.0,0.0,0.0,0.0,0.0,0.0,0.0,0.0,0.0,0.0,0.0,0.0,0.0,0.0,0.0,0.0,0.0,0.0,0.0,0.0,0.0,0.0,0.0,0.0,0.0,0.0,0.0,0.0,0.0,0.0,0.0,0.0,0.0,0.0,0.0,0.0,0.0,0.0,0.0,0.0,0.0,0.0,0.0,0.0,0.0,0.0,0.0,0.0,0.0,0.0,0.0,0.0,0.0,0.0,0.0,0.0,0.0,0.0,0.0,0.0,0.0,0.0,0.0,0.0,0.0,0.0,0.0,0.0,0.0,0.0,0.0,0.0,0.0,0.0,0.0,0.0,0.0,0.0,0.0,0.0,0.0,0.0,0.0,0.0,0.0,0.0,0.0,0.0,0.0,0.0,0.0,0.0,0.0,0.0,0.0,0.0,0.0,0.0,0.0,0.0,0.0,0.0,0.0,0.0,0.0,0.0,0.0,0.0,0.0,0.0,0.0,0.0,0.0,0.0,0.0,0.0,0.0,0.0,0.0,0.0,0.0,0.0,0.0,0.0,0.0,0.0,0.0,0.0,0.0,0.0,0.0,0.0,0.0,0.0,0.0,0.0,0.0,0.0,0.0,0.0,0.0,0.0,0.0,0.0,0.0,0.0,0.0,0.0,0.0,0.0,0.0,0.0,0.0,0.0,0.0,0.0,0.0,0.0,0.0,0.0,0.0,0.0,0.0,0.0,0.0,0.0,0.0,0.0,0.0,0.0,0.0,0.0,0.0,0.0,0.0,0.0,0.0,0.0,0.0,0.0,0.0,0.0,0.0,0.0,0.0,0.0,0.0,0.0,0.0,0.0,0.0,0.0,0.0,0.0,0.0,0.0,0.0,0.0,0.0,0.0,0.0,0.0,0.0,0.0,0.0,0.0,0.0,0.0,0.0,0.0,0.0,0.0,0.0,0.0,0.0,0.0,0.0,0.0,0.0,0.0,0.0,0.0,0.0,0.0,0.0,0.0,0.0,0.0,0.0,0.0,0.0,0.0,0.0,0.0,0.0,0.0,0.0,0.0,0.0,0.0,0.0,0.0,0.0,0.0,0.0,0.0,0.0,0.0,0.0,0.0,0.0,0.0,0.0,0.0,0.0,0.0,0.0,0.0,0.0,0.0,0.0,0.0,0.0,0.0,0.0,0.0,0.0,0.0,0.0,0.0,0.0,0.0,0.0,0.0,0.0,0.0,0.0,0.0,0.0,0.0,0.0,0.0,0.0,0.0,0.0,0.0,0.0,0.0,0.0,0.0,0.0,0.0,0.0,0.0,0.0,0.0,0.0,0.0,0.0,0.0,0.0,0.0,0.0,0.0,0.0,0.0,0.0,0.0,0.0,0.0,0.0,0.0,0.0,0.0,0.0,0.0,0.0,0.0,0.0,0.0,0.0,0.0,0.0,0.0,0.0,0.0,0.0,0.0,0.0,0.0,0.0,0.0,0.0,0.0,0.0,0.0,0.0,0.0,0.0,0.0,0.0,0.0,0.0,0.0,0.0,0.0,0.0,0.0,0.0,0.0,0.0,0.0,0.0,0.0,0.0,0.0,0.0,0.0,0.0,0.0,0.0,0.0,0.0,0.0,0.0,0.0,0.0,0.0,0.0,0.0,0.0,0.0,0.0,0.0,0.0,0.0,0.0,0.0,0.0,0.0,0.0,0.0,0.0,0.0,0.0,0.0,0.0,0.0,0.0,0.0,0.0,0.0,0.0,0.0,0.0,0.0,0.0,0.0,0.0,0.0,0.0,0.0,0.0,0.0,0.0,0.0,0.0,0.0,0.0,0.0,0.0,0.0,0.0,0.0,0.0,0.0,0.0,0.0,0.0,0.0,0.0,0.0,0.0,0.0,0.0,0.0,0.0,0.0,0.0,0.0,0.0,0.0,0.0,0.0,0.0,0.0,0.0,0.0,0.0,0.0,0.0,0.0,0.0,0.0,0.0,0.0,0.0,0.0,0.0,0.0,0.0,0.0,0.0,0.0,0.0,0.0,0.0,0.0,0.0,0.0,0.0,0.0,0.0,0.0,0.0,0.0,0.0,0.0,0.0,0.0,0.0,0.0,0.0,0.0,0.0,0.0,0.0,0.0,0.0,0.0,0.0,0.0,0.0,0.0,0.0,0.0,0.0,0.0,0.0,0.0,0.0,0.0,0.0,0.0,0.0,0.0,0.0,0.0,0.0,0.0,0.0,0.0,0.0,0.0,0.0,0.0,0.0,0.0,0.0,0.0,0.0,0.0,0.0,0.0,0.0,0.0,0.0,0.0,0.0,0.0,0.0,0.0,0.0,0.0,0.0,0.0,0.0,0.0,0.0,0.0,0.0,0.0,0.0,0.0,0.0,0.0,0.0,0.0,0.0,0.0,0.0,0.0,0.0,0.0,0.0,0.0,0.0,0.0,0.0,0.0,0.0,0.0,0.0,0.0,0.0,0.0,0.0,0.0,0.0,0.0,0.0,0.0,0.0,0.0,0.0,0.0,0.0,0.0,0.0,0.0,0.0,0.0,0.0,0.0,0.0,0.0,0.0,0.0,0.0,0.0,0.0,0.0,0.0,0.0,0.0,0.0,0.0,0.0,0.0,0.0,0.0,0.0,0.0,0.0,0.0,0.0,0.0,0.0,0.0,0.0,0.0,0.0,0.0,0.0,-3.0423,0.0,0.0,0.0,0.0,0.0,0.0,0.0,0.0,0.0,0.0,0.0,0.0,0.0,0.0,0.0,0.0,0.0,0.0,0.0,0.0,0.0,0.0,0.0,0.0,0.0,0.0,0.0,0.0,0.0,0.0,0.0,0.0,0.0,0.0,0.0,0.0,0.0,0.0,0.0,0.0,0.0,0.0,0.0,0.0,0.0,0.0,0.0,0.0,0.0,0.0,0.0,0.0,0.0,0.0,0.0,0.0,0.0,0.0,0.0,0.0,0.0,0.0,0.0,0.0,0.0,0.0,0.0,0.0,0.0,0.0,0.0,0.0,0.0,0.0,0.0,0.0,0.0,0.0,0.0,0.0,0.0,0.0,0.0,0.0,0.0,0.0,0.0,0.0,0.0,0.0,0.0,0.0,0.0,0.0,0.0,0.0,0.0,0.0,0.0,0.0,0.0,0.0,0.0,0.0,0.0,0.0,0.0,0.0,0.0,0.0,-3.2065,-3.0786,-3.2026,-3.2062,-3.0632,0.0,0.0,0.0,0.0,0.0,0.0,0.0,0.0,0.0,0.0,0.0,0.0,0.0,0.0,0.0,0.0,0.0,0.0,0.0,0.0,0.0,0.0,0.0,0.0,0.0,0.0,0.0,0.0,0.0,0.0,0.0,0.0,0.0,0.0,0.0,0.0,0.0,0.0,0.0,0.0,0.0,0.0,0.0,0.0,0.0,0.0,0.0,0.0,0.0,0.0,0.0,0.0,0.0,0.0,0.0,0.0,0.0,0.0,0.0,0.0,0.0,0.0,0.0,0.0,0.0,0.0,0.0,0.0,0.0,0.0,0.0,0.0,0.0,0.0,0.0,0.0,0.0,0.0,0.0,0.0,0.0,0.0,0.0,0.0,0.0,0.0,0.0,0.0,0.0,0.0,0.0,0.0,0.0,0.0,0.0,0.0,0.0,0.0,0.0,0.0,0.0,0.0,0.0,0.0,0.0,0.0,0.0,0.0,0.0,0.0,0.0,0.0,-3.349,-3.3481,-3.1264,0.0,0.0,0.0,0.0,0.0,0.0,0.0,0.0,0.0,0.0,0.0,0.0,0.0,0.0,0.0,0.0,0.0,0.0,0.0,0.0,0.0,0.0,0.0,0.0,0.0,0.0,0.0,0.0,0.0,0.0,0.0,0.0,0.0,0.0,0.0,0.0,0.0,0.0,0.0,0.0,0.0,0.0,0.0,0.0,0.0,0.0,0.0,0.0,0.0,0.0,0.0,0.0,0.0,0.0,0.0,0.0,0.0,0.0,0.0,0.0,0.0,0.0,0.0,0.0,0.0,0.0,0.0,0.0,0.0,0.0,0.0,0.0,0.0,0.0,0.0,0.0,0.0,0.0,0.0,0.0,0.0,0.0,0.0,0.0,0.0,0.0,0.0,0.0,0.0,0.0,0.0,0.0,0.0,0.0,0.0,0.0,0.0,0.0,0.0,0.0,0.0,0.0,0.0,0.0,0.0,0.0,0.0,0.0,0.0,0.0,-3.2128,-3.4277,-3.4499,0.0,-3.2915,0.0,0.0,0.0,0.0,0.0,0.0,0.0,0.0,0.0,0.0,0.0,0.0,0.0,0.0,0.0,0.0,0.0,0.0,0.0,0.0,0.0,0.0,0.0,0.0,0.0,0.0,0.0,0.0,0.0,0.0,0.0,0.0,0.0,0.0,0.0,0.0,0.0,0.0,0.0,0.0,0.0,0.0,0.0,0.0,0.0,0.0,0.0,0.0,0.0,0.0,0.0,0.0,0.0,0.0,0.0,0.0,0.0,0.0,0.0,0.0,0.0,0.0,0.0,0.0,0.0,0.0,0.0,0.0,0.0,0.0,0.0,0.0,0.0,0.0,0.0,0.0,0.0,0.0,0.0,0.0,0.0,0.0,0.0,0.0,0.0,0.0,0.0,0.0,0.0,0.0,0.0,0.0,0.0,0.0,0.0,0.0,0.0,0.0,0.0,0.0,0.0,0.0,0.0,0.0,0.0,0.0,0.0,0.0,0.0,0.0,-3.2637,-3.4668,-3.4631,-3.3916,0.0,0.0,0.0,0.0,0.0,0.0,0.0,0.0,0.0,0.0,0.0,0.0,0.0,0.0,0.0,0.0,0.0,0.0,0.0,0.0,0.0,0.0,0.0,0.0,0.0,0.0,0.0,0.0,0.0,0.0,0.0,0.0,0.0,0.0,0.0,0.0,0.0,0.0,0.0,0.0,0.0,0.0,0.0,0.0,0.0,0.0,0.0,0.0,0.0,0.0,0.0,0.0,0.0,0.0,0.0,0.0,0.0,0.0,0.0,0.0,0.0,0.0,0.0,0.0,0.0,0.0,0.0,0.0,0.0,0.0,0.0,0.0,0.0,0.0,0.0,0.0,0.0,0.0,0.0,0.0,0.0,0.0,0.0,0.0,0.0,0.0,0.0,0.0,0.0,0.0,0.0,0.0,0.0,0.0,0.0,0.0,0.0,0.0,0.0,0.0,0.0,0.0,0.0,0.0,0.0,0.0,0.0,0.0,0.0,0.0,-3.2949,-3.3809,-3.5605,-3.4775,-3.3721,-3.2665,0.0,0.0,0.0,0.0,0.0,0.0,0.0,0.0,0.0,0.0,0.0,0.0,0.0,0.0,0.0,0.0,0.0,0.0,0.0,0.0,0.0,0.0,0.0,0.0,0.0,0.0,0.0,0.0,0.0,0.0,0.0,0.0,0.0,0.0,0.0,0.0,0.0,0.0,0.0,0.0,0.0,0.0,0.0,0.0,0.0,0.0,0.0,0.0,0.0,0.0,0.0,0.0,0.0,0.0,0.0,0.0,0.0,0.0,0.0,0.0,0.0,0.0,0.0,0.0,0.0,0.0,0.0,0.0,0.0,0.0,0.0,0.0,0.0,0.0,0.0,0.0,0.0,0.0,0.0,0.0,0.0,0.0,0.0,0.0,0.0,0.0,0.0,0.0,0.0,0.0,0.0,0.0,0.0,0.0,0.0,0.0,0.0,0.0,0.0,0.0,0.0,0.0,0.0,0.0,0.0,0.0,0.0,0.0,-3.7812,-3.5781,-3.5801,-3.8164,-3.5119,-3.3704,0.0,0.0,0.0,0.0,0.0,0.0,0.0,0.0,0.0,0.0,0.0,0.0,0.0,0.0,0.0,0.0,0.0,0.0,0.0,0.0,0.0,0.0,0.0,0.0,0.0,0.0,0.0,0.0,0.0,0.0,0.0,0.0,0.0,0.0,0.0,0.0,0.0,0.0,0.0,0.0,0.0,0.0,0.0,0.0,0.0,0.0,0.0,0.0,0.0,0.0,0.0,0.0,0.0,0.0,0.0,0.0,0.0,0.0,0.0,0.0,0.0,0.0,0.0,0.0,0.0,0.0,0.0,0.0,0.0,0.0,0.0,0.0,0.0,0.0,0.0,0.0,0.0,0.0,0.0,0.0,0.0,0.0,0.0,0.0,0.0,0.0,0.0,0.0,0.0,0.0,0.0,0.0,0.0,0.0,0.0,0.0,0.0,0.0,0.0,0.0,0.0,0.0,0.0,0.0,0.0,0.0,0.0,0.0,0.0,-3.3594,-3.4316,-3.5391,-3.6797,-3.5141,-3.431,0.0,0.0,0.0,0.0,0.0,0.0,0.0,0.0,0.0,0.0,0.0,0.0,0.0,0.0,0.0,0.0,0.0,0.0,0.0,0.0,0.0,0.0,0.0,0.0,0.0,0.0,0.0,0.0,0.0,0.0,0.0,0.0,0.0,0.0,0.0,0.0,0.0,0.0,0.0,0.0,0.0,0.0,0.0,0.0,0.0,0.0,0.0,0.0,0.0,0.0,0.0,0.0,0.0,0.0,0.0,0.0,0.0,0.0,0.0,0.0,0.0,0.0,0.0,0.0,0.0,0.0,0.0,0.0,0.0,0.0,0.0,0.0,0.0,0.0,0.0,0.0,0.0,0.0,0.0,0.0,0.0,0.0,0.0,0.0,0.0,0.0,0.0,0.0,0.0,0.0,0.0,0.0,0.0,0.0,0.0,0.0,0.0,0.0,0.0,0.0,0.0,0.0,0.0,0.0,0.0,0.0,0.0,0.0,0.0,-3.2927,0.0,-3.6364,-3.6345,-3.5268,-3.4246,0.0,0.0,0.0,0.0,0.0,0.0,0.0,0.0,0.0,0.0,0.0,0.0,0.0,0.0,0.0,0.0,0.0,0.0,0.0,0.0,0.0,0.0,0.0,0.0,0.0,0.0,0.0,0.0,0.0,0.0,0.0,0.0,0.0,0.0,0.0,0.0,0.0,0.0,0.0,0.0,0.0,0.0,0.0,0.0,0.0,0.0,0.0,0.0,0.0,0.0,0.0,0.0,0.0,0.0,0.0,0.0,0.0,0.0,0.0,0.0,0.0,0.0,0.0,0.0,0.0,0.0,0.0,0.0,0.0,0.0,0.0,0.0,0.0,0.0,0.0,0.0,0.0,0.0,0.0,0.0,0.0,0.0,0.0,0.0,0.0,0.0,0.0,0.0,0.0,0.0,0.0,0.0,0.0,0.0,0.0,0.0,0.0,0.0,0.0,0.0,0.0,0.0,0.0,0.0,0.0,0.0,0.0,0.0,-3.2887,-3.689,-3.8609,-3.8572,-3.7222,-3.5467,-3.3402,0.0,0.0,0.0,0.0,0.0,0.0,0.0,0.0,0.0,0.0,0.0,0.0,0.0,0.0,0.0,0.0,0.0,0.0,0.0,0.0,0.0,0.0,0.0,0.0,0.0,0.0,0.0,0.0,0.0,0.0,0.0,0.0,0.0,0.0,0.0,0.0,0.0,0.0,0.0,0.0,0.0,0.0,0.0,0.0,0.0,0.0,0.0,0.0,0.0,0.0,0.0,0.0,0.0,0.0,0.0,0.0,0.0,0.0,0.0,0.0,0.0,0.0,0.0,0.0,0.0,0.0,0.0,0.0,0.0,0.0,0.0,0.0,0.0,0.0,0.0,0.0,0.0,0.0,0.0,0.0,0.0,0.0,0.0,0.0,0.0,0.0,0.0,0.0,0.0,0.0,0.0,0.0,0.0,0.0,0.0,0.0,0.0,0.0,0.0,0.0,0.0,0.0,0.0,0.0,0.0,0.0,0.0,0.0,0.0,-3.3727,-3.477,-3.5941,-3.7107,-3.5,-3.3951,0.0,0.0,0.0,0.0,0.0,0.0,0.0,0.0,0.0,0.0,0.0,0.0,0.0,0.0,0.0,0.0,0.0,0.0,0.0,0.0,0.0,0.0,0.0,0.0,0.0,0.0,0.0,0.0,0.0,0.0,0.0,0.0,0.0,0.0,0.0,0.0,0.0,0.0,0.0,0.0,0.0,0.0,0.0,0.0,0.0,0.0,0.0,0.0,0.0,0.0,0.0,0.0,0.0,0.0,0.0,0.0,0.0,0.0,0.0,0.0,0.0,0.0,0.0,0.0,0.0,0.0,0.0,0.0,0.0,0.0,0.0,0.0,0.0,0.0,0.0,0.0,0.0,0.0,0.0,0.0,0.0,0.0,0.0,0.0,0.0,0.0,0.0,0.0,0.0,0.0,0.0,0.0,0.0,0.0,0.0,0.0,0.0,0.0,0.0,0.0,0.0,0.0,0.0,0.0,0.0,0.0,0.0,0.0,0.0,-3.3101,-3.4474,-3.5843,-3.721,-3.5369,-3.4388,-3.4374,0.0,0.0,0.0,0.0,0.0,0.0,0.0,0.0,0.0,0.0,0.0,0.0,0.0,0.0,0.0,0.0,0.0,0.0,0.0,0.0,0.0,0.0,0.0,0.0,0.0,0.0,0.0,0.0,0.0,0.0,0.0,0.0,0.0,0.0,0.0,0.0,0.0,0.0,0.0,0.0,0.0,0.0,0.0,0.0,0.0,0.0,0.0,0.0,0.0,0.0,0.0,0.0,0.0,0.0,0.0,0.0,0.0,0.0,0.0,0.0,0.0,0.0,0.0,0.0,0.0,0.0,0.0,0.0,0.0,0.0,0.0,0.0,0.0,0.0,0.0,0.0,0.0,0.0,0.0,0.0,0.0,0.0,0.0,0.0,0.0,0.0,0.0,0.0,0.0,0.0,0.0,0.0,0.0,0.0,0.0,0.0,0.0,0.0,0.0,0.0,0.0,0.0,0.0,0.0,0.0,0.0,0.0,0.0,-3.4535,-3.6988,-3.7842,-3.7202,-3.6333,-3.476,0.0,0.0,0.0,0.0,0.0,0.0,0.0,0.0,0.0,0.0,0.0,0.0,0.0,0.0,0.0,0.0,0.0,0.0,0.0,0.0,0.0,0.0,0.0,0.0,0.0,0.0,0.0,0.0,0.0,0.0,0.0,0.0,0.0,0.0,0.0,0.0,0.0,0.0,0.0,0.0,0.0,0.0,0.0,0.0,0.0,0.0,0.0,0.0,0.0,0.0,0.0,0.0,0.0,0.0,0.0,0.0,0.0,0.0,0.0,0.0,0.0,0.0,0.0,0.0,0.0,0.0,0.0,0.0,0.0,0.0,0.0,0.0,0.0,0.0,0.0,0.0,0.0,0.0,0.0,0.0,0.0,0.0,0.0,0.0,0.0,0.0,0.0,0.0,0.0,0.0,0.0,0.0,0.0,0.0,0.0,0.0,0.0,0.0,0.0,0.0,0.0,0.0,0.0,0.0,0.0,0.0,0.0,0.0,0.0,-3.5206,-3.6042,-3.6929,-3.7956,-3.6051,-3.4961,0.0,0.0,0.0,0.0,0.0,0.0,0.0,0.0,0.0,0.0,0.0,0.0,0.0,0.0,0.0,0.0,0.0,0.0,0.0,0.0,0.0,0.0,0.0,0.0,0.0,0.0,0.0,0.0,0.0,0.0,0.0,0.0,0.0,0.0,0.0,0.0,0.0,0.0,0.0,0.0,0.0,0.0,0.0,0.0,0.0,0.0,0.0,0.0,0.0,0.0,0.0,0.0,0.0,0.0,0.0,0.0,0.0,0.0,0.0,0.0,0.0,0.0,0.0,0.0,0.0,0.0,0.0,0.0,0.0,0.0,0.0,0.0,0.0,0.0,0.0,0.0,0.0,0.0,0.0,0.0,0.0,0.0,0.0,0.0,0.0,0.0,0.0,0.0,0.0,0.0,0.0,0.0,0.0,0.0,0.0,0.0,0.0,0.0,0.0,0.0,0.0,0.0,0.0,0.0,0.0,0.0,0.0,0.0,-3.3512,-3.4982,-3.544,-3.6344,-3.7783,-3.6077,-3.5019,0.0,0.0,0.0,0.0,0.0,0.0,0.0,0.0,0.0,0.0,0.0,0.0,0.0,0.0,0.0,0.0,0.0,0.0,0.0,0.0,0.0,0.0,0.0,0.0,0.0,0.0,0.0,0.0,0.0,0.0,0.0,0.0,0.0,0.0,0.0,0.0,0.0,0.0,0.0,0.0,0.0,0.0,0.0,0.0,0.0,0.0,0.0,0.0,0.0,0.0,0.0,0.0,0.0,0.0,0.0,0.0,0.0,0.0,0.0,0.0,0.0,0.0,0.0,0.0,0.0,0.0,0.0,0.0,0.0,0.0,0.0,0.0,0.0,0.0,0.0,0.0,0.0,0.0,0.0,0.0,0.0,0.0,0.0,0.0,0.0,0.0,0.0,0.0,0.0,0.0,0.0,0.0,0.0,0.0,0.0,0.0,0.0,0.0,0.0,0.0,0.0,0.0,0.0,0.0,0.0,0.0,0.0,0.0,-3.4032,-3.4186,-3.5041,-3.5914,-3.68,-3.614,-3.5038,0.0,0.0,0.0,0.0,0.0,0.0,0.0,0.0,0.0,0.0,0.0,0.0,0.0,0.0,0.0,0.0,0.0,0.0,0.0,0.0,0.0,0.0,0.0,0.0,0.0,0.0,0.0,0.0,0.0,0.0,0.0,0.0,0.0,0.0,0.0,0.0,0.0,0.0,0.0,0.0,0.0,0.0,0.0,0.0,0.0,0.0,0.0,0.0,0.0,0.0,0.0,0.0,0.0,0.0,0.0,0.0,0.0,0.0,0.0,0.0,0.0,0.0,0.0,0.0,0.0,0.0,0.0,0.0,0.0,0.0,0.0,0.0,0.0,0.0,0.0,0.0,0.0,0.0,0.0,0.0,0.0,0.0,0.0,0.0,0.0,0.0,0.0,0.0,0.0,0.0,0.0,0.0,0.0,0.0,0.0,0.0,0.0,0.0,0.0,0.0,0.0,0.0,0.0,0.0,0.0,0.0,0.0,0.0,-3.2878,-3.4167,-3.4502,-3.5081,-3.594,-3.526,-3.4706,0.0,0.0,0.0,0.0,0.0,0.0,0.0,0.0,0.0,0.0,0.0,0.0,0.0,0.0,0.0,0.0,0.0,0.0,0.0,0.0,0.0,0.0,0.0,0.0,0.0,0.0,0.0,0.0,0.0,0.0,0.0,0.0,0.0,0.0,0.0,0.0,0.0,0.0,0.0,0.0,0.0,0.0,0.0,0.0,0.0,0.0,0.0,0.0,-3.8781,0.0,0.0,0.0,0.0,0.0,0.0,0.0,0.0,0.0,0.0,0.0,0.0,0.0,0.0,0.0,0.0,0.0,0.0,0.0,0.0,0.0,0.0,0.0,0.0,0.0,0.0,0.0,0.0,0.0,0.0,0.0,0.0,0.0,0.0,0.0,0.0,0.0,0.0,0.0,0.0,0.0,0.0,0.0,0.0,0.0,0.0,0.0,0.0,0.0,0.0,0.0,0.0,0.0,0.0,0.0,0.0,0.0,0.0,0.0,-3.2526,-3.3013,-3.3955,-3.4657,-3.5107,-3.5219,-3.4844,0.0,0.0,0.0,0.0,0.0,0.0,0.0,0.0,0.0,0.0,0.0,0.0,0.0,0.0,0.0,0.0,0.0,0.0,0.0,0.0,0.0,0.0,0.0,0.0,0.0,0.0,0.0,0.0,0.0,0.0,0.0,0.0,0.0,0.0,0.0,0.0,0.0,0.0,0.0,0.0,0.0,0.0,0.0,0.0,0.0,0.0,0.0,0.0,0.0,0.0,0.0,0.0,0.0,0.0,0.0,0.0,0.0,0.0,0.0,0.0,0.0,0.0,0.0,0.0,0.0,0.0,0.0,0.0,0.0,0.0,0.0,0.0,0.0,0.0,0.0,0.0,0.0,0.0,0.0,0.0,0.0,0.0,0.0,0.0,0.0,0.0,0.0,0.0,0.0,0.0,0.0,0.0,0.0,0.0,0.0,0.0,0.0,0.0,0.0,0.0,0.0,0.0,0.0,0.0,0.0,0.0,0.0,-3.2583,-3.2256,-3.1788,-3.327,-3.4172,-3.4309,-3.527,-3.4958,-3.3182,0.0,0.0,0.0,0.0,0.0,0.0,0.0,0.0,0.0,0.0,0.0,0.0,0.0,0.0,0.0,0.0,0.0,0.0,0.0,0.0,0.0,0.0,0.0,0.0,0.0,0.0,0.0,0.0,0.0,0.0,0.0,0.0,0.0,0.0,0.0,0.0,0.0,0.0,-3.5477,-3.7687,0.0,0.0,0.0,0.0,0.0,0.0,0.0,0.0,-4.1468,0.0,0.0,0.0,0.0,0.0,0.0,0.0,0.0,0.0,0.0,0.0,0.0,0.0,0.0,0.0,0.0,0.0,0.0,0.0,0.0,0.0,0.0,0.0,0.0,0.0,0.0,0.0,0.0,0.0,0.0,0.0,0.0,0.0,0.0,0.0,0.0,0.0,0.0,0.0,0.0,0.0,0.0,0.0,0.0,0.0,0.0,0.0,0.0,0.0,0.0,0.0,0.0,0.0,0.0,0.0,0.0,-3.1872,-3.1173,-3.1077,-3.1685,-3.2104,-3.267,-3.3391,-3.4383,-3.4062,-3.2372,0.0,0.0,0.0,0.0,0.0,0.0,0.0,0.0,0.0,0.0,0.0,0.0,0.0,0.0,0.0,0.0,0.0,0.0,0.0,0.0,0.0,0.0,0.0,0.0,0.0,0.0,0.0,0.0,0.0,0.0,0.0,0.0,0.0,0.0,0.0,0.0,0.0,0.0,0.0,-4.1419,-4.2597,0.0,0.0,0.0,0.0,0.0,0.0,0.0,0.0,-4.1863,0.0,0.0,0.0,0.0,0.0,0.0,0.0,0.0,0.0,0.0,0.0,0.0,0.0,0.0,0.0,0.0,0.0,0.0,0.0,0.0,0.0,0.0,0.0,0.0,0.0,0.0,0.0,0.0,0.0,0.0,0.0,0.0,0.0,0.0,0.0,0.0,0.0,0.0,0.0,0.0,0.0,0.0,0.0,0.0,0.0,0.0,0.0,0.0,0.0,0.0,0.0,0.0,0.0,0.0,0.0,-3.0968,-3.0615,-3.0615,-3.1025,-3.1596,-3.232,-3.3158,-3.3732,-3.3594,0.0,0.0,0.0,0.0,0.0,0.0,0.0,0.0,0.0,0.0,0.0,0.0,0.0,0.0,0.0,0.0,0.0,0.0,0.0,0.0,0.0,0.0,0.0,0.0,0.0,0.0,0.0,0.0,0.0,0.0,0.0,0.0,0.0,0.0,0.0,0.0,0.0,0.0,0.0,0.0,-4.2478,-4.3686,-4.5027,0.0,0.0,0.0,0.0,0.0,0.0,-4.3078,-4.2714,0.0,0.0,0.0,0.0,0.0,0.0,0.0,0.0,0.0,0.0,0.0,0.0,0.0,0.0,0.0,0.0,0.0,0.0,0.0,0.0,0.0,0.0,0.0,0.0,0.0,0.0,0.0,0.0,0.0,0.0,0.0,0.0,0.0,0.0,0.0,0.0,0.0,0.0,0.0,0.0,0.0,0.0,0.0,0.0,0.0,0.0,0.0,0.0,0.0,0.0,0.0,0.0,0.0,0.0,0.0,-3.0323,-3.0349,-3.0323,-3.0374,-3.1182,-3.2043,-3.2904,-3.3228,-3.326,0.0,0.0,0.0,0.0,0.0,0.0,0.0,0.0,0.0,0.0,0.0,0.0,0.0,0.0,0.0,0.0,0.0,0.0,0.0,0.0,0.0,0.0,0.0,0.0,0.0,0.0,0.0,0.0,0.0,0.0,0.0,0.0,0.0,0.0,0.0,0.0,0.0,0.0,0.0,0.0,0.0,-4.4784,-4.5915,-4.6004,0.0,0.0,0.0,0.0,-4.384,-4.4302,0.0,0.0,0.0,0.0,0.0,0.0,0.0,0.0,0.0,0.0,0.0,0.0,0.0,0.0,0.0,0.0,0.0,0.0,0.0,0.0,0.0,0.0,0.0,0.0,0.0,0.0,0.0,0.0,0.0,0.0,0.0,0.0,0.0,0.0,0.0,0.0,0.0,0.0,0.0,0.0,0.0,0.0,0.0,0.0,0.0,0.0,0.0,0.0,0.0,0.0,0.0,0.0,0.0,0.0,0.0,0.0,-3.0098,-3.0129,-3.0129,-3.0143,-3.0469,-3.1081,-3.1942,-3.2839,-3.2912,0.0,0.0,0.0,0.0,0.0,0.0,0.0,0.0,0.0,0.0,0.0,0.0,0.0,0.0,0.0,0.0,0.0,0.0,0.0,0.0,0.0,0.0,0.0,0.0,0.0,0.0,0.0,0.0,0.0,0.0,0.0,0.0,0.0,0.0,0.0,0.0,0.0,0.0,0.0,0.0,0.0,-4.73,-4.3855,-4.531,-4.614,0.0,0.0,-4.5418,-4.5349,-4.7232,0.0,0.0,0.0,0.0,0.0,0.0,0.0,0.0,0.0,0.0,0.0,0.0,0.0,0.0,0.0,0.0,0.0,0.0,0.0,0.0,0.0,0.0,0.0,0.0,0.0,0.0,0.0,0.0,0.0,0.0,0.0,0.0,0.0,0.0,0.0,0.0,0.0,0.0,0.0,0.0,0.0,0.0,0.0,0.0,0.0,0.0,0.0,0.0,0.0,0.0,0.0,0.0,0.0,0.0,0.0,-2.8875,-2.9209,-2.9692,-3.0221,-3.0775,-3.0963,-3.1769,-3.3189,-3.2772,-3.2552,0.0,0.0,0.0,0.0,0.0,0.0,0.0,0.0,0.0,0.0,0.0,0.0,0.0,0.0,0.0,0.0,0.0,0.0,0.0,0.0,0.0,0.0,0.0,0.0,0.0,0.0,0.0,0.0,0.0,0.0,0.0,0.0,0.0,0.0,0.0,0.0,0.0,0.0,0.0,0.0,0.0,0.0,-4.4843,-4.5715,0.0,0.0,0.0,-4.6195,-4.5973,0.0,0.0,0.0,0.0,0.0,0.0,0.0,0.0,0.0,0.0,0.0,0.0,0.0,0.0,0.0,0.0,0.0,0.0,0.0,0.0,0.0,0.0,0.0,0.0,0.0,0.0,0.0,0.0,0.0,0.0,0.0,0.0,0.0,0.0,0.0,0.0,0.0,0.0,0.0,0.0,0.0,0.0,0.0,0.0,0.0,0.0,0.0,0.0,0.0,0.0,0.0,0.0,0.0,0.0,0.0,0.0,0.0,-2.8426,-2.9254,-3.0067,-3.0785,-3.1023,-3.1898,-3.3464,-3.2478,0.0,0.0,0.0,0.0,0.0,0.0,0.0,0.0,0.0,0.0,0.0,0.0,0.0,0.0,0.0,0.0,0.0,0.0,0.0,0.0,0.0,0.0,0.0,0.0,0.0,0.0,0.0,-2.6327,0.0,0.0,0.0,0.0,0.0,0.0,0.0,0.0,0.0,0.0,0.0,0.0,0.0,0.0,-4.4196,-4.5218,-4.5899,-4.6452,0.0,0.0,-4.6286,-4.5816,-4.6762,-4.6484,0.0,0.0,0.0,0.0,0.0,0.0,0.0,0.0,0.0,0.0,0.0,0.0,0.0,0.0,0.0,0.0,0.0,0.0,0.0,0.0,0.0,0.0,0.0,0.0,0.0,0.0,0.0,0.0,0.0,0.0,0.0,0.0,0.0,0.0,0.0,0.0,0.0,0.0,0.0,0.0,0.0,0.0,0.0,0.0,0.0,0.0,0.0,0.0,0.0,0.0,0.0,0.0,0.0,0.0,0.0,-2.825,-2.9017,-2.9465,-2.9532,-2.9902,-3.055,-3.1477,-3.1697,-3.1833,0.0,0.0,0.0,0.0,0.0,0.0,0.0,0.0,0.0,0.0,0.0,0.0,0.0,0.0,0.0,0.0,0.0,0.0,0.0,0.0,0.0,0.0,0.0,0.0,0.0,0.0,0.0,0.0,0.0,0.0,0.0,0.0,0.0,0.0,0.0,0.0,0.0,0.0,0.0,0.0,0.0,-4.4167,-4.3402,-4.5336,-4.6835,0.0,0.0,-4.5475,-4.4659,-4.7179,-4.7682,-4.3194,0.0,0.0,0.0,0.0,0.0,0.0,0.0,0.0,0.0,0.0,0.0,0.0,0.0,0.0,0.0,0.0,0.0,0.0,0.0,0.0,0.0,0.0,0.0,0.0,0.0,0.0,0.0,0.0,0.0,0.0,0.0,0.0,0.0,0.0,0.0,0.0,0.0,0.0,0.0,0.0,0.0,0.0,0.0,0.0,0.0,0.0,0.0,0.0,0.0,0.0,0.0,0.0,0.0,-2.8069,-2.8754,-2.8891,-2.9337,-3.0116,-3.0349,-3.089,-3.1826,-3.1606,-3.1512,0.0,0.0,0.0,0.0,0.0,0.0,0.0,0.0,0.0,0.0,0.0,0.0,0.0,0.0,0.0,0.0,0.0,0.0,0.0,0.0,0.0,0.0,0.0,0.0,0.0,0.0,0.0,0.0,-2.8802,-2.875,-2.9202,0.0,0.0,0.0,0.0,0.0,0.0,0.0,0.0,0.0,0.0,-4.2822,-4.351,-4.4434,0.0,0.0,-4.5944,-4.5683,-4.5633,-4.6004,-4.535,-4.2542,-4.1688,0.0,0.0,0.0,0.0,0.0,0.0,0.0,0.0,0.0,0.0,0.0,0.0,0.0,0.0,0.0,0.0,0.0,0.0,0.0,0.0,0.0,0.0,0.0,0.0,0.0,0.0,0.0,0.0,0.0,0.0,0.0,0.0,0.0,0.0,0.0,0.0,0.0,0.0,0.0,0.0,0.0,0.0,0.0,0.0,0.0,0.0,0.0,0.0,0.0,0.0,0.0,0.0,-2.8148,-2.8952,-2.8918,-2.9223,-3.0002,-3.0095,-3.055,-3.1318,-3.1025,-3.086,0.0,0.0,0.0,0.0,0.0,0.0,0.0,0.0,0.0,0.0,0.0,0.0,0.0,0.0,0.0,0.0,0.0,0.0,0.0,0.0,0.0,0.0,0.0,0.0,0.0,0.0,0.0,0.0,-2.9447,-2.9195,-2.9803,0.0,0.0,0.0,0.0,0.0,0.0,0.0,0.0,0.0,0.0,-4.1091,-4.2451,-4.2993,-4.3582,-4.451,-4.4473,-4.4516,-4.5078,-4.4453,-4.3483,-4.2159,0.0,0.0,0.0,0.0,0.0,0.0,0.0,0.0,0.0,0.0,0.0,0.0,0.0,0.0,0.0,0.0,0.0,0.0,0.0,0.0,0.0,0.0,0.0,0.0,0.0,0.0,0.0,0.0,0.0,0.0,-3.1835,0.0,0.0,0.0,0.0,0.0,0.0,0.0,0.0,0.0,0.0,0.0,0.0,0.0,0.0,0.0,0.0,0.0,0.0,0.0,0.0,0.0,0.0,-2.852,-2.8619,-2.9022,-2.9057,-2.8668,-2.8842,-2.9081,-2.9468,-2.9617,-2.9761,-2.984,0.0,0.0,0.0,0.0,0.0,0.0,0.0,0.0,0.0,0.0,0.0,0.0,0.0,0.0,0.0,0.0,0.0,0.0,0.0,0.0,0.0,0.0,0.0,0.0,0.0,0.0,-3.0706,-3.058,-3.0394,0.0,0.0,0.0,0.0,0.0,0.0,0.0,0.0,0.0,0.0,-3.7166,-3.9007,-3.9771,-4.0923,-4.1796,-4.1851,-4.1533,-4.1515,-4.2343,-4.265,-4.2649,0.0,0.0,0.0,0.0,0.0,0.0,0.0,0.0,0.0,0.0,0.0,0.0,0.0,0.0,0.0,0.0,0.0,0.0,0.0,0.0,0.0,0.0,0.0,0.0,0.0,0.0,0.0,-3.5788,-3.425,0.0,0.0,0.0,0.0,0.0,0.0,0.0,0.0,0.0,0.0,0.0,-3.2116,-3.2374,0.0,0.0,0.0,0.0,0.0,0.0,0.0,0.0,0.0,0.0,0.0,0.0,-2.8248,-2.8866,-2.8428,-2.7947,-2.7499,-2.757,-2.7779,-2.8061,-2.8257,-2.8568,-2.8973,0.0,0.0,0.0,0.0,0.0,0.0,0.0,0.0,0.0,0.0,0.0,0.0,0.0,0.0,0.0,0.0,0.0,0.0,0.0,0.0,0.0,0.0,0.0,0.0,0.0,-3.0451,0.0,0.0,0.0,0.0,0.0,0.0,0.0,0.0,0.0,0.0,0.0,-3.5278,-3.7017,-3.7978,-3.8956,-4.0179,-4.0766,-4.1205,0.0,0.0,0.0,0.0,0.0,0.0,0.0,0.0,0.0,0.0,0.0,0.0,0.0,0.0,-4.4595,-4.3309,-4.2216,-4.1543,-4.1693,0.0,0.0,0.0,0.0,0.0,0.0,0.0,0.0,0.0,0.0,0.0,0.0,0.0,0.0,0.0,0.0,-3.3608,0.0,0.0,0.0,0.0,0.0,0.0,0.0,0.0,-3.3422,-3.3312,-3.2743,-3.277,-3.2331,0.0,-3.1635,-3.0399,0.0,0.0,0.0,0.0,0.0,0.0,0.0,0.0,-2.8126,-2.8146,-2.74,-2.6843,-2.6493,-2.6306,-2.6392,-2.6747,-2.6933,-2.7277,-2.7821,-2.7608,-2.7093,0.0,0.0,0.0,0.0,0.0,0.0,0.0,0.0,0.0,0.0,0.0,0.0,0.0,0.0,0.0,0.0,0.0,0.0,0.0,0.0,0.0,0.0,0.0,-3.0254,0.0,0.0,0.0,0.0,0.0,0.0,0.0,0.0,0.0,-3.6221,-3.5636,-3.5847,-3.7692,-3.7403,-3.753,-3.8938,0.0,0.0,0.0,0.0,0.0,0.0,0.0,-4.1187,-4.1802,-4.2524,-4.3074,-4.3354,-4.4323,-4.5134,-4.5341,0.0,0.0,-4.4109,-4.2887,-4.2178,-4.2732,-4.1993,-4.1426,-4.1992,-4.1143,-4.0369,0.0,0.0,0.0,0.0,0.0,0.0,0.0,0.0,-3.5768,-3.5368,0.0,-3.3005,0.0,0.0,0.0,0.0,0.0,-3.3436,0.0,0.0,-3.3534,-3.355,-3.2773,-3.2119,-3.1221,-3.0307,-3.1959,-3.1541,-2.9125,-2.8828,0.0,0.0,0.0,0.0,0.0,0.0,-2.8083,-2.6404,-2.5991,-2.5746,-2.5558,-2.4966,-2.4937,-2.5511,-2.5648,-2.5937,-2.6377,-2.7227,-2.7146,-2.5968,-2.6707,0.0,0.0,0.0,0.0,0.0,0.0,0.0,0.0,0.0,0.0,0.0,0.0,0.0,0.0,0.0,0.0,0.0,0.0,0.0,0.0,-3.0048,0.0,0.0,0.0,0.0,0.0,0.0,0.0,0.0,0.0,0.0,-3.6323,-3.6191,-3.6195,-3.6929,0.0,0.0,0.0,0.0,-3.626,-3.7028,-3.7367,-3.8065,-3.9467,-4.0508,-4.1372,-4.2057,0.0,0.0,-4.4448,-4.4582,-4.4425,-4.3656,-4.3659,-4.4618,-4.7173,-4.4852,-4.326,-4.4499,-4.3164,-4.2163,-4.2671,-4.2186,-4.1737,-3.7961,0.0,0.0,0.0,0.0,-3.6765,-3.6914,-3.7502,-3.6694,-3.5747,-3.4729,-3.4137,0.0,0.0,0.0,0.0,0.0,0.0,-3.1729,-3.0732,-3.0503,-3.0124,-2.9624,-2.8996,-2.8767,-2.885,-2.9409,-2.8812,-2.7257,-2.7145,-2.7728,-2.8946,0.0,0.0,0.0,0.0,-2.5194,-2.5225,-2.4625,-2.3983,-2.3437,-2.3284,-2.3517,-2.416,-2.5116,-2.5674,-2.5773,-2.602,-2.6027,-2.5757,-2.5515,0.0,0.0,0.0,0.0,0.0,0.0,0.0,0.0,0.0,0.0,0.0,0.0,0.0,0.0,0.0,0.0,0.0,0.0,0.0,-3.0862,-2.9444,-2.918,0.0,0.0,0.0,0.0,0.0,0.0,0.0,0.0,0.0,-3.5527,-3.5037,-3.484,0.0,0.0,-3.4792,-3.6659,-3.6059,-3.6034,-3.7698,-3.7203,0.0,0.0,-3.8639,-3.8954,-4.0034,-4.151,-4.264,-4.3023,-4.3122,-4.3084,-4.2788,-4.2851,-4.3012,-4.3205,-4.3026,-4.271,-4.3086,-4.2704,-4.219,-4.1961,-4.1397,-4.0766,-3.663,-3.6198,-3.6885,-3.7061,-3.6912,-3.6403,-3.6577,-3.714,-3.6095,-3.5169,-3.4317,-3.3566,-3.2466,-3.1176,-3.1,0.0,0.0,0.0,-2.9928,-2.8818,-2.8219,-2.7656,-2.7171,-2.6568,-2.6455,-2.6759,-2.657,-2.6078,-2.5329,-2.511,-2.5485,-2.6533,0.0,0.0,-2.5342,-2.4308,-2.3604,-2.3221,-2.2738,-2.2411,-2.2229,-2.2118,-2.2285,-2.2704,-2.3497,-2.4168,-2.4685,-2.5013,-2.5191,-2.5198,-2.5057,-2.4712,0.0,0.0,0.0,0.0,0.0,0.0,0.0,0.0,0.0,0.0,0.0,-2.9076,-2.9218,0.0,0.0,0.0,-2.8672,-2.9402,-2.9761,-2.904,0.0,0.0,0.0,0.0,0.0,0.0,0.0,-3.375,-3.3731,-3.3653,-3.3836,-3.3583,-3.3799,-3.5011,-3.4133,-3.4038,-3.5864,0.0,-3.5045,-3.6556,-3.6107,-3.6031,-3.7315,-3.752,-3.802,-3.9615,-4.0507,-4.1205,-4.1612,-4.1693,-4.1617,-4.14,-4.1307,-4.1116,-4.0435,-4.0642,-4.1008,-4.126,-4.1103,-4.0753,-4.0356,-3.9771,-3.9186,-3.486,-3.4531,-3.6477,-3.6973,-3.6553,-3.6553,-3.6199,-3.5557,-3.4317,-3.3739,-3.3522,-3.1705,-3.0749,-3.0426,-2.9812,0.0,-2.8728,-2.8886,-2.8312,-2.7178,-2.6492,-2.5835,-2.5245,-2.4515,-2.4205,-2.4209,-2.3669,-2.3388,-2.3269,-2.2729,-2.2483,-2.2521,-2.4205,-2.4304,-2.293,-2.3381,-2.2677,-2.0666,-2.0636,-2.0932,-2.1588,-2.1342,-2.1197,-2.1229,-2.1323,-2.2019,-2.3357,-2.4125,-2.4471,-2.4347,-2.4905,-2.4606,-2.3251,0.0,0.0,0.0,0.0,0.0,0.0,0.0,0.0,0.0,0.0,0.0,0.0,0.0,0.0,0.0,-2.6183,0.0,-2.7637,-2.885,0.0,0.0,0.0,-3.0947,-3.1654,-3.1216,-3.1371,-3.2725,0.0,0.0,-3.162,-3.2005,-3.2956,-3.4804,-3.3504,-3.2906,-3.4246,-3.3814,-3.3554,-3.4459,-3.4368,-3.4757,-3.6009,-3.6722,-3.7655,-3.9374,-4.013,-4.0073,-4.0172,-4.0268,-4.0025,-3.9566,-3.9408,-3.9172,-3.8431,-3.8332,-3.8435,-3.8873,-3.8741,-3.849,-3.84,-3.792,-3.7441,-3.2625,-3.2885,-3.2981,-3.3158,-3.3458,-3.3473,-3.3147,-3.2569,-3.2234,-3.1582,-3.0683,-3.0209,-2.9453,-2.8482,-2.8325,-2.8182,-2.804,-2.7655,-2.6835,-2.5619,-2.458,-2.3778,-2.3111,-2.2092,-2.1684,-2.1786,-2.1233,-2.0582,-1.9917,-1.9751,-1.9693,-1.9779,-2.0201,-2.0715,-2.128,-2.0429,-1.973,-1.9204,-1.9189,-1.9449,-1.9942,-2.0148,-2.0399,-2.0763,-2.1039,-2.1647,-2.2619,-2.2832,-2.3207,-2.3682,-2.335,-2.2968,-2.2604,-2.2508,0.0,0.0,0.0,0.0,0.0,0.0,0.0,0.0,0.0,-2.8812,-2.7376,0.0,-2.9694,0.0,-2.6076,-2.6638,-2.9445,-2.906,0.0,0.0,-3.0789,-3.0582,-3.0964,-3.0213,-2.9774,-3.0102,-3.046,-3.0605,-3.0507,-3.098,-3.1497,-3.1986,-3.2262,-3.2778,-3.3786,-3.2879,-3.2532,-3.3561,-3.3046,-3.2993,-3.4562,-3.5079,-3.5573,-3.6516,-3.7001,-3.7375,-3.7887,-3.8334,-3.8544,-3.8411,-3.8378,-3.7867,-3.6735,-3.6526,-3.6134,-3.5484,-3.6559,-3.7713,-3.7228,-3.6673,-3.6138,-3.0431,-3.0736,-3.0363,-2.9982,-2.9657,-3.1304,-3.1641,-3.1081,-3.0813,-3.0006,-2.8816,-2.8212,-2.7578,-2.6906,-2.6698,-2.6353,-2.5869,-2.5327,-2.4319,-2.2927,-2.2075,-2.1329,-2.0693,-1.985,-1.9508,-1.9598,-1.9007,-1.8446,-1.7967,-1.7685,-1.7611,-1.7654,-1.7641,-1.803,-1.8735,-1.8741,-1.8669,-1.8511,-1.8645,-1.8836,-1.9095,-1.927,-1.9731,-2.0429,-2.0179,-2.0643,-2.1945,-2.1844,-2.1961,-2.2376,-2.2585,-2.244,-2.1827,-2.1983,-2.1911,0.0,0.0,0.0,0.0,0.0,0.0,0.0,0.0,0.0,0.0,0.0,-2.8412,-2.7899,-2.6497,-2.6658,-2.915,-2.8654,-2.8774,-3.0155,-2.9763,-2.9471,-2.9666,-2.9148,-2.8819,-2.8791,-2.9097,-2.9231,-2.903,-2.9537,-2.9959,-2.9853,-3.0615,-3.1491,-3.2302,-3.1826,-3.1647,-3.2169,-3.1679,-3.1545,-3.2796,-3.32,-3.3499,-3.3888,-3.4153,-3.4463,-3.4805,-3.513,-3.5406,-3.567,-3.5744,-3.561,-3.502,-3.4903,-3.4587,-3.4174,-3.4643,-3.5424,-3.5398,-3.5156,-3.4772,-2.8145,-2.8196,-2.8132,-2.7168,-2.5908,-2.9161,-3.0206,-2.9614,-2.9097,-2.8218,-2.701,-2.5811,-2.5226,-2.5161,-2.4754,-2.4028,-2.3056,-2.2538,-2.1493,-2.0069,-1.9543,-1.8977,-1.84,-1.7909,-1.7663,-1.7615,-1.7029,-1.6738,-1.6657,-1.6197,-1.5991,-1.6035,-1.6078,-1.61,-1.6212,-1.7695,-1.8329,-1.8042,-1.8316,-1.8477,-1.8516,-1.8574,-1.9056,-1.9977,-1.9181,-1.9441,-2.1052,-2.0874,-2.0694,-2.0745,-2.1869,-2.1979,-2.081,-2.1301,-2.1398,0.0,-2.0972,0.0,0.0,0.0,0.0,0.0,0.0,0.0,0.0,-2.5274,-2.6633,-2.8015,-2.677,-2.6458,-2.7721,-2.7915,-2.8061,-2.8253,-2.8154,-2.8082,-2.8068,-2.7982,-2.7869,-2.7883,-2.794,-2.784,-2.7477,-2.7997,-2.8383,-2.832,-2.8835,-2.9565,-3.0381,-3.0644,-3.0673,-3.0374,-3.0389,-3.0667,-3.0989,-3.1415,-3.1749,-3.176,-3.1921,-3.1808,-3.1976,-3.2044,-3.218,-3.2663,-3.2882,-3.2925,-3.324,-3.3314,-3.3308,-3.3008,-3.2758,-3.2876,-3.3506,-3.3638,-3.347,-2.518,-2.5552,-2.5119,-2.4451,-2.3903,-2.4969,-2.5124,-2.4674,-2.4542,-2.41,-2.3369,-2.2693,-2.2173,-2.1837,-2.1734,-2.1386,-2.0803,-2.0256,-1.9642,-1.8964,-1.8386,-1.7874,-1.7361,-1.6848,-1.6468,-1.6173,-1.5603,-1.5165,-1.4889,-1.4776,-1.4869,-1.513,-1.5355,-1.5601,-1.5901,0.0,0.0,0.0,-1.6909,-1.7229,-1.7565,-1.7821,-1.8282,-1.8883,-1.8745,0.0,-1.9188,-1.9165,-1.9145,-1.9159,-1.9382,0.0,0.0,0.0,0.0,0.0,0.0,0.0,0.0,0.0,0.0,0.0,-2.2817,-2.2821,-2.3633,-2.4342,-2.4873,-2.5116,-2.5346,-2.5755,-2.6342,-2.6897,-2.7454,-2.794,-2.7257,-2.6805,-2.6877,-2.6174,-2.563,-2.5643,-2.6042,-2.6299,-2.6239,-2.6827,-2.72,-2.713,-2.7292,-2.766,-2.8246,-2.9058,-2.958,-2.9546,-2.978,-3.0054,-3.0168,-3.0295,-3.0344,-3.0411,-3.0703,-3.0878,-3.0903,-3.1249,-3.1542,-3.1707,-3.1754,-3.155,-3.1164,-3.1364,-3.136,-3.033,-3.0423,-3.1114,-3.268,-3.2684,-3.2253,-2.3804,0.0,-2.3524,-2.2912,0.0,-2.2377,-2.1857,-2.095,-2.2069,-2.2214,-2.1643,-2.1365,-2.1106,-2.09,-2.067,-2.015,-1.9413,-1.869,-1.8125,-1.7611,-1.6817,-1.635,-1.6112,-1.5599,-1.5277,-1.509,-1.46,-1.4374,-1.4396,-1.4199,-1.4316,-1.464,-1.4582,-1.4652,-1.4801,-1.496,-1.54,-1.62,-1.6349,-1.6552,-1.6752,-1.6934,-1.7408,-1.8153,0.0,0.0,0.0,0.0,0.0,0.0,0.0,0.0,0.0,0.0,0.0,-1.9267,-2.0335,-2.0819,-2.0576,-2.1451,-2.1894,-2.1635,-2.1903,-2.2312,-2.2817,-2.3412,-2.3893,-2.4166,-2.4554,-2.4713,-2.4631,-2.4951,-2.5245,-2.5532,-2.47,-2.4311,-2.4776,-2.4126,-2.3573,-2.3803,-2.4075,-2.4257,-2.4257,-2.4713,-2.5174,-2.5528,-2.5729,-2.5931,-2.6413,-2.7604,-2.8528,-2.8666,-2.8707,-2.8762,-2.8776,-2.8762,-2.8762,-2.883,-2.8957,-2.9089,-2.913,-2.9343,-2.9623,-2.9881,-2.9977,-2.9876,-2.9918,-2.9861,-2.9692,-2.9401,-2.9282,-2.9637,-3.086,-3.0905,-3.0659,-2.2627,-2.2287,-2.2287,-2.1632,-2.0596,-2.0683,-1.98,-1.8384,0.0,0.0,0.0,-2.0384,-2.0338,-2.0308,-1.9844,-1.9108,-1.8143,-1.739,-1.6727,-1.6157,-1.5351,-1.489,-1.4709,-1.4322,-1.414,-1.4046,-1.3732,-1.3732,-1.4046,-1.3742,-1.3742,-1.3988,-1.3755,-1.365,-1.3674,-1.3708,-1.4352,-1.5601,-1.5869,-1.5969,-1.5991,-1.6035,-1.6482,-1.7364,-1.6516,-1.6654,-1.7868,-1.7093,-1.6807,-1.7182,-1.7721,-1.7887,-1.7666,-1.859,-1.9035,-1.8803,-1.9296,-1.9427,-1.894,-1.9512,-1.9863,-1.9877,-2.0891,-2.1645,-2.1931,-2.2426,-2.2901,-2.3339,-2.3402,-2.3228,-2.2749,-2.279,-2.2844,-2.2834,-2.2082,-2.2012,-2.2804,-2.2284,-2.1989,-2.2265,-2.2374,-2.2339,-2.2416,-2.2738,-2.307,-2.3667,-2.3999,-2.4296,-2.4758,-2.6188,-2.7467,-2.7733,-2.7769,-2.759,-2.7536,-2.759,-2.7503,-2.7656,-2.7603,-2.7503,-2.749,-2.7411,-2.7602,-2.8273,-2.8098,-2.819,-2.8673,-2.846,-2.8227,-2.8631,-2.8388,-2.8185,-2.8586,-2.8679,-2.874,-2.0284,-2.0231,-2.022,-1.9889,-1.9389,-1.9797,-1.9112,-1.7843,-1.8154,-1.8448,-1.8733,-1.8311,-1.8153,-1.8132,-1.7641,-1.6958,-1.6126,-1.5997,-1.5478,0.0,-1.4491,-1.4012,-1.3298,-1.3238,-1.305,-1.2764,-1.2715,-1.2715,-1.2764,-1.2715,-1.2715,-1.2788,-1.2871,-1.3054,-1.3266,-1.328,-1.3399,-1.3637,-1.4571,-1.5085,-1.5085,-1.5378,-1.5568,-1.5717,-1.5603,-1.5714,-1.6137,-1.5998,-1.6086,-1.6337,-1.6467,-1.6489,-1.647,-1.6641,-1.6666,-1.6672,-1.7159,-1.7398,-1.7335,-1.7886,-1.8237,-1.8237,-1.8416,-1.9355,-2.128,-2.1324,-2.1043,-2.0656,-2.0808,-2.0821,-2.0751,-2.1142,-2.1418,-2.1428,-2.1265,-2.1274,-2.1473,-2.1301,-2.119,-2.1313,-2.1309,-2.1317,-2.1375,-2.1711,-2.2053,-2.2187,-2.2371,-2.2508,-2.3226,-2.4785,-2.6162,-2.681,-2.7256,-2.7451,-2.7287,-2.7477,-2.7404,-2.7503,-2.7443,-2.7377,-2.7358,-2.7071,-2.6973,-2.7482,-2.6908,-2.6608,-2.7033,-2.7023,-2.687,-2.6734,-2.681,-2.6875,-2.6704,-2.6592,-2.6797,-1.9486,-1.9294,-1.9396,-1.9295,-1.9088,-1.8785,-1.8132,-1.7286,-1.6799,-1.7002,-1.7585,-1.7409,-1.7175,-1.6921,-1.6516,-1.5843,-1.4988,-1.4727,-1.4268,-1.3664,-1.3616,-1.3297,-1.2764,-1.272,-1.2657,-1.248,-1.2274,-1.2298,-1.2455,-1.2274,-1.2274,-1.2471,-1.2378,-1.227,-1.2181,-1.2403,-1.2476,-1.2525,-1.3471,-1.3967,-1.399,-1.4109,-1.4106,-1.3891,-1.4038,-1.4228,-1.4384,-1.431,-1.4576,-1.5186,-1.4966,-1.5031,-1.5467,-1.5783,-1.6051,-1.6245,-1.6761,-1.7,-1.6849,-1.7092,-1.7238,-1.7238,-1.7375,-1.7945,-1.9172,-1.9522,-1.9546,-1.9283,-1.9588,-1.9816,-1.9816,-2.0037,-2.0296,-2.0646,-2.0217,-2.01,-2.0544,-2.0184,-2.0034,-2.0267,-2.0338,-2.0338,-2.0326,-2.054,-2.083,-2.0998,-2.1064,-2.1235,-2.174,-2.2619,-2.3777,-2.5068,-2.5797,-2.594,-2.5858,-2.6264,-2.6547,-2.6644,-2.6646,-2.6625,-2.664,-2.6368,-2.6282,-2.6223,-2.5945,-2.5988,-2.6227,-2.5978,-2.5826,-2.5955,-2.5763,-2.5753,-2.5805,-2.5674,-2.5737,-1.8567,-1.8259,-1.8408,-1.8425,-1.8288,-1.7391,-1.6788,-1.6377,-1.5635,-1.5694,-1.6287,-1.6456,-1.6367,-1.6106,-1.5693,-1.5039,-1.4257,-1.3776,-1.3361,-1.2992,-1.2915,-1.2696,-1.2397,-1.2382,-1.2323,-1.22,-1.1902,-1.1927,-1.215,-1.1927,-1.1927,-1.2175,-1.1927,-1.1603,-1.1301,-1.1628,-1.1778,-1.1828,-1.2418,-1.288,-1.3025,-1.296,-1.2769,-1.2496,-1.2613,-1.2729,-1.283,-1.2743,-1.3076,-1.3788,-1.3604,-1.3706,-1.4227,-1.4886,-1.5343,-1.5603,-1.6089,-1.6277,-1.6068,-1.6044,-1.6021,-1.5905,-1.6099,-1.6307,-1.6536,-1.7239,-1.7857,-1.8176,-1.8464,-1.8666,-1.8692,-1.873,-1.8964,-1.9354,-1.8797,-1.8691,-1.9455,-1.9046,-1.8747,-1.9229,-1.9344,-1.9321,-1.9356,-1.9436,-1.968,-1.9974,-2.0005,-2.018,-2.0523,-2.0604,-2.1362,-2.2739,-2.3986,-2.4556,-2.4191,-2.4854,-2.5433,-2.5542,-2.5556,-2.5569,-2.5536,-2.5485,-2.5324,-2.5024,-2.4991,-2.5071,-2.523,-2.4886,-2.4677,-2.484,-2.4646,-2.4624,-2.5071,-2.5039,-2.4933,-1.6586,-1.6507,-1.6602,-1.6369,-1.6087,-1.5283,-1.492,-1.4829,-1.4354,-1.4192,-1.4378,-1.486,-1.5286,-1.5525,-1.4849,-1.4212,-1.3722,-1.3337,-1.2913,-1.255,-1.2539,-1.2323,-1.1952,-1.1952,-1.1744,-1.1477,-1.1377,-1.1368,-1.1427,-1.1377,-1.1368,-1.1402,-1.1377,-1.1326,-1.1301,-1.1326,-1.1352,-1.1352,-1.1452,-1.1828,-1.2501,-1.2211,-1.2004,-1.1966,-1.1637,-1.1567,-1.182,-1.1814,-1.1964,-1.2302,-1.2576,-1.2597,-1.2469,-1.3047,-1.3476,-1.3546,-1.3896,-1.4086,-1.4101,-1.4044,-1.3971,-1.358,-1.3642,-1.3683,-1.3741,-1.4433,-1.5538,-1.6581,-1.6729,-1.6779,-1.6823,-1.6883,-1.6963,-1.7079,-1.697,-1.7042,-1.7606,-1.7606,-1.7714,-1.8192,-1.8375,-1.826,-1.8409,-1.8707,-1.8982,-1.9079,-1.9099,-1.9137,-1.9195,-1.9223,-1.9332,-2.0298,-2.1979,-2.3443,-2.3529,-2.4099,-2.4414,-2.4488,-2.4542,-2.4513,-2.4439,-2.4144,-2.3804,-2.4058,-2.3675,-2.3421,-2.3592,-2.3313,-2.3067,-2.3383,-2.3351,-2.3167,-2.356,-2.4058,-2.436,-1.6123,-1.6097,-1.6049,-1.5797,-1.5444,-1.4836,-1.4471,-1.4218,-1.3774,-1.3442,-1.3211,-1.3408,-1.3778,-1.4178,-1.3427,-1.2918,-1.2604,-1.2096,-1.1753,-1.1578,-1.1594,-1.141,-1.1091,-1.1074,-1.0972,-1.082,-1.082,-1.0828,-1.082,-1.0845,-1.0845,-1.082,-1.082,-1.0845,-1.082,-1.082,-1.0744,-1.0541,-1.0533,-1.0609,-1.0821,-1.1278,-1.1319,-1.088,-1.0863,-1.0851,-1.0811,-1.074,-1.1003,-1.1567,-1.1731,-1.1728,-1.1648,-1.2359,-1.268,-1.2497,-1.2909,-1.316,-1.3035,-1.3136,-1.3126,-1.2967,-1.2842,-1.2817,-1.2943,-1.3194,-1.3668,-1.4384,-1.5232,-1.5756,-1.5771,-1.5607,-1.5479,-1.5521,-1.5762,-1.6168,-1.6735,-1.7078,-1.7465,-1.8007,-1.8084,-1.8084,-1.8134,-1.8283,-1.8409,-1.8421,-1.8421,-1.8444,-1.8437,-1.8413,-1.8472,-1.8783,-1.9957,-2.0944,-2.1596,-2.2382,-2.295,-2.3329,-2.3424,-2.3435,-2.3393,-2.3263,-2.3041,-2.2989,-2.2728,-2.2663,-2.3043,-2.2918,-2.2702,-2.2662,-2.2972,-2.3167,-2.3373,-2.3844,-2.4131,-1.5221,-1.5265,-1.5018,-1.4696,-1.4354,-1.3956,-1.361,-1.3338,-1.2956,-1.2627,-1.2343,-1.228,-1.2474,-1.2722,-1.2357,-1.2026,-1.1758,-1.1311,-1.0992,-1.0835,-1.0902,-1.0808,-1.053,-1.0496,-1.0496,-1.047,-1.036,-1.0308,-1.0326,-1.047,-1.0496,-1.0496,-1.0385,-1.03,-1.03,-1.0223,-1.0028,-0.9799,-0.978,-0.9677,-0.9633,-1.0277,-1.045,-0.9946,-0.9968,-0.9943,-0.9876,-0.9771,-1.0003,-1.0628,-1.0714,-1.0724,-1.0693,-1.1524,-1.1965,-1.1959,-1.2416,-1.2589,-1.2348,-1.2476,-1.2506,-1.2384,-1.224,-1.2215,-1.2344,-1.2329,-1.2412,-1.2671,-1.3676,-1.4374,-1.4674,-1.4461,-1.4297,-1.4328,-1.4675,-1.5158,-1.5855,-1.6267,-1.6586,-1.73,-1.7458,-1.7838,-1.8023,-1.8134,-1.8146,-1.8146,-1.8134,-1.8084,-1.8084,-1.8123,-1.8111,-1.8123,-1.8495,-1.9096,-1.9977,-2.0936,-2.1686,-2.2106,-2.2325,-2.2339,-2.2362,-2.2308,-2.2247,-2.208,-2.2199,-2.2158,-2.1964,-2.2022,-2.2058,-2.2105,-2.2366,-2.2728,-2.2725,-2.3306,-2.3646,-1.3313,-1.3512,-1.2908,-1.2583,-1.2158,-1.1942,-1.1801,-1.1895,-1.1747,-1.1701,-1.1703,-1.167,-1.1654,-1.1748,-1.1916,-1.1842,-1.1511,-1.1352,-1.1007,-1.0568,-1.0738,-1.0746,-1.0504,-1.0496,-1.047,-1.0334,-0.9991,-0.9821,-0.9821,-1.0231,-1.0496,-1.0445,-0.9984,-0.9788,-0.9736,-0.9451,-0.9261,-0.9202,-0.9209,-0.9176,-0.9176,-0.9254,-0.9302,-0.9244,-0.8829,-0.8741,-0.8998,-0.9053,-0.907,-0.9096,-0.9495,-0.9529,-0.9271,-1.0214,-1.114,-1.1803,-1.2255,-1.2323,-1.1977,-1.1943,-1.1819,-1.1494,-1.1402,-1.1368,-1.1519,-1.1719,-1.1868,-1.1943,-1.2149,-1.2544,-1.3174,-1.3258,-1.3233,-1.3247,-1.3286,-1.3806,-1.4737,-1.4682,-1.4831,-1.5721,-1.6418,-1.7041,-1.7907,-1.8084,-1.8057,-1.8057,-1.8084,-1.8084,-1.8084,-1.8084,-1.8057,-1.8057,-1.8171,-1.849,-1.95,-2.0229,-2.0719,-2.1273,-2.1562,-2.1342,-2.1282,-2.1247,-2.1215,-2.1195,-2.1211,-2.1105,-2.0833,-2.0704,-2.0662,-2.0786,-2.1107,-2.1416,-2.2073,-2.2182,-2.2625,-1.314,-1.2833,-1.2361,-1.2028,-1.1728,-1.1635,-1.1591,-1.1591,-1.1591,-1.1591,-1.1591,-1.1591,-1.1591,-1.1591,-1.1682,-1.154,-1.1151,-1.0773,-1.0424,-1.0167,-1.0087,-1.0019,-0.9921,-0.9932,-0.9777,-0.9524,-0.9368,-0.9159,-0.8942,-0.9099,-0.9159,-0.9126,-0.8995,-0.8909,-0.889,-0.8751,-0.8587,-0.8375,-0.8369,-0.829,-0.8125,-0.795,-0.8005,-0.8316,-0.837,-0.8267,-0.8057,-0.8116,-0.8165,-0.8185,-0.8797,-0.8986,-0.877,-0.97,-1.0681,-1.1406,-1.1653,-1.1678,-1.1528,-1.1528,-1.1452,-1.1301,-1.0913,-1.0913,-1.1141,-1.1108,-1.1091,-1.1427,-1.1528,-1.1719,-1.1859,-1.1999,-1.1999,-1.2036,-1.2296,-1.2807,-1.3488,-1.3815,-1.4241,-1.4993,-1.5716,-1.6455,-1.6994,-1.7523,-1.7838,-1.7865,-1.7975,-1.8057,-1.8057,-1.7947,-1.7838,-1.781,-1.7684,-1.7784,-1.8465,-1.9431,-2.0171,-2.0762,-2.1108,-2.0928,-2.0807,-2.0353,-2.0223,-2.0435,-2.04,-2.0189,-1.9958,-1.9832,-1.9736,-2.0151,-2.0445,-2.078,-2.1529,-2.1745,-2.2259,-1.2862,-1.2339,-1.2091,-1.1853,-1.1606,-1.1591,-1.1591,-1.1591,-1.1591,-1.1591,-1.1591,-1.1591,-1.1591,-1.1591,-1.1591,-1.1404,-1.1054,-1.0731,-1.0405,-1.0038,-0.9957,-0.9819,-0.961,-0.9465,-0.929,-0.9035,-0.885,-0.8586,-0.8235,-0.8342,-0.8395,-0.8421,-0.8262,-0.8182,-0.8156,-0.8049,-0.7857,-0.7691,-0.7631,-0.7563,-0.7358,-0.7197,-0.7218,-0.7456,-0.7745,-0.7825,-0.7553,-0.7688,-0.7714,-0.7726,-0.8213,-0.8563,-0.8805,-0.9487,-1.0339,-1.1156,-1.1301,-1.1301,-1.1301,-1.1301,-1.1226,-1.1015,-1.0684,-1.0608,-1.093,-1.0633,-1.0735,-1.1116,-1.1301,-1.1301,-1.1301,-1.1318,-1.1301,-1.1327,-1.1619,-1.2087,-1.2628,-1.2904,-1.3373,-1.408,-1.4793,-1.5512,-1.6262,-1.6903,-1.7307,-1.7479,-1.7728,-1.781,-1.7783,-1.7661,-1.7534,-1.7534,-1.7357,-1.752,-1.8005,-1.8739,-1.9396,-1.9994,-2.0589,-2.0462,-2.0245,-1.9721,-1.942,-1.9627,-1.9584,-1.9323,-1.9153,-1.9008,-1.9244,-1.9662,-1.9885,-2.0137,-2.0783,-2.1353,-2.1846,-1.231,-1.204,-1.1996,-1.1831,-1.1606,-1.1591,-1.1591,-1.1591,-1.1591,-1.1591,-1.1591,-1.1591,-1.1591,-1.1591,-1.1591,-1.1408,-1.1225,-1.1327,-1.096,-1.0205,-1.0354,-1.0137,-0.9582,-0.9249,-0.8997,-0.8897,-0.8553,-0.8141,-0.7729,-0.8076,-0.8262,-0.8256,-0.7883,-0.7696,-0.7702,-0.7402,-0.7192,-0.716,-0.7192,-0.7166,-0.7106,-0.7111,-0.7014,-0.6835,-0.6959,-0.7223,-0.7628,-0.7752,-0.767,-0.749,-0.7608,-0.827,-0.9125,-0.9436,-0.9977,-1.0923,-1.1217,-1.1267,-1.1251,-1.1217,-1.0964,-1.0574,-1.0352,-1.0293,-1.0454,-1.0403,-1.0574,-1.1141,-1.1301,-1.1301,-1.1301,-1.1301,-1.1301,-1.1301,-1.1387,-1.161,-1.1895,-1.1773,-1.1939,-1.3016,-1.3652,-1.4449,-1.557,-1.6248,-1.6652,-1.7011,-1.719,-1.7273,-1.7329,-1.7273,-1.719,-1.719,-1.7117,-1.7194,-1.7589,-1.8061,-1.8597,-1.9113,-1.9691,-1.9965,-1.9814,-1.9425,-1.9008,-1.904,-1.8701,-1.8478,-1.8585,-1.8488,-1.8534,-1.8887,-1.9147,-1.9614,-2.0334,-2.0936,-2.1214,-1.2,-1.1974,-1.1794,-1.1694,-1.1591,-1.1591,-1.1591,-1.1591,-1.1591,-1.1591,-1.1591,-1.1591,-1.1591,-1.1591,-1.1591,-1.1533,-1.1452,-1.1525,-1.118,-1.0508,-1.0201,-0.9904,-0.9528,-0.9215,-0.8817,-0.837,-0.791,-0.7576,-0.7382,-0.7467,-0.7515,-0.7456,-0.7375,-0.73,-0.7321,-0.716,-0.7106,-0.7106,-0.7106,-0.7106,-0.7106,-0.7112,-0.7042,-0.6988,-0.7025,-0.7049,-0.702,-0.7038,-0.7047,-0.6961,-0.7132,-0.7668,-0.8484,-0.8772,-0.918,-0.9903,-1.0446,-1.0676,-1.0684,-1.0684,-1.06,-1.0293,-0.9744,-0.9751,-1.0216,-1.0061,-1.0318,-1.1091,-1.1301,-1.1301,-1.1301,-1.1301,-1.1301,-1.1301,-1.1301,-1.1336,-1.1515,-1.1455,-1.1635,-1.2149,-1.2878,-1.3625,-1.4353,-1.5089,-1.584,-1.6309,-1.6535,-1.6722,-1.7095,-1.695,-1.692,-1.6931,-1.6839,-1.6775,-1.7062,-1.7315,-1.7709,-1.8324,-1.8901,-1.9329,-1.9254,-1.8871,-1.8522,-1.8124,-1.7792,-1.7739,-1.7866,-1.7903,-1.7899,-1.8228,-1.8593,-1.9249,-2.0082,-2.0494,-2.0682,-1.1611,-1.1646,-1.1546,-1.1498,-1.1498,-1.156,-1.1591,-1.1591,-1.1591,-1.1498,-1.1341,-1.131,-1.1178,-1.1045,-1.1007,-1.1139,-1.1279,-1.1115,-1.0866,-1.0634,-1.0214,-0.9875,-0.9559,-0.9054,-0.855,-0.8029,-0.769,-0.7451,-0.723,-0.7219,-0.7176,-0.7101,-0.7106,-0.7112,-0.7106,-0.7106,-0.7106,-0.7085,-0.6891,-0.6783,-0.6701,-0.6534,-0.6534,-0.6701,-0.6783,-0.6791,-0.6806,-0.6835,-0.6776,-0.6707,-0.6771,-0.719,-0.795,-0.8146,-0.8498,-0.9223,-0.9666,-0.995,-0.995,-0.9943,-0.9873,-0.9647,-0.9093,-0.9014,-0.9614,-0.9595,-1.0053,-1.0753,-1.115,-1.1301,-1.1301,-1.1301,-1.1301,-1.1301,-1.1301,-1.1301,-1.1301,-1.1301,-1.1378,-1.1731,-1.2193,-1.2814,-1.3505,-1.3979,-1.4811,-1.5325,-1.5622,-1.5883,-1.63,-1.6402,-1.6486,-1.6574,-1.6584,-1.6509,-1.6462,-1.6659,-1.6858,-1.7478,-1.8155,-1.847,-1.8606,-1.7945,-1.7469,-1.6919,-1.6516,-1.6813,-1.6951,-1.6956,-1.6997,-1.7514,-1.8144,-1.8612,-1.9279,-1.9767,-2.0025,-1.1097,-1.1122,-1.1247,-1.124,-1.1209,-1.1365,-1.1365,-1.1459,-1.1334,-1.1076,-1.08,-1.0643,-1.044,-1.0053,-1.0053,-1.025,-1.0541,-1.0218,-1.0199,-1.0345,-1.0179,-0.983,-0.9482,-0.8788,-0.8261,-0.7911,-0.7847,-0.7688,-0.7444,-0.7396,-0.731,-0.7155,-0.7133,-0.7106,-0.7106,-0.7106,-0.7106,-0.7052,-0.6539,-0.6263,-0.6236,-0.566,-0.5605,-0.6122,-0.615,-0.6335,-0.6693,-0.6849,-0.6832,-0.6646,-0.6536,-0.6836,-0.7408,-0.7565,-0.8037,-0.8874,-0.9105,-0.9183,-0.9183,-0.9209,-0.9059,-0.8784,-0.86,-0.8626,-0.8883,-0.9354,-0.9821,-1.0446,-1.0964,-1.1301,-1.1301,-1.1301,-1.1301,-1.1301,-1.1301,-1.1301,-1.1301,-1.1301,-1.1336,-1.137,-1.1644,-1.2103,-1.2896,-1.3095,-1.3571,-1.4146,-1.4463,-1.4812,-1.5272,-1.5707,-1.596,-1.6164,-1.6381,-1.6413,-1.6394,-1.6195,-1.6449,-1.6872,-1.745,-1.7709,-1.7915,-1.7315,-1.6531,-1.5965,-1.572,-1.5935,-1.6205,-1.6412,-1.6853,-1.7605,-1.7974,-1.807,-1.8455,-1.9104,-1.9347,-1.0965,-1.109,-1.1153,-1.0825,-1.037,-1.0401,-1.0433,-1.037,-0.9888,-0.9952,-1.0021,-0.9665,-0.9538,-0.9576,-0.9346,-0.9474,-0.9678,-0.9448,-0.9282,-0.943,-0.9255,-0.9038,-0.8845,-0.8474,-0.8182,-0.809,-0.8054,-0.7966,-0.768,-0.7514,-0.7362,-0.7321,-0.7155,-0.7106,-0.7106,-0.7106,-0.7106,-0.7025,-0.6512,-0.6182,-0.6046,-0.555,-0.5359,-0.5496,-0.5523,-0.5609,-0.5823,-0.6209,-0.6526,-0.6681,-0.6665,-0.6693,-0.6962,-0.7099,-0.739,-0.7832,-0.8335,-0.86,-0.8593,-0.8593,-0.8521,-0.8448,-0.8076,-0.8049,-0.862,-0.9145,-0.9725,-1.0352,-1.0939,-1.1301,-1.1301,-1.1301,-1.1301,-1.1301,-1.1301,-1.1301,-1.1301,-1.1301,-1.1301,-1.1336,-1.1575,-1.1885,-1.2138,-1.242,-1.2785,-1.3323,-1.3695,-1.4111,-1.4631,-1.5279,-1.5649,-1.6156,-1.6384,-1.6402,-1.6316,-1.6029,-1.6071,-1.6405,-1.6795,-1.7043,-1.7144,-1.694,-1.6126,-1.5359,-1.5377,-1.557,-1.6035,-1.6363,-1.7034,-1.7569,-1.7411,-1.7385,-1.8174,-1.8795,-1.8749,-1.0611,-1.0415,-1.051,-1.0123,-0.9506,-0.9538,-0.9602,-0.95,-0.918,-0.9058,-0.9154,-0.8865,-0.8646,-0.8651,-0.8452,-0.8581,-0.8877,-0.8549,-0.8479,-0.8608,-0.835,-0.8258,-0.8205,-0.8027,-0.798,-0.8106,-0.8106,-0.7979,-0.7803,-0.7655,-0.7476,-0.7267,-0.7155,-0.7112,-0.7106,-0.7112,-0.695,-0.6674,-0.6127,-0.5741,-0.5473,-0.4897,-0.4791,-0.4897,-0.4979,-0.5038,-0.5304,-0.5882,-0.6275,-0.6395,-0.655,-0.6709,-0.6709,-0.6812,-0.6978,-0.7203,-0.7649,-0.7863,-0.7863,-0.7857,-0.7889,-0.7869,-0.7574,-0.7702,-0.8176,-0.8863,-0.9621,-0.9932,-1.0753,-1.1217,-1.1301,-1.1301,-1.1301,-1.1301,-1.1301,-1.1301,-1.1301,-1.1301,-1.1301,-1.1353,-1.1464,-1.1661,-1.1746,-1.1883,-1.2129,-1.2467,-1.2731,-1.3343,-1.3999,-1.4708,-1.5369,-1.5805,-1.6102,-1.6054,-1.5892,-1.5613,-1.5565,-1.5905,-1.6265,-1.6497,-1.6317,-1.6296,-1.576,-1.5108,-1.5115,-1.5308,-1.5865,-1.6324,-1.6654,-1.6925,-1.6682,-1.698,-1.7761,-1.8446,-1.833,-1.0085,-0.9426,-0.9594,-0.9256,-0.8672,-0.8763,-0.8801,-0.8833,-0.8652,-0.8473,-0.8256,-0.8083,-0.7846,-0.7456,-0.7512,-0.7652,-0.8042,-0.7619,-0.7717,-0.7782,-0.7652,-0.7526,-0.7754,-0.767,-0.7715,-0.7882,-0.7949,-0.7864,-0.7731,-0.7701,-0.7452,-0.7142,-0.7033,-0.7025,-0.6955,-0.6945,-0.6674,-0.6236,-0.5582,-0.5062,-0.468,-0.4159,-0.4021,-0.4325,-0.4405,-0.457,-0.5062,-0.5651,-0.6016,-0.5849,-0.6406,-0.6742,-0.6763,-0.6757,-0.6875,-0.7058,-0.7192,-0.7219,-0.7166,-0.7246,-0.7219,-0.7306,-0.7338,-0.7338,-0.7729,-0.86,-0.9335,-0.9517,-1.0557,-1.1124,-1.131,-1.1327,-1.1353,-1.1353,-1.1327,-1.1353,-1.1301,-1.1301,-1.1301,-1.1301,-1.131,-1.1456,-1.1567,-1.1541,-1.1439,-1.1931,-1.2199,-1.2774,-1.3443,-1.4136,-1.4785,-1.5335,-1.5527,-1.564,-1.54,-1.5167,-1.5216,-1.538,-1.5761,-1.5934,-1.5516,-1.5378,-1.5154,-1.4937,-1.4962,-1.5317,-1.5933,-1.6265,-1.6432,-1.676,-1.6855,-1.7028,-1.7361,-1.796,-1.8126,-0.9424,-0.8925,-0.8826,-0.8388,-0.7809,-0.7814,-0.7814,-0.7792,-0.7402,-0.7519,-0.763,-0.7288,-0.7153,-0.725,-0.6908,-0.6843,-0.7171,-0.6876,-0.6843,-0.7073,-0.6811,-0.6843,-0.7138,-0.733,-0.7526,-0.7587,-0.7587,-0.7589,-0.7536,-0.7366,-0.7133,-0.6895,-0.668,-0.668,-0.6695,-0.6317,-0.6154,-0.5987,-0.5199,-0.4653,-0.4408,-0.3913,-0.3666,-0.3833,-0.3833,-0.386,-0.4132,-0.4952,-0.5452,-0.5693,-0.6379,-0.6929,-0.6988,-0.6993,-0.7047,-0.7085,-0.7106,-0.7106,-0.7106,-0.7106,-0.7106,-0.7139,-0.7166,-0.7225,-0.7392,-0.8309,-0.9021,-0.9465,-1.0352,-1.1023,-1.1259,-1.1524,-1.1516,-1.143,-1.1507,-1.155,-1.1362,-1.1301,-1.1301,-1.1318,-1.131,-1.1336,-1.1404,-1.1421,-1.1404,-1.1507,-1.186,-1.2322,-1.2979,-1.367,-1.4221,-1.4816,-1.5011,-1.51,-1.4888,-1.4696,-1.4734,-1.4811,-1.5141,-1.5399,-1.4955,-1.4748,-1.4672,-1.4698,-1.4805,-1.5269,-1.579,-1.5963,-1.6053,-1.6567,-1.7054,-1.7132,-1.7342,-1.7741,-1.7834,-0.8695,-0.8205,-0.8088,-0.7619,-0.7068,-0.6966,-0.6966,-0.694,-0.681,-0.6894,-0.7095,-0.6817,-0.6817,-0.6933,-0.6568,-0.6515,-0.6585,-0.6486,-0.6486,-0.6618,-0.6486,-0.6519,-0.6613,-0.6872,-0.7036,-0.7167,-0.7204,-0.7228,-0.7222,-0.708,-0.687,-0.6632,-0.6293,-0.6119,-0.6119,-0.5632,-0.5332,-0.5164,-0.4728,-0.4294,-0.4024,-0.3805,-0.3613,-0.3613,-0.3613,-0.3613,-0.3722,-0.4463,-0.5007,-0.5441,-0.6182,-0.6837,-0.7058,-0.7106,-0.7106,-0.7106,-0.7106,-0.7106,-0.7106,-0.7106,-0.7106,-0.7106,-0.7106,-0.7187,-0.7503,-0.8236,-0.8884,-0.9357,-1.0064,-1.082,-1.1116,-1.1558,-1.1593,-1.1447,-1.1601,-1.1704,-1.1567,-1.1396,-1.1387,-1.143,-1.1396,-1.143,-1.1439,-1.1378,-1.1456,-1.161,-1.1722,-1.2184,-1.2865,-1.3496,-1.3765,-1.4223,-1.4458,-1.4505,-1.4354,-1.4231,-1.4229,-1.4289,-1.4445,-1.4634,-1.4506,-1.439,-1.4328,-1.4472,-1.464,-1.4937,-1.5366,-1.5529,-1.5983,-1.6775,-1.7235,-1.7235,-1.7392,-1.7768,-1.7691,-0.7959,-0.7372,-0.7344,-0.697,-0.6453,-0.642,-0.6453,-0.6444,-0.6637,-0.6722,-0.6731,-0.6718,-0.6718,-0.6673,-0.6497,-0.6391,-0.642,-0.6412,-0.6408,-0.6384,-0.6404,-0.6416,-0.6429,-0.6445,-0.6542,-0.6772,-0.6802,-0.6882,-0.6863,-0.6783,-0.6548,-0.6294,-0.583,-0.5624,-0.5451,-0.4976,-0.4591,-0.434,-0.4095,-0.3879,-0.3666,-0.3583,-0.3557,-0.3613,-0.3613,-0.3613,-0.3752,-0.4325,-0.4869,-0.5304,-0.5964,-0.6566,-0.6945,-0.7106,-0.7106,-0.7106,-0.7106,-0.7106,-0.7106,-0.7106,-0.7106,-0.7106,-0.7106,-0.7203,-0.7539,-0.816,-0.8757,-0.9307,-0.9932,-1.069,-1.0962,-1.151,-1.1676,-1.1653,-1.1789,-1.1926,-1.1849,-1.1627,-1.1678,-1.1644,-1.149,-1.1379,-1.1439,-1.1422,-1.1567,-1.1729,-1.184,-1.2064,-1.2735,-1.3169,-1.3412,-1.3351,-1.3507,-1.366,-1.3503,-1.3504,-1.352,-1.3673,-1.3787,-1.3893,-1.3951,-1.3886,-1.388,-1.4273,-1.4527,-1.4814,-1.5086,-1.5388,-1.6054,-1.7017,-1.7373,-1.7339,-1.7545,-1.7818,-1.7567,-0.7333,-0.6805,-0.6647,-0.6519,-0.642,-0.642,-0.642,-0.6415,-0.6611,-0.6726,-0.6731,-0.6731,-0.6726,-0.6643,-0.6464,-0.6424,-0.642,-0.6383,-0.6343,-0.6294,-0.6319,-0.6343,-0.6269,-0.6257,-0.6313,-0.6329,-0.6452,-0.6513,-0.6444,-0.6397,-0.6226,-0.5814,-0.5401,-0.5219,-0.4869,-0.4346,-0.3929,-0.3873,-0.3599,-0.3383,-0.3413,-0.3416,-0.3499,-0.3557,-0.3585,-0.3585,-0.3833,-0.457,-0.5199,-0.5391,-0.6372,-0.6896,-0.7106,-0.7133,-0.7139,-0.7133,-0.7117,-0.7117,-0.715,-0.7112,-0.7112,-0.7106,-0.7106,-0.7209,-0.7527,-0.8036,-0.8582,-0.9193,-0.9913,-1.0703,-1.1282,-1.1662,-1.2007,-1.2187,-1.2451,-1.2586,-1.2363,-1.2175,-1.2055,-1.1977,-1.1653,-1.1396,-1.1533,-1.1644,-1.1756,-1.1926,-1.2097,-1.2114,-1.2436,-1.2718,-1.286,-1.2671,-1.2444,-1.2565,-1.2619,-1.2683,-1.2747,-1.2958,-1.3114,-1.3201,-1.3249,-1.3241,-1.3401,-1.4168,-1.4489,-1.4631,-1.4909,-1.523,-1.6019,-1.6906,-1.7182,-1.7398,-1.751,-1.7651,-1.7539,-0.6767,-0.6542,-0.6453,-0.642,-0.642,-0.642,-0.642,-0.6448,-0.6611,-0.6731,-0.6731,-0.6731,-0.6726,-0.6673,-0.6497,-0.642,-0.642,-0.642,-0.6314,-0.6241,-0.6257,-0.6273,-0.618,-0.6207,-0.6249,-0.6318,-0.6371,-0.6319,-0.6232,-0.6281,-0.5946,-0.5419,-0.4991,-0.4587,-0.4148,-0.3522,-0.3297,-0.3325,-0.3163,-0.3079,-0.3218,-0.3246,-0.333,-0.3444,-0.3502,-0.353,-0.3749,-0.4349,-0.5007,-0.5386,-0.615,-0.6763,-0.712,-0.7273,-0.7245,-0.7235,-0.7176,-0.716,-0.7209,-0.7176,-0.7112,-0.7106,-0.7117,-0.7273,-0.7531,-0.7934,-0.8414,-0.9065,-0.9696,-1.0345,-1.0632,-1.1483,-1.1903,-1.2005,-1.2544,-1.286,-1.2751,-1.2563,-1.2423,-1.2284,-1.197,-1.1807,-1.1884,-1.1961,-1.1978,-1.2132,-1.2355,-1.2355,-1.2303,-1.2347,-1.2458,-1.2202,-1.2007,-1.2105,-1.2188,-1.2162,-1.2261,-1.2446,-1.2468,-1.2588,-1.2842,-1.295,-1.3671,-1.4528,-1.4666,-1.4466,-1.4727,-1.503,-1.5951,-1.6775,-1.7088,-1.7332,-1.7389,-1.7392,-1.7329,-0.642,-0.6424,-0.6457,-0.6469,-0.6473,-0.6473,-0.6477,-0.6497,-0.6583,-0.6631,-0.6639,-0.6635,-0.6657,-0.662,-0.6497,-0.642,-0.642,-0.642,-0.6347,-0.6256,-0.6241,-0.6233,-0.6215,-0.6192,-0.6237,-0.6286,-0.6327,-0.6286,-0.6208,-0.6223,-0.581,-0.5217,-0.4601,-0.4009,-0.3492,-0.3051,-0.286,-0.2833,-0.2888,-0.2914,-0.3023,-0.3077,-0.316,-0.3302,-0.333,-0.3388,-0.3499,-0.4104,-0.4792,-0.5337,-0.5999,-0.668,-0.7325,-0.7464,-0.7485,-0.7514,-0.7359,-0.7354,-0.7315,-0.7353,-0.7279,-0.7214,-0.7219,-0.7467,-0.7841,-0.8172,-0.8502,-0.9126,-0.9655,-1.0318,-1.0798,-1.137,-1.1858,-1.2203,-1.2677,-1.3065,-1.3023,-1.292,-1.2854,-1.262,-1.2276,-1.2165,-1.2235,-1.2209,-1.2218,-1.2355,-1.2588,-1.244,-1.2363,-1.2184,-1.2137,-1.186,-1.1705,-1.1834,-1.1868,-1.1782,-1.1965,-1.2196,-1.2091,-1.2034,-1.2458,-1.2849,-1.3686,-1.4451,-1.4321,-1.4188,-1.4502,-1.4884,-1.5562,-1.6293,-1.6947,-1.7309,-1.736,-1.7351,-1.7313,-0.642,-0.6428,-0.6616,-0.6652,-0.6647,-0.6635,-0.6643,-0.6627,-0.6513,-0.6419,-0.6477,-0.6461,-0.6465,-0.6453,-0.6444,-0.642,-0.642,-0.6412,-0.6323,-0.6216,-0.6294,-0.6286,-0.6223,-0.6211,-0.6208,-0.625,-0.6225,-0.6204,-0.6141,-0.6141,-0.5743,-0.501,-0.4457,-0.3992,-0.3359,-0.2915,-0.2719,-0.2723,-0.2723,-0.2802,-0.2912,-0.3021,-0.3105,-0.3132,-0.3132,-0.316,-0.3304,-0.3894,-0.4573,-0.5385,-0.6124,-0.6903,-0.7587,-0.7758,-0.7881,-0.7966,-0.7855,-0.7616,-0.753,-0.7575,-0.7569,-0.7478,-0.7548,-0.7822,-0.8124,-0.877,-0.9269,-0.9645,-0.9972,-1.0447,-1.1097,-1.1595,-1.2196,-1.266,-1.3063,-1.3314,-1.3335,-1.3228,-1.3143,-1.3086,-1.2774,-1.2586,-1.2526,-1.2475,-1.2458,-1.2612,-1.2726,-1.256,-1.2355,-1.2115,-1.1884,-1.161,-1.149,-1.1584,-1.1619,-1.1559,-1.1653,-1.193,-1.1858,-1.1722,-1.2289,-1.2854,-1.3423,-1.3943,-1.3868,-1.4183,-1.4732,-1.51,-1.5359,-1.59,-1.6689,-1.711,-1.7351,-1.7317,-1.7262,-0.642,-0.6403,-0.6637,-0.6619,-0.6554,-0.6631,-0.6653,-0.653,-0.6423,-0.642,-0.642,-0.642,-0.642,-0.642,-0.642,-0.642,-0.642,-0.642,-0.6319,-0.622,-0.6265,-0.6261,-0.6196,-0.6219,-0.624,-0.6177,-0.6036,-0.5828,-0.587,-0.575,-0.5385,-0.4501,-0.4186,-0.3757,-0.3263,-0.2902,-0.2803,-0.2756,-0.2723,-0.2751,-0.2802,-0.2856,-0.291,-0.2996,-0.2968,-0.3021,-0.3223,-0.3761,-0.4407,-0.5125,-0.5944,-0.6851,-0.7479,-0.7834,-0.8133,-0.8312,-0.8269,-0.8097,-0.7908,-0.7844,-0.7758,-0.768,-0.7752,-0.7828,-0.8169,-0.8926,-0.9436,-0.9177,-0.9946,-1.0598,-1.1068,-1.1354,-1.1953,-1.2552,-1.3163,-1.3403,-1.348,-1.3472,-1.3408,-1.3331,-1.3275,-1.3048,-1.2877,-1.2817,-1.2834,-1.2971,-1.2826,-1.25,-1.2201,-1.1841,-1.161,-1.1396,-1.1344,-1.137,-1.1396,-1.1378,-1.1379,-1.1616,-1.187,-1.1868,-1.2354,-1.2911,-1.3462,-1.3767,-1.3802,-1.4258,-1.4944,-1.4983,-1.4899,-1.5657,-1.6527,-1.6826,-1.7124,-1.7345,-1.7244,-0.642,-0.6436,-0.6641,-0.6607,-0.6497,-0.6661,-0.6615,-0.6497,-0.6403,-0.642,-0.642,-0.642,-0.642,-0.642,-0.642,-0.642,-0.642,-0.642,-0.6343,-0.6286,-0.6249,-0.6261,-0.6269,-0.6269,-0.6226,-0.6218,-0.5826,-0.5463,-0.5206,-0.5097,-0.4703,-0.3926,-0.3901,-0.353,-0.3134,-0.2919,-0.285,-0.2782,-0.2762,-0.2723,-0.2725,-0.2691,-0.2775,-0.2805,-0.286,-0.2886,-0.306,-0.3442,-0.3947,-0.4773,-0.5693,-0.6593,-0.7305,-0.7938,-0.8296,-0.8452,-0.8441,-0.8388,-0.8221,-0.8113,-0.7968,-0.7925,-0.7968,-0.8059,-0.8171,-0.9003,-0.9603,-0.9246,-1.0098,-1.0552,-1.0802,-1.1423,-1.196,-1.2511,-1.294,-1.3218,-1.3459,-1.3506,-1.3528,-1.3442,-1.3399,-1.3434,-1.3288,-1.3194,-1.322,-1.3339,-1.304,-1.2535,-1.2107,-1.1713,-1.1542,-1.1361,-1.1301,-1.1301,-1.1301,-1.1293,-1.1267,-1.1388,-1.1635,-1.2005,-1.2457,-1.2989,-1.3542,-1.3703,-1.3765,-1.4075,-1.4565,-1.4473,-1.4475,-1.556,-1.6456,-1.6636,-1.6869,-1.7128,-1.7132,-0.642,-0.6403,-0.6615,-0.6668,-0.6639,-0.6714,-0.6688,-0.6611,-0.6477,-0.6424,-0.642,-0.642,-0.642,-0.6428,-0.6444,-0.6444,-0.6395,-0.6424,-0.642,-0.6379,-0.6367,-0.6388,-0.6355,-0.6297,-0.6115,-0.5785,-0.547,-0.4937,-0.4375,-0.4349,-0.4117,-0.387,-0.368,-0.337,-0.3114,-0.2983,-0.2885,-0.281,-0.2762,-0.275,-0.2709,-0.2691,-0.2691,-0.2691,-0.2719,-0.2719,-0.2747,-0.2999,-0.3475,-0.4305,-0.5325,-0.628,-0.7088,-0.7933,-0.8323,-0.8495,-0.8517,-0.8479,-0.8409,-0.8382,-0.836,-0.829,-0.8269,-0.8361,-0.8408,-0.932,-0.9819,-0.9866,-1.05,-1.1204,-1.1586,-1.2055,-1.2228,-1.2663,-1.2998,-1.3226,-1.3454,-1.3583,-1.3596,-1.3506,-1.3515,-1.3574,-1.348,-1.3374,-1.3339,-1.3434,-1.3151,-1.2646,-1.2141,-1.1729,-1.1567,-1.143,-1.1327,-1.1301,-1.1301,-1.1285,-1.1268,-1.1462,-1.1742,-1.2124,-1.2545,-1.3079,-1.3594,-1.3726,-1.3791,-1.398,-1.4169,-1.4333,-1.4757,-1.5729,-1.6342,-1.6487,-1.6793,-1.7152,-1.6968,-0.642,-0.6428,-0.6497,-0.6522,-0.653,-0.6647,-0.6631,-0.6526,-0.6448,-0.642,-0.642,-0.642,-0.642,-0.6415,-0.6554,-0.6583,-0.6578,-0.6587,-0.6591,-0.6591,-0.6587,-0.6522,-0.6425,-0.6214,-0.5926,-0.5544,-0.513,-0.4663,-0.4204,-0.3867,-0.3725,-0.3584,-0.348,-0.3303,-0.3137,-0.3057,-0.2958,-0.2844,-0.2783,-0.2721,-0.2709,-0.2691,-0.2691,-0.2691,-0.2691,-0.2691,-0.2699,-0.2779,-0.3211,-0.3892,-0.4857,-0.5819,-0.6736,-0.7658,-0.828,-0.8468,-0.8501,-0.8517,-0.8517,-0.8517,-0.8463,-0.8436,-0.8458,-0.8517,-0.8576,-0.9428,-0.9794,-1.0117,-1.0726,-1.1461,-1.1654,-1.1957,-1.228,-1.2818,-1.3155,-1.3338,-1.3497,-1.3673,-1.3622,-1.3536,-1.3682,-1.381,-1.3665,-1.3463,-1.3463,-1.3446,-1.3134,-1.2757,-1.2197,-1.1762,-1.1583,-1.1379,-1.126,-1.1285,-1.1294,-1.1276,-1.1255,-1.1522,-1.181,-1.2189,-1.2581,-1.3136,-1.3566,-1.3683,-1.3821,-1.3941,-1.4121,-1.4389,-1.4941,-1.5754,-1.6158,-1.6292,-1.6685,-1.7062,-1.6909,-0.642,-0.642,-0.642,-0.642,-0.644,-0.6558,-0.6504,-0.6436,-0.6424,-0.642,-0.642,-0.642,-0.642,-0.6473,-0.6603,-0.668,-0.6692,-0.6767,-0.68,-0.6804,-0.6788,-0.6688,-0.6498,-0.6194,-0.5821,-0.5393,-0.4728,-0.4227,-0.3933,-0.3649,-0.3543,-0.3472,-0.3348,-0.3322,-0.3273,-0.3193,-0.3063,-0.2944,-0.2832,-0.2752,-0.2744,-0.2705,-0.2691,-0.2701,-0.2719,-0.2715,-0.2725,-0.2787,-0.2939,-0.3635,-0.4503,-0.5472,-0.6362,-0.7219,-0.8084,-0.8356,-0.8474,-0.8511,-0.8517,-0.8517,-0.8517,-0.849,-0.8495,-0.8517,-0.8738,-0.93,-0.9604,-0.9668,-1.0597,-1.1403,-1.142,-1.1806,-1.2391,-1.2951,-1.3211,-1.3407,-1.3612,-1.3768,-1.3648,-1.3545,-1.3682,-1.375,-1.3691,-1.3489,-1.3498,-1.3498,-1.3374,-1.2879,-1.2169,-1.1797,-1.1613,-1.136,-1.1133,-1.1201,-1.1285,-1.128,-1.1284,-1.1304,-1.1648,-1.2151,-1.2601,-1.3109,-1.3631,-1.3971,-1.4031,-1.3941,-1.4219,-1.4693,-1.5177,-1.5704,-1.5993,-1.6244,-1.6127,-1.6468,-1.6775,-0.6424,-0.642,-0.6395,-0.6432,-0.6457,-0.6395,-0.6411,-0.6473,-0.6448,-0.6444,-0.6448,-0.6436,-0.642,-0.6465,-0.6615,-0.6704,-0.6796,-0.6898,-0.6971,-0.698,-0.6841,-0.69,-0.6611,-0.6162,-0.5508,-0.5153,-0.4538,-0.3971,-0.3606,-0.3609,-0.3532,-0.3532,-0.3514,-0.3479,-0.3483,-0.3432,-0.3338,-0.3166,-0.3022,-0.2909,-0.278,-0.2742,-0.2717,-0.2705,-0.2764,-0.2766,-0.2752,-0.2805,-0.2984,-0.3461,-0.4664,-0.5536,-0.6024,-0.7511,-0.827,-0.8301,-0.8431,-0.8506,-0.8517,-0.8517,-0.8517,-0.8517,-0.8517,-0.8517,-0.8608,-0.9017,-0.948,-0.9586,-1.0363,-1.0863,-1.1243,-1.1763,-1.2461,-1.2867,-1.3114,-1.3302,-1.3506,-1.3769,-1.3627,-1.3592,-1.3562,-1.3545,-1.3545,-1.3528,-1.3545,-1.3545,-1.3489,-1.3008,-1.222,-1.1919,-1.1763,-1.1424,-1.1165,-1.1297,-1.1404,-1.1335,-1.1306,-1.1302,-1.1563,-1.2124,-1.2541,-1.2899,-1.3484,-1.4148,-1.4288,-1.4214,-1.4625,-1.5125,-1.5486,-1.5798,-1.6021,-1.6151,-1.596,-1.606,-1.6557,-0.6489,-0.6603,-0.6603,-0.6672,-0.678,-0.6647,-0.666,-0.6771,-0.6652,-0.6595,-0.657,-0.6485,-0.642,-0.6477,-0.6619,-0.6765,-0.691,-0.6935,-0.702,-0.7094,-0.6797,-0.6458,-0.6172,-0.5673,-0.5018,-0.4585,-0.4173,-0.3883,-0.3585,-0.3622,-0.3703,-0.3713,-0.3678,-0.3643,-0.3544,-0.3445,-0.3318,-0.3188,-0.3097,-0.2979,-0.2846,-0.2772,-0.2758,-0.2739,-0.2793,-0.279,-0.2791,-0.2866,-0.315,-0.3658,-0.4935,-0.5655,-0.635,-0.7813,-0.8243,-0.8366,-0.8511,-0.8511,-0.8517,-0.8517,-0.8517,-0.8517,-0.8517,-0.8517,-0.8576,-0.9022,-0.9396,-0.9779,-1.0301,-1.0902,-1.1709,-1.1934,-1.2367,-1.2569,-1.2767,-1.2928,-1.3157,-1.3457,-1.3593,-1.3658,-1.3648,-1.3785,-1.3836,-1.3708,-1.3682,-1.3656,-1.3639,-1.3021,-1.225,-1.2178,-1.2047,-1.157,-1.1317,-1.1463,-1.1529,-1.1447,-1.1406,-1.1406,-1.1727,-1.2216,-1.2573,-1.2888,-1.367,-1.4492,-1.4519,-1.4568,-1.5244,-1.5785,-1.571,-1.5887,-1.6405,-1.6659,-1.6562,-1.6675,-1.6932,-0.638,-0.649,-0.6549,-0.6706,-0.6925,-0.6859,-0.689,-0.6959,-0.6861,-0.6812,-0.6741,-0.6595,-0.6558,-0.6631,-0.6733,-0.6883,-0.7073,-0.7159,-0.72,-0.7197,-0.6708,-0.6469,-0.5999,-0.5217,-0.4828,-0.4355,-0.4016,-0.376,-0.3677,-0.3771,-0.3787,-0.3785,-0.38,-0.3736,-0.3635,-0.3552,-0.3446,-0.3356,-0.3248,-0.3095,-0.2991,-0.2917,-0.2846,-0.2863,-0.2866,-0.2879,-0.2905,-0.306,-0.3389,-0.417,-0.4992,-0.5809,-0.6827,-0.7772,-0.8303,-0.8569,-0.8635,-0.8603,-0.8544,-0.8517,-0.8517,-0.8517,-0.8517,-0.8517,-0.8544,-0.8797,-0.9318,-0.9782,-1.0321,-1.1035,-1.1728,-1.1936,-1.2318,-1.2547,-1.2814,-1.2996,-1.3082,-1.342,-1.335,-1.3428,-1.3529,-1.3746,-1.4036,-1.3964,-1.3845,-1.3802,-1.375,-1.3025,-1.2372,-1.2324,-1.2237,-1.1809,-1.1502,-1.1582,-1.1643,-1.1576,-1.1558,-1.1541,-1.192,-1.2399,-1.283,-1.3219,-1.4041,-1.4827,-1.5083,-1.5458,-1.6103,-1.6485,-1.6503,-1.6833,-1.7444,-1.748,-1.7272,-1.7263,-1.7334,-0.61,-0.6129,-0.6239,-0.6535,-0.6869,-0.6933,-0.6989,-0.7012,-0.7,-0.6988,-0.6967,-0.6771,-0.6692,-0.6894,-0.6947,-0.7037,-0.7086,-0.7246,-0.7293,-0.7103,-0.6479,-0.6357,-0.5899,-0.5146,-0.459,-0.437,-0.4112,-0.3795,-0.3795,-0.3798,-0.3802,-0.3802,-0.3802,-0.3777,-0.3736,-0.3652,-0.3593,-0.3501,-0.3356,-0.3262,-0.3173,-0.3102,-0.3028,-0.3018,-0.303,-0.3061,-0.3061,-0.3147,-0.3522,-0.4244,-0.5098,-0.5911,-0.6907,-0.8088,-0.8608,-0.89,-0.89,-0.8678,-0.8603,-0.8576,-0.8517,-0.8522,-0.8554,-0.8533,-0.8587,-0.8696,-0.9151,-0.9619,-1.0072,-1.0856,-1.1532,-1.2042,-1.255,-1.2836,-1.3196,-1.3283,-1.3288,-1.3251,-1.3075,-1.3046,-1.3085,-1.3316,-1.3739,-1.3834,-1.3831,-1.3732,-1.363,-1.3317,-1.2756,-1.2472,-1.2352,-1.2048,-1.1809,-1.1714,-1.1702,-1.1697,-1.1973,-1.202,-1.2194,-1.2607,-1.3043,-1.381,-1.4789,-1.556,-1.5854,-1.6279,-1.6735,-1.7113,-1.733,-1.7764,-1.7974,-1.7909,-1.7583,-1.7547,-1.7599,-0.603,-0.6195,-0.6309,-0.6506,-0.67,-0.6843,-0.7066,-0.7317,-0.7204,-0.7086,-0.6975,-0.68,-0.6648,-0.6587,-0.6743,-0.6918,-0.6909,-0.68,-0.6757,-0.6479,-0.5941,-0.5476,-0.501,-0.4543,-0.4155,-0.4036,-0.3919,-0.3806,-0.3806,-0.3806,-0.3808,-0.3802,-0.3802,-0.3802,-0.3791,-0.3773,-0.3687,-0.3626,-0.3485,-0.3436,-0.3354,-0.3294,-0.3206,-0.317,-0.3241,-0.3218,-0.3158,-0.3266,-0.3862,-0.5127,-0.5546,-0.642,-0.8248,-0.8668,-0.8927,-0.9044,-0.8867,-0.8624,-0.8705,-0.8608,-0.8544,-0.8603,-0.8684,-0.8754,-0.8798,-0.8869,-0.9153,-0.9607,-0.9856,-1.048,-1.1323,-1.1958,-1.2453,-1.2893,-1.3127,-1.3119,-1.3101,-1.2947,-1.2741,-1.2749,-1.2783,-1.3155,-1.3551,-1.3732,-1.3762,-1.363,-1.3501,-1.3324,-1.316,-1.2894,-1.255,-1.2274,-1.2162,-1.2113,-1.1887,-1.1813,-1.2251,-1.2562,-1.2772,-1.3235,-1.4112,-1.4944,-1.5734,-1.6327,-1.6755,-1.6985,-1.7181,-1.7484,-1.7699,-1.7817,-1.7997,-1.7957,-1.7937,-1.789,-1.7945,-0.5848,-0.5995,-0.6169,-0.6386,-0.6538,-0.6437,-0.6553,-0.6727,-0.6794,-0.654,-0.6033,-0.637,-0.6412,-0.6306,-0.662,-0.6944,-0.7151,-0.6656,-0.6489,-0.6304,-0.5246,-0.4973,-0.4506,-0.4116,-0.3919,-0.3802,-0.3812,-0.3826,-0.3837,-0.3851,-0.3853,-0.3802,-0.3802,-0.3804,-0.38,-0.3791,-0.3773,-0.3689,-0.363,-0.3565,-0.3501,-0.3438,-0.334,-0.3299,-0.3416,-0.335,-0.3297,-0.3509,-0.4414,-0.5511,-0.5769,-0.6873,-0.8523,-0.8987,-0.9141,-0.9203,-0.9023,-0.8851,-0.8868,-0.8743,-0.8721,-0.8786,-0.8904,-0.9039,-0.9077,-0.9133,-0.9495,-0.9869,-0.9876,-1.0086,-1.0945,-1.1792,-1.2309,-1.2842,-1.2868,-1.2851,-1.2747,-1.2583,-1.2521,-1.2477,-1.2687,-1.3042,-1.3334,-1.3552,-1.368,-1.359,-1.358,-1.3549,-1.3472,-1.3386,-1.3037,-1.2677,-1.2579,-1.253,-1.2304,-1.215,-1.2578,-1.3091,-1.3654,-1.424,-1.5157,-1.5891,-1.6563,-1.7178,-1.774,-1.7738,-1.7611,-1.7744,-1.7939,-1.8008,-1.8008,-1.7997,-1.8046,-1.8193,-1.8318,-0.5497,-0.5486,-0.5702,-0.5893,-0.6237,-0.5661,-0.5389,-0.5386,-0.5645,-0.541,-0.4786,-0.5573,-0.5878,-0.5734,-0.6147,-0.6657,-0.663,-0.6248,-0.595,-0.6363,-0.5087,-0.4506,-0.435,-0.4077,-0.3857,-0.3812,-0.3812,-0.3828,-0.3859,-0.3869,-0.3834,-0.3808,-0.3822,-0.3822,-0.3804,-0.3802,-0.3789,-0.3736,-0.3691,-0.3636,-0.3618,-0.3567,-0.3518,-0.3501,-0.3503,-0.3477,-0.3578,-0.3942,-0.4496,-0.5215,-0.604,-0.7078,-0.8327,-0.9264,-0.9404,-0.9357,-0.9157,-0.9082,-0.9019,-0.8933,-0.8965,-0.9028,-0.919,-0.9206,-0.9179,-0.9195,-0.9504,-0.977,-0.9794,-1.0339,-1.1166,-1.173,-1.222,-1.284,-1.317,-1.3073,-1.2888,-1.2617,-1.232,-1.2367,-1.2624,-1.2939,-1.3033,-1.326,-1.352,-1.3526,-1.374,-1.3817,-1.3939,-1.3935,-1.3631,-1.3216,-1.3275,-1.32,-1.2781,-1.2743,-1.3029,-1.3553,-1.4345,-1.5337,-1.6346,-1.6896,-1.7351,-1.7677,-1.7964,-1.8027,-1.7973,-1.8042,-1.8008,-1.8008,-1.8008,-1.8008,-1.812,-1.8339,-1.865,-0.4602,-0.4591,-0.4234,-0.4246,-0.4445,-0.4297,-0.3869,-0.329,-0.3677,-0.3983,-0.4218,-0.449,-0.475,-0.4902,-0.5255,-0.5678,-0.5782,-0.5585,-0.5176,-0.5052,-0.4426,-0.4192,-0.4075,-0.3921,-0.3835,-0.3866,-0.3857,-0.3824,-0.3816,-0.3848,-0.3859,-0.382,-0.3849,-0.387,-0.3806,-0.3806,-0.3814,-0.3802,-0.3779,-0.3714,-0.3746,-0.3703,-0.3679,-0.3648,-0.3624,-0.363,-0.3795,-0.4181,-0.4843,-0.5561,-0.6246,-0.7395,-0.8739,-0.9374,-0.9664,-0.9642,-0.9276,-0.9241,-0.9252,-0.9138,-0.9057,-0.9068,-0.9098,-0.9117,-0.9133,-0.9163,-0.9311,-0.9548,-0.9979,-1.0629,-1.1233,-1.1687,-1.2214,-1.2906,-1.3477,-1.3258,-1.3038,-1.263,-1.222,-1.2363,-1.2625,-1.2734,-1.2851,-1.3067,-1.3289,-1.3667,-1.4143,-1.4418,-1.4626,-1.4675,-1.4411,-1.4093,-1.4152,-1.3973,-1.3514,-1.3463,-1.3831,-1.4604,-1.5519,-1.6491,-1.7444,-1.7596,-1.7691,-1.7828,-1.7998,-1.8042,-1.8042,-1.8008,-1.8008,-1.8008,-1.8027,-1.8037,-1.8213,-1.8422,-1.8818,-0.4317,-0.4211,-0.3683,-0.3567,-0.3673,-0.3388,-0.2947,-0.2546,-0.2352,-0.2488,-0.3031,-0.3633,-0.3984,-0.4108,-0.4564,-0.4856,-0.5101,-0.4734,-0.4759,-0.4554,-0.4157,-0.3919,-0.3802,-0.3806,-0.382,-0.3855,-0.3836,-0.3822,-0.3826,-0.384,-0.3859,-0.3833,-0.3882,-0.3899,-0.3824,-0.3831,-0.3839,-0.3806,-0.3808,-0.381,-0.381,-0.3798,-0.3785,-0.3756,-0.3744,-0.3827,-0.423,-0.4614,-0.5257,-0.6099,-0.6886,-0.7692,-0.8678,-0.9239,-0.9527,-0.9621,-0.9459,-0.9297,-0.9441,-0.9371,-0.9171,-0.923,-0.9244,-0.9354,-0.9104,-0.9136,-0.9063,-0.9296,-0.9811,-1.0473,-1.1124,-1.1611,-1.241,-1.3158,-1.336,-1.3279,-1.3038,-1.2728,-1.2461,-1.247,-1.2672,-1.2767,-1.2979,-1.3473,-1.3682,-1.3755,-1.4261,-1.5142,-1.5341,-1.5514,-1.521,-1.5012,-1.509,-1.487,-1.4423,-1.4458,-1.4745,-1.5632,-1.661,-1.7227,-1.7873,-1.7899,-1.8008,-1.8008,-1.8008,-1.8008,-1.8008,-1.8037,-1.8018,-1.8008,-1.8037,-1.8066,-1.8311,-1.8594,-1.8926,-0.3928,-0.3818,-0.3287,-0.3205,-0.3268,-0.2645,-0.2303,-0.2231,-0.1649,-0.1414,-0.1723,-0.3164,-0.3248,-0.3571,-0.409,-0.4553,-0.4668,-0.4183,-0.4265,-0.4331,-0.4058,-0.3857,-0.3816,-0.382,-0.3833,-0.3826,-0.3867,-0.3861,-0.3808,-0.384,-0.3865,-0.3843,-0.3826,-0.3867,-0.382,-0.3834,-0.3859,-0.3855,-0.3841,-0.3841,-0.3833,-0.3824,-0.3824,-0.3822,-0.3929,-0.416,-0.464,-0.5275,-0.5839,-0.6498,-0.7316,-0.8009,-0.8576,-0.903,-0.9288,-0.9416,-0.9486,-0.9448,-0.9565,-0.9506,-0.95,-0.9565,-0.9592,-0.9457,-0.9179,-0.9142,-0.9062,-0.9372,-0.9885,-1.0506,-1.1155,-1.1879,-1.2714,-1.3223,-1.3266,-1.3272,-1.3031,-1.2797,-1.2695,-1.2605,-1.2744,-1.2874,-1.3337,-1.3821,-1.4092,-1.4127,-1.4683,-1.5491,-1.6156,-1.6323,-1.6278,-1.6132,-1.6074,-1.5791,-1.5447,-1.5483,-1.5735,-1.6532,-1.7437,-1.7911,-1.8194,-1.8093,-1.8042,-1.8008,-1.8008,-1.8018,-1.8076,-1.8125,-1.8086,-1.8105,-1.8389,-1.8555,-1.8672,-1.8936,-1.9102,-0.2208,-0.1702,-0.1572,-0.1623,-0.1693,-0.1551,-0.1497,-0.1528,-0.1414,-0.1452,-0.1803,-0.1999,-0.2311,-0.2545,-0.2295,-0.2875,-0.4046,-0.3677,-0.3695,-0.3832,-0.3905,-0.3851,-0.3853,-0.3852,-0.3861,-0.3852,-0.3899,-0.3895,-0.3874,-0.3867,-0.3861,-0.3835,-0.3948,-0.3936,-0.3808,-0.3848,-0.3912,-0.3879,-0.3921,-0.3934,-0.4016,-0.396,-0.3919,-0.4034,-0.4348,-0.4574,-0.5015,-0.5837,-0.6265,-0.6835,-0.746,-0.8016,-0.8479,-0.8889,-0.9163,-0.9374,-0.9404,-0.9523,-0.9556,-0.9507,-0.9523,-0.9592,-0.9527,-0.9276,-0.926,-0.9485,-0.953,-0.9801,-1.0353,-1.1015,-1.1673,-1.2382,-1.3113,-1.323,-1.3338,-1.3192,-1.3001,-1.2853,-1.2754,-1.284,-1.2994,-1.3321,-1.3822,-1.4276,-1.4684,-1.501,-1.579,-1.6522,-1.6819,-1.7068,-1.7286,-1.7177,-1.7048,-1.6968,-1.6751,-1.6577,-1.6845,-1.759,-1.8043,-1.814,-1.8178,-1.8133,-1.8086,-1.8008,-1.8018,-1.8027,-1.8105,-1.8188,-1.8315,-1.8437,-1.8877,-1.9131,-1.918,-1.9248,-1.9385]},{"header":{"parameterUnit":"m.s-1","parameterCategory":1,"la1":31.0,"la2":29.5877,"lo1":-88.7671,"lo2":-86.6584,"dy":0.0162,"dx":0.0185,"nx":115,"ny":88,"refTime":"2023-11-07T18:00:00:Z","depth":0,"parameterNumber":3,"parameterNumberName":"V-component_of_WINDS"},"data":[0.0,0.0,0.0,0.0,0.0,0.0,0.0,0.0,0.0,0.0,0.0,0.0,0.0,0.0,0.0,0.0,0.0,0.0,0.0,0.0,0.0,0.0,0.0,0.0,0.0,0.0,0.0,0.0,0.0,0.0,0.0,0.0,0.0,0.0,0.0,0.0,0.0,0.0,0.0,0.0,0.0,0.0,0.0,0.0,0.0,0.0,0.0,0.0,0.0,0.0,0.0,0.0,0.0,0.0,0.0,0.0,0.0,0.0,0.0,0.0,0.0,0.0,0.0,0.0,0.0,0.0,0.0,0.0,0.0,0.0,0.0,0.0,0.0,0.0,0.0,0.0,0.0,0.0,0.0,0.0,0.0,0.0,0.0,0.0,0.0,0.0,0.0,0.0,0.0,0.0,0.0,0.0,0.0,0.0,0.0,0.0,0.0,0.0,0.0,0.0,0.0,0.0,0.0,0.0,0.0,0.0,0.0,0.0,0.0,0.0,0.0,0.0,0.0,0.0,0.0,0.0,0.0,0.0,0.0,0.0,0.0,0.0,0.0,0.0,0.0,0.0,0.0,0.0,0.0,0.0,0.0,0.0,0.0,0.0,0.0,0.0,0.0,0.0,0.0,0.0,0.0,0.0,0.0,0.0,0.0,0.0,0.0,0.0,0.0,0.0,0.0,0.0,0.0,0.0,0.0,0.0,0.0,0.0,0.0,0.0,0.0,0.0,0.0,0.0,0.0,0.0,0.0,0.0,0.0,0.0,0.0,0.0,0.0,0.0,0.0,0.0,0.0,0.0,0.0,0.0,0.0,0.0,0.0,0.0,0.0,0.0,0.0,0.0,0.0,0.0,0.0,0.0,0.0,0.0,0.0,0.0,0.0,0.0,0.0,0.0,0.0,0.0,0.0,0.0,0.0,0.0,0.0,0.0,0.0,0.0,0.0,0.0,0.0,0.0,0.0,0.0,0.0,0.0,0.0,0.0,0.0,0.0,0.0,0.0,0.0,0.0,0.0,0.0,0.0,0.0,0.0,0.0,0.0,0.0,0.0,0.0,0.0,0.0,0.0,0.0,0.0,0.0,0.0,0.0,0.0,0.0,0.0,0.0,0.0,0.0,0.0,0.0,0.0,0.0,0.0,0.0,0.0,0.0,0.0,0.0,0.0,0.0,0.0,0.0,0.0,0.0,0.0,0.0,0.0,0.0,0.0,0.0,0.0,0.0,0.0,0.0,0.0,0.0,0.0,0.0,0.0,0.0,0.0,0.0,0.0,0.0,0.0,0.0,0.0,0.0,0.0,0.0,0.0,0.0,0.0,0.0,0.0,0.0,0.0,0.0,0.0,0.0,0.0,0.0,0.0,0.0,0.0,0.0,0.0,0.0,0.0,0.0,0.0,0.0,0.0,0.0,0.0,0.0,0.0,0.0,0.0,0.0,0.0,0.0,0.0,0.0,0.0,0.0,0.0,0.0,0.0,0.0,0.0,0.0,0.0,0.0,0.0,0.0,0.0,0.0,0.0,0.0,0.0,0.0,0.0,0.0,0.0,0.0,0.0,0.0,0.0,0.0,0.0,0.0,0.0,0.0,0.0,0.0,0.0,0.0,0.0,0.0,0.0,0.0,0.0,0.0,0.0,0.0,0.0,0.0,0.0,0.0,0.0,0.0,0.0,0.0,0.0,0.0,0.0,0.0,0.0,0.0,0.0,0.0,0.0,0.0,0.0,0.0,0.0,0.0,0.0,0.0,0.0,0.0,0.0,0.0,0.0,0.0,0.0,0.0,0.0,0.0,0.0,0.0,0.0,0.0,0.0,0.0,0.0,0.0,0.0,0.0,0.0,0.0,0.0,0.0,0.0,0.0,0.0,0.0,0.0,0.0,0.0,0.0,0.0,0.0,0.0,0.0,0.0,0.0,0.0,0.0,0.0,0.0,0.0,0.0,0.0,0.0,0.0,0.0,0.0,0.0,0.0,0.0,0.0,0.0,0.0,0.0,0.0,0.0,0.0,0.0,0.0,0.0,0.0,0.0,0.0,0.0,0.0,0.0,0.0,0.0,0.0,0.0,0.0,0.0,0.0,0.0,0.0,0.0,0.0,0.0,0.0,0.0,0.0,0.0,0.0,0.0,0.0,0.0,0.0,0.0,0.0,0.0,0.0,0.0,0.0,0.0,0.0,0.0,0.0,0.0,0.0,0.0,0.0,0.0,0.0,0.0,0.0,0.0,0.0,0.0,0.0,0.0,0.0,0.0,0.0,0.0,0.0,0.0,0.0,0.0,0.0,0.0,0.0,0.0,0.0,0.0,0.0,0.0,0.0,0.0,0.0,0.0,0.0,0.0,0.0,0.0,0.0,0.0,0.0,0.0,0.0,0.0,0.0,0.0,0.0,0.0,0.0,0.0,0.0,0.0,0.0,0.0,0.0,0.0,0.0,0.0,0.0,0.0,0.0,0.0,0.0,0.0,0.0,0.0,0.0,0.0,0.0,0.0,0.0,0.0,0.0,0.0,0.0,0.0,0.0,0.0,0.0,0.0,0.0,0.0,0.0,0.0,0.0,0.0,0.0,0.0,0.0,0.0,0.0,0.0,0.0,0.0,0.0,0.0,0.0,0.0,0.0,0.0,0.0,0.0,0.0,0.0,0.0,0.0,0.0,0.0,0.0,0.0,0.0,0.0,0.0,0.0,0.0,0.0,0.0,0.0,0.0,0.0,0.0,0.0,0.0,0.0,0.0,0.0,0.0,0.0,0.0,0.0,0.0,0.0,0.0,0.0,0.0,0.0,0.0,0.0,0.0,0.0,0.0,0.0,0.0,0.0,0.0,0.0,0.0,0.0,0.0,0.0,0.0,0.0,0.0,0.0,0.0,0.0,0.0,0.0,0.0,0.0,0.0,0.0,0.0,0.0,0.0,0.0,0.0,0.0,0.0,0.0,0.0,0.0,0.0,0.0,0.0,0.0,0.0,0.0,0.0,0.0,0.0,0.0,0.0,0.0,0.0,0.0,0.0,0.0,0.0,0.0,0.0,0.0,0.0,0.0,0.0,0.0,0.0,0.0,0.0,0.0,0.0,0.0,0.0,0.0,0.0,0.0,0.0,0.0,0.0,0.0,0.0,0.0,0.0,0.0,0.0,0.0,0.0,0.0,0.0,0.0,0.0,0.0,0.0,0.0,0.0,0.0,0.0,0.0,0.0,0.0,0.0,0.0,0.0,0.0,0.0,0.0,0.0,0.0,0.0,0.0,0.0,0.0,0.0,0.0,0.0,0.0,0.0,0.0,0.0,0.0,0.0,0.0,0.0,0.0,0.0,0.0,0.0,0.0,0.0,0.0,0.0,0.0,0.0,0.0,0.0,0.0,0.0,0.0,0.0,0.0,0.0,0.0,0.0,0.0,0.0,0.0,0.0,0.0,0.0,0.0,0.0,0.0,0.0,0.0,0.0,0.0,0.0,0.0,0.0,0.0,0.0,0.0,0.0,0.0,0.0,0.0,0.0,0.0,0.0,0.0,0.0,0.0,0.0,0.0,0.0,0.0,0.0,0.0,0.0,0.0,0.0,0.0,0.0,0.0,0.0,0.0,0.0,0.0,0.0,0.0,0.0,0.0,0.0,0.0,0.0,0.0,0.0,0.0,0.0,0.0,0.0,0.0,0.0,0.0,0.0,0.0,0.0,0.0,0.0,0.0,0.0,0.0,0.0,0.0,0.0,0.0,0.0,0.0,0.0,0.0,0.0,0.0,0.0,0.0,0.0,0.0,0.0,0.0,0.0,0.0,0.0,0.0,0.0,0.0,0.0,0.0,0.0,0.0,0.0,0.0,0.0,0.0,0.0,0.0,0.0,0.0,0.0,0.0,0.0,0.0,0.0,0.0,0.0,0.0,0.0,0.0,0.0,0.0,0.0,0.0,0.0,0.0,0.0,0.0,0.0,0.0,0.0,0.0,0.0,0.0,0.0,0.0,0.0,0.0,0.0,0.0,0.0,0.0,0.0,0.0,0.0,0.0,0.0,0.0,0.0,0.0,0.0,0.0,0.0,0.0,0.0,0.0,0.0,0.0,0.0,0.0,0.0,0.0,0.0,0.0,0.0,0.0,0.0,0.0,0.0,0.0,0.0,0.0,0.0,0.0,0.0,0.0,0.0,0.0,0.0,0.0,0.0,0.0,0.0,0.0,0.0,0.0,0.0,0.0,0.0,0.0,0.0,0.0,0.0,0.0,0.0,0.0,0.0,0.0,0.0,0.0,0.0,0.0,0.0,0.0,0.0,0.0,0.0,0.0,0.0,0.0,-0.3332,0.0,0.0,0.0,0.0,0.0,0.0,0.0,0.0,0.0,0.0,0.0,0.0,0.0,0.0,0.0,0.0,0.0,0.0,0.0,0.0,0.0,0.0,0.0,0.0,0.0,0.0,0.0,0.0,0.0,0.0,0.0,0.0,0.0,0.0,0.0,0.0,0.0,0.0,0.0,0.0,0.0,0.0,0.0,0.0,0.0,0.0,0.0,0.0,0.0,0.0,0.0,0.0,0.0,0.0,0.0,0.0,0.0,0.0,0.0,0.0,0.0,0.0,0.0,0.0,0.0,0.0,0.0,0.0,0.0,0.0,0.0,0.0,0.0,0.0,0.0,0.0,0.0,0.0,0.0,0.0,0.0,0.0,0.0,0.0,0.0,0.0,0.0,0.0,0.0,0.0,0.0,0.0,0.0,0.0,0.0,0.0,0.0,0.0,0.0,0.0,0.0,0.0,0.0,0.0,0.0,0.0,0.0,0.0,0.0,0.0,-0.2313,-0.2119,-0.3013,-0.3441,-0.322,0.0,0.0,0.0,0.0,0.0,0.0,0.0,0.0,0.0,0.0,0.0,0.0,0.0,0.0,0.0,0.0,0.0,0.0,0.0,0.0,0.0,0.0,0.0,0.0,0.0,0.0,0.0,0.0,0.0,0.0,0.0,0.0,0.0,0.0,0.0,0.0,0.0,0.0,0.0,0.0,0.0,0.0,0.0,0.0,0.0,0.0,0.0,0.0,0.0,0.0,0.0,0.0,0.0,0.0,0.0,0.0,0.0,0.0,0.0,0.0,0.0,0.0,0.0,0.0,0.0,0.0,0.0,0.0,0.0,0.0,0.0,0.0,0.0,0.0,0.0,0.0,0.0,0.0,0.0,0.0,0.0,0.0,0.0,0.0,0.0,0.0,0.0,0.0,0.0,0.0,0.0,0.0,0.0,0.0,0.0,0.0,0.0,0.0,0.0,0.0,0.0,0.0,0.0,0.0,0.0,0.0,0.0,0.0,0.0,0.0,0.0,0.0,-0.2636,-0.3187,-0.3183,0.0,0.0,0.0,0.0,0.0,0.0,0.0,0.0,0.0,0.0,0.0,0.0,0.0,0.0,0.0,0.0,0.0,0.0,0.0,0.0,0.0,0.0,0.0,0.0,0.0,0.0,0.0,0.0,0.0,0.0,0.0,0.0,0.0,0.0,0.0,0.0,0.0,0.0,0.0,0.0,0.0,0.0,0.0,0.0,0.0,0.0,0.0,0.0,0.0,0.0,0.0,0.0,0.0,0.0,0.0,0.0,0.0,0.0,0.0,0.0,0.0,0.0,0.0,0.0,0.0,0.0,0.0,0.0,0.0,0.0,0.0,0.0,0.0,0.0,0.0,0.0,0.0,0.0,0.0,0.0,0.0,0.0,0.0,0.0,0.0,0.0,0.0,0.0,0.0,0.0,0.0,0.0,0.0,0.0,0.0,0.0,0.0,0.0,0.0,0.0,0.0,0.0,0.0,0.0,0.0,0.0,0.0,0.0,0.0,0.0,-0.021,-0.0187,-0.0941,0.0,-0.2952,0.0,0.0,0.0,0.0,0.0,0.0,0.0,0.0,0.0,0.0,0.0,0.0,0.0,0.0,0.0,0.0,0.0,0.0,0.0,0.0,0.0,0.0,0.0,0.0,0.0,0.0,0.0,0.0,0.0,0.0,0.0,0.0,0.0,0.0,0.0,0.0,0.0,0.0,0.0,0.0,0.0,0.0,0.0,0.0,0.0,0.0,0.0,0.0,0.0,0.0,0.0,0.0,0.0,0.0,0.0,0.0,0.0,0.0,0.0,0.0,0.0,0.0,0.0,0.0,0.0,0.0,0.0,0.0,0.0,0.0,0.0,0.0,0.0,0.0,0.0,0.0,0.0,0.0,0.0,0.0,0.0,0.0,0.0,0.0,0.0,0.0,0.0,0.0,0.0,0.0,0.0,0.0,0.0,0.0,0.0,0.0,0.0,0.0,0.0,0.0,0.0,0.0,0.0,0.0,0.0,0.0,0.0,0.0,0.0,0.0,0.0,0.0,-0.1096,-0.2149,0.0,0.0,0.0,0.0,0.0,0.0,0.0,0.0,0.0,0.0,0.0,0.0,0.0,0.0,0.0,0.0,0.0,0.0,0.0,0.0,0.0,0.0,0.0,0.0,0.0,0.0,0.0,0.0,0.0,0.0,0.0,0.0,0.0,0.0,0.0,0.0,0.0,0.0,0.0,0.0,0.0,0.0,0.0,0.0,0.0,0.0,0.0,0.0,0.0,0.0,0.0,0.0,0.0,0.0,0.0,0.0,0.0,0.0,0.0,0.0,0.0,0.0,0.0,0.0,0.0,0.0,0.0,0.0,0.0,0.0,0.0,0.0,0.0,0.0,0.0,0.0,0.0,0.0,0.0,0.0,0.0,0.0,0.0,0.0,0.0,0.0,0.0,0.0,0.0,0.0,0.0,0.0,0.0,0.0,0.0,0.0,0.0,0.0,0.0,0.0,0.0,0.0,0.0,0.0,0.0,0.0,0.0,0.0,0.0,0.0,0.0,0.0,0.0,-0.1442,-0.2432,-0.2894,0.0,0.0,0.0,0.0,0.0,0.0,0.0,0.0,0.0,0.0,0.0,0.0,0.0,0.0,0.0,0.0,0.0,0.0,0.0,0.0,0.0,0.0,0.0,0.0,0.0,0.0,0.0,0.0,0.0,0.0,0.0,0.0,0.0,0.0,0.0,0.0,0.0,0.0,0.0,0.0,0.0,0.0,0.0,0.0,0.0,0.0,0.0,0.0,0.0,0.0,0.0,0.0,0.0,0.0,0.0,0.0,0.0,0.0,0.0,0.0,0.0,0.0,0.0,0.0,0.0,0.0,0.0,0.0,0.0,0.0,0.0,0.0,0.0,0.0,0.0,0.0,0.0,0.0,0.0,0.0,0.0,0.0,0.0,0.0,0.0,0.0,0.0,0.0,0.0,0.0,0.0,0.0,0.0,0.0,0.0,0.0,0.0,0.0,0.0,0.0,0.0,0.0,0.0,0.0,0.0,0.0,0.0,0.0,0.0,0.0,0.0,0.0,-0.161,-0.2394,0.0,0.0,0.0,0.0,0.0,0.0,0.0,0.0,0.0,0.0,0.0,0.0,0.0,0.0,0.0,0.0,0.0,0.0,0.0,0.0,0.0,0.0,0.0,0.0,0.0,0.0,0.0,0.0,0.0,0.0,0.0,0.0,0.0,0.0,0.0,0.0,0.0,0.0,0.0,0.0,0.0,0.0,0.0,0.0,0.0,0.0,0.0,0.0,0.0,0.0,0.0,0.0,0.0,0.0,0.0,0.0,0.0,0.0,0.0,0.0,0.0,0.0,0.0,0.0,0.0,0.0,0.0,0.0,0.0,0.0,0.0,0.0,0.0,0.0,0.0,0.0,0.0,0.0,0.0,0.0,0.0,0.0,0.0,0.0,0.0,0.0,0.0,0.0,0.0,0.0,0.0,0.0,0.0,0.0,0.0,0.0,0.0,0.0,0.0,0.0,0.0,0.0,0.0,0.0,0.0,0.0,0.0,0.0,0.0,0.0,0.0,0.0,0.0,-0.1035,-0.1761,0.0,0.0,0.0,0.0,0.0,0.0,0.0,0.0,0.0,0.0,0.0,0.0,0.0,0.0,0.0,0.0,0.0,0.0,0.0,0.0,0.0,0.0,0.0,0.0,0.0,0.0,0.0,0.0,0.0,0.0,0.0,0.0,0.0,0.0,0.0,0.0,0.0,0.0,0.0,0.0,0.0,0.0,0.0,0.0,0.0,0.0,0.0,0.0,0.0,0.0,0.0,0.0,0.0,0.0,0.0,0.0,0.0,0.0,0.0,0.0,0.0,0.0,0.0,0.0,0.0,0.0,0.0,0.0,0.0,0.0,0.0,0.0,0.0,0.0,0.0,0.0,0.0,0.0,0.0,0.0,0.0,0.0,0.0,0.0,0.0,0.0,0.0,0.0,0.0,0.0,0.0,0.0,0.0,0.0,0.0,0.0,0.0,0.0,0.0,0.0,0.0,0.0,0.0,0.0,0.0,0.0,0.0,0.0,0.0,0.0431,0.0,0.0436,0.0436,-0.0616,-0.1458,0.0,0.0,0.0,0.0,0.0,0.0,0.0,0.0,0.0,0.0,0.0,0.0,0.0,0.0,0.0,0.0,0.0,0.0,0.0,0.0,0.0,0.0,0.0,0.0,0.0,0.0,0.0,0.0,0.0,0.0,0.0,0.0,0.0,0.0,0.0,0.0,0.0,0.0,0.0,0.0,0.0,0.0,0.0,0.0,0.0,0.0,0.0,0.0,0.0,0.0,0.0,0.0,0.0,0.0,0.0,0.0,0.0,0.0,0.0,0.0,0.0,0.0,0.0,0.0,0.0,0.0,0.0,0.0,0.0,0.0,0.0,0.0,0.0,0.0,0.0,0.0,0.0,0.0,0.0,0.0,0.0,0.0,0.0,0.0,0.0,0.0,0.0,0.0,0.0,0.0,0.0,0.0,0.0,0.0,0.0,0.0,0.0,0.0,0.0,0.0,0.0,0.0,0.0,0.0,0.0,0.0,0.0,0.0,0.0466,0.1329,0.1348,0.1305,0.134,-0.0348,-0.1531,0.0,0.0,0.0,0.0,0.0,0.0,0.0,0.0,0.0,0.0,0.0,0.0,0.0,0.0,0.0,0.0,0.0,0.0,0.0,0.0,0.0,0.0,0.0,0.0,0.0,0.0,0.0,0.0,0.0,0.0,0.0,0.0,0.0,0.0,0.0,0.0,0.0,0.0,0.0,0.0,0.0,0.0,0.0,0.0,0.0,0.0,0.0,0.0,0.0,0.0,0.0,0.0,0.0,0.0,0.0,0.0,0.0,0.0,0.0,0.0,0.0,0.0,0.0,0.0,0.0,0.0,0.0,0.0,0.0,0.0,0.0,0.0,0.0,0.0,0.0,0.0,0.0,0.0,0.0,0.0,0.0,0.0,0.0,0.0,0.0,0.0,0.0,0.0,0.0,0.0,0.0,0.0,0.0,0.0,0.0,0.0,0.0,0.0,0.0,0.0,0.0,0.0,0.0,0.0,0.0,0.0,0.0,0.0,0.0,0.0478,0.1024,0.1059,0.0445,-0.0115,-0.0963,0.0,0.0,0.0,0.0,0.0,0.0,0.0,0.0,0.0,0.0,0.0,0.0,0.0,0.0,0.0,0.0,0.0,0.0,0.0,0.0,0.0,0.0,0.0,0.0,0.0,0.0,0.0,0.0,0.0,0.0,0.0,0.0,0.0,0.0,0.0,0.0,0.0,0.0,0.0,0.0,0.0,0.0,0.0,0.0,0.0,0.0,0.0,0.0,0.0,0.0,0.0,0.0,0.0,0.0,0.0,0.0,0.0,0.0,0.0,0.0,0.0,0.0,0.0,0.0,0.0,0.0,0.0,0.0,0.0,0.0,0.0,0.0,0.0,0.0,0.0,0.0,0.0,0.0,0.0,0.0,0.0,0.0,0.0,0.0,0.0,0.0,0.0,0.0,0.0,0.0,0.0,0.0,0.0,0.0,0.0,0.0,0.0,0.0,0.0,0.0,0.0,0.0,0.0,0.0,0.0,0.0,0.0,0.0,0.0,0.1264,0.1618,0.1604,0.1096,0.0386,-0.0675,-0.2027,0.0,0.0,0.0,0.0,0.0,0.0,0.0,0.0,0.0,0.0,0.0,0.0,0.0,0.0,0.0,0.0,0.0,0.0,0.0,0.0,0.0,0.0,0.0,0.0,0.0,0.0,0.0,0.0,0.0,0.0,0.0,0.0,0.0,0.0,0.0,0.0,0.0,0.0,0.0,0.0,0.0,0.0,0.0,0.0,0.0,0.0,0.0,0.0,0.0,0.0,0.0,0.0,0.0,0.0,0.0,0.0,0.0,0.0,0.0,0.0,0.0,0.0,0.0,0.0,0.0,0.0,0.0,0.0,0.0,0.0,0.0,0.0,0.0,0.0,0.0,0.0,0.0,0.0,0.0,0.0,0.0,0.0,0.0,0.0,0.0,0.0,0.0,0.0,0.0,0.0,0.0,0.0,0.0,0.0,0.0,0.0,0.0,0.0,0.0,0.0,0.0,0.0,0.0,0.0,0.0,0.0,0.0,0.0,0.3249,0.2992,0.2854,0.2765,0.1031,-0.0607,0.0,0.0,0.0,0.0,0.0,0.0,0.0,0.0,0.0,0.0,0.0,0.0,0.0,0.0,0.0,0.0,0.0,0.0,0.0,0.0,0.0,0.0,0.0,0.0,0.0,0.0,0.0,0.0,0.0,0.0,0.0,0.0,0.0,0.0,0.0,0.0,0.0,0.0,0.0,0.0,0.0,0.0,0.0,0.0,0.0,0.0,0.0,0.0,0.0,0.0,0.0,0.0,0.0,0.0,0.0,0.0,0.0,0.0,0.0,0.0,0.0,0.0,0.0,0.0,0.0,0.0,0.0,0.0,0.0,0.0,0.0,0.0,0.0,0.0,0.0,0.0,0.0,0.0,0.0,0.0,0.0,0.0,0.0,0.0,0.0,0.0,0.0,0.0,0.0,0.0,0.0,0.0,0.0,0.0,0.0,0.0,0.0,0.0,0.0,0.0,0.0,0.0,0.0,0.0,0.0,0.0,0.0,0.0,0.0,0.4909,0.4226,0.3231,0.1989,0.1298,0.0,0.0,0.0,0.0,0.0,0.0,0.0,0.0,0.0,0.0,0.0,0.0,0.0,0.0,0.0,0.0,0.0,0.0,0.0,0.0,0.0,0.0,0.0,0.0,0.0,0.0,0.0,0.0,0.0,0.0,0.0,0.0,0.0,0.0,0.0,0.0,0.0,0.0,0.0,0.0,0.0,0.0,0.0,0.0,0.0,0.0,0.0,0.0,0.0,0.0,0.0,0.0,0.0,0.0,0.0,0.0,0.0,0.0,0.0,0.0,0.0,0.0,0.0,0.0,0.0,0.0,0.0,0.0,0.0,0.0,0.0,0.0,0.0,0.0,0.0,0.0,0.0,0.0,0.0,0.0,0.0,0.0,0.0,0.0,0.0,0.0,0.0,0.0,0.0,0.0,0.0,0.0,0.0,0.0,0.0,0.0,0.0,0.0,0.0,0.0,0.0,0.0,0.0,0.0,0.0,0.0,0.0,0.0,0.0,0.5158,0.5736,0.4784,0.362,0.227,0.1615,0.0229,0.0,0.0,0.0,0.0,0.0,0.0,0.0,0.0,0.0,0.0,0.0,0.0,0.0,0.0,0.0,0.0,0.0,0.0,0.0,0.0,0.0,0.0,0.0,0.0,0.0,0.0,0.0,0.0,0.0,0.0,0.0,0.0,0.0,0.0,0.0,0.0,0.0,0.0,0.0,0.0,0.0,0.0,0.0,0.0,0.0,0.0,0.0,0.0,0.0,0.0,0.0,0.0,0.0,0.0,0.0,0.0,0.0,0.0,0.0,0.0,0.0,0.0,0.0,0.0,0.0,0.0,0.0,0.0,0.0,0.0,0.0,0.0,0.0,0.0,0.0,0.0,0.0,0.0,0.0,0.0,0.0,0.0,0.0,0.0,0.0,0.0,0.0,0.0,0.0,0.0,0.0,0.0,0.0,0.0,0.0,0.0,0.0,0.0,0.0,0.0,0.0,0.0,0.0,0.0,0.0,0.0,0.0,0.0,0.5848,0.599,0.4964,0.3973,0.3139,0.1934,0.0229,0.0,0.0,0.0,0.0,0.0,0.0,0.0,0.0,0.0,0.0,0.0,0.0,0.0,0.0,0.0,0.0,0.0,0.0,0.0,0.0,0.0,0.0,0.0,0.0,0.0,0.0,0.0,0.0,0.0,0.0,0.0,0.0,0.0,0.0,0.0,0.0,0.0,0.0,0.0,0.0,0.0,0.0,0.0,0.0,0.0,0.0,0.0,0.0,0.0,0.0,0.0,0.0,0.0,0.0,0.0,0.0,0.0,0.0,0.0,0.0,0.0,0.0,0.0,0.0,0.0,0.0,0.0,0.0,0.0,0.0,0.0,0.0,0.0,0.0,0.0,0.0,0.0,0.0,0.0,0.0,0.0,0.0,0.0,0.0,0.0,0.0,0.0,0.0,0.0,0.0,0.0,0.0,0.0,0.0,0.0,0.0,0.0,0.0,0.0,0.0,0.0,0.0,0.0,0.0,0.0,0.0,0.0,0.0,0.576,0.5986,0.5003,0.4036,0.3105,0.1925,0.0227,0.0,0.0,0.0,0.0,0.0,0.0,0.0,0.0,0.0,0.0,0.0,0.0,0.0,0.0,0.0,0.0,0.0,0.0,0.0,0.0,0.0,0.0,0.0,0.0,0.0,0.0,0.0,0.0,0.0,0.0,0.0,0.0,0.0,0.0,0.0,0.0,0.0,0.0,0.0,0.0,0.0,0.0,0.0,0.0,0.0,0.0,0.0,0.0,-0.0804,0.0,0.0,0.0,0.0,0.0,0.0,0.0,0.0,0.0,0.0,0.0,0.0,0.0,0.0,0.0,0.0,0.0,0.0,0.0,0.0,0.0,0.0,0.0,0.0,0.0,0.0,0.0,0.0,0.0,0.0,0.0,0.0,0.0,0.0,0.0,0.0,0.0,0.0,0.0,0.0,0.0,0.0,0.0,0.0,0.0,0.0,0.0,0.0,0.0,0.0,0.0,0.0,0.0,0.0,0.0,0.0,0.0,0.0,0.0,0.5735,0.5784,0.4546,0.3604,0.2994,0.1576,-0.0076,0.0,0.0,0.0,0.0,0.0,0.0,0.0,0.0,0.0,0.0,0.0,0.0,0.0,0.0,0.0,0.0,0.0,0.0,0.0,0.0,0.0,0.0,0.0,0.0,0.0,0.0,0.0,0.0,0.0,0.0,0.0,0.0,0.0,0.0,0.0,0.0,0.0,0.0,0.0,0.0,0.0,0.0,0.0,0.0,0.0,0.0,0.0,0.0,0.0,0.0,0.0,0.0,0.0,0.0,0.0,0.0,0.0,0.0,0.0,0.0,0.0,0.0,0.0,0.0,0.0,0.0,0.0,0.0,0.0,0.0,0.0,0.0,0.0,0.0,0.0,0.0,0.0,0.0,0.0,0.0,0.0,0.0,0.0,0.0,0.0,0.0,0.0,0.0,0.0,0.0,0.0,0.0,0.0,0.0,0.0,0.0,0.0,0.0,0.0,0.0,0.0,0.0,0.0,0.0,0.0,0.0,0.0,0.5745,0.5688,0.5534,0.4048,0.314,0.2926,0.127,-0.0419,-0.1993,0.0,0.0,0.0,0.0,0.0,0.0,0.0,0.0,0.0,0.0,0.0,0.0,0.0,0.0,0.0,0.0,0.0,0.0,0.0,0.0,0.0,0.0,0.0,0.0,0.0,0.0,0.0,0.0,0.0,0.0,0.0,0.0,0.0,0.0,0.0,0.0,0.0,0.0,0.1471,0.2553,0.0,0.0,0.0,0.0,0.0,0.0,0.0,0.0,0.172,0.0,0.0,0.0,0.0,0.0,0.0,0.0,0.0,0.0,0.0,0.0,0.0,0.0,0.0,0.0,0.0,0.0,0.0,0.0,0.0,0.0,0.0,0.0,0.0,0.0,0.0,0.0,0.0,0.0,0.0,0.0,0.0,0.0,0.0,0.0,0.0,0.0,0.0,0.0,0.0,0.0,0.0,0.0,0.0,0.0,0.0,0.0,0.0,0.0,0.0,0.0,0.0,0.0,0.0,0.0,0.0,0.562,0.5532,0.5515,0.5551,0.4084,0.3254,0.3105,0.1464,-0.0223,-0.1803,0.0,0.0,0.0,0.0,0.0,0.0,0.0,0.0,0.0,0.0,0.0,0.0,0.0,0.0,0.0,0.0,0.0,0.0,0.0,0.0,0.0,0.0,0.0,0.0,0.0,0.0,0.0,0.0,0.0,0.0,0.0,0.0,0.0,0.0,0.0,0.0,0.0,0.0,0.0,0.3897,0.4665,0.0,0.0,0.0,0.0,0.0,0.0,0.0,0.0,0.2744,0.0,0.0,0.0,0.0,0.0,0.0,0.0,0.0,0.0,0.0,0.0,0.0,0.0,0.0,0.0,0.0,0.0,0.0,0.0,0.0,0.0,0.0,0.0,0.0,0.0,0.0,0.0,0.0,0.0,0.0,0.0,0.0,0.0,0.0,0.0,0.0,0.0,0.0,0.0,0.0,0.0,0.0,0.0,0.0,0.0,0.0,0.0,0.0,0.0,0.0,0.0,0.0,0.0,0.0,0.0,0.546,0.5433,0.5433,0.5471,0.4055,0.3219,0.3083,0.1583,-0.0073,0.0,0.0,0.0,0.0,0.0,0.0,0.0,0.0,0.0,0.0,0.0,0.0,0.0,0.0,0.0,0.0,0.0,0.0,0.0,0.0,0.0,0.0,0.0,0.0,0.0,0.0,0.0,0.0,0.0,0.0,0.0,0.0,0.0,0.0,0.0,0.0,0.0,0.0,0.0,0.0,0.5498,0.6042,0.6178,0.0,0.0,0.0,0.0,0.0,0.0,0.3532,0.3174,0.0,0.0,0.0,0.0,0.0,0.0,0.0,0.0,0.0,0.0,0.0,0.0,0.0,0.0,0.0,0.0,0.0,0.0,0.0,0.0,0.0,0.0,0.0,0.0,0.0,0.0,0.0,0.0,0.0,0.0,0.0,0.0,0.0,0.0,0.0,0.0,0.0,0.0,0.0,0.0,0.0,0.0,0.0,0.0,0.0,0.0,0.0,0.0,0.0,0.0,0.0,0.0,0.0,0.0,0.0,0.562,0.5591,0.562,0.5561,0.4209,0.3438,0.3277,0.1887,0.029,0.0,0.0,0.0,0.0,0.0,0.0,0.0,0.0,0.0,0.0,0.0,0.0,0.0,0.0,0.0,0.0,0.0,0.0,0.0,0.0,0.0,0.0,0.0,0.0,0.0,0.0,0.0,0.0,0.0,0.0,0.0,0.0,0.0,0.0,0.0,0.0,0.0,0.0,0.0,0.0,0.0,0.7394,0.7735,0.7441,0.0,0.0,0.0,0.0,0.514,0.4705,0.0,0.0,0.0,0.0,0.0,0.0,0.0,0.0,0.0,0.0,0.0,0.0,0.0,0.0,0.0,0.0,0.0,0.0,0.0,0.0,0.0,0.0,0.0,0.0,0.0,0.0,0.0,0.0,0.0,0.0,0.0,0.0,0.0,0.0,0.0,0.0,0.0,0.0,0.0,0.0,0.0,0.0,0.0,0.0,0.0,0.0,0.0,0.0,0.0,0.0,0.0,0.0,0.0,0.0,0.0,0.0,0.626,0.6301,0.6301,0.6235,0.4894,0.423,0.4276,0.2693,0.1077,0.0,0.0,0.0,0.0,0.0,0.0,0.0,0.0,0.0,0.0,0.0,0.0,0.0,0.0,0.0,0.0,0.0,0.0,0.0,0.0,0.0,0.0,0.0,0.0,0.0,0.0,0.0,0.0,0.0,0.0,0.0,0.0,0.0,0.0,0.0,0.0,0.0,0.0,0.0,0.0,0.0,0.8767,0.8277,0.7684,0.7205,0.0,0.0,0.6889,0.7081,0.7428,0.0,0.0,0.0,0.0,0.0,0.0,0.0,0.0,0.0,0.0,0.0,0.0,0.0,0.0,0.0,0.0,0.0,0.0,0.0,0.0,0.0,0.0,0.0,0.0,0.0,0.0,0.0,0.0,0.0,0.0,0.0,0.0,0.0,0.0,0.0,0.0,0.0,0.0,0.0,0.0,0.0,0.0,0.0,0.0,0.0,0.0,0.0,0.0,0.0,0.0,0.0,0.0,0.0,0.0,0.0,0.6899,0.7012,0.7094,0.6977,0.6647,0.5599,0.4925,0.4664,0.3408,0.2062,0.0,0.0,0.0,0.0,0.0,0.0,0.0,0.0,0.0,0.0,0.0,0.0,0.0,0.0,0.0,0.0,0.0,0.0,0.0,0.0,0.0,0.0,0.0,0.0,0.0,0.0,0.0,0.0,0.0,0.0,0.0,0.0,0.0,0.0,0.0,0.0,0.0,0.0,0.0,0.0,0.0,0.0,1.0147,0.9821,0.0,0.0,0.0,0.851,0.9249,0.0,0.0,0.0,0.0,0.0,0.0,0.0,0.0,0.0,0.0,0.0,0.0,0.0,0.0,0.0,0.0,0.0,0.0,0.0,0.0,0.0,0.0,0.0,0.0,0.0,0.0,0.0,0.0,0.0,0.0,0.0,0.0,0.0,0.0,0.0,0.0,0.0,0.0,0.0,0.0,0.0,0.0,0.0,0.0,0.0,0.0,0.0,0.0,0.0,0.0,0.0,0.0,0.0,0.0,0.0,0.0,0.0,0.7783,0.7941,0.7846,0.7391,0.6417,0.5696,0.5338,0.424,0.0,0.0,0.0,0.0,0.0,0.0,0.0,0.0,0.0,0.0,0.0,0.0,0.0,0.0,0.0,0.0,0.0,0.0,0.0,0.0,0.0,0.0,0.0,0.0,0.0,0.0,0.0,0.3378,0.0,0.0,0.0,0.0,0.0,0.0,0.0,0.0,0.0,0.0,0.0,0.0,0.0,0.0,1.1327,1.1747,1.1764,1.2122,0.0,0.0,1.0314,1.1211,1.0153,0.8878,0.0,0.0,0.0,0.0,0.0,0.0,0.0,0.0,0.0,0.0,0.0,0.0,0.0,0.0,0.0,0.0,0.0,0.0,0.0,0.0,0.0,0.0,0.0,0.0,0.0,0.0,0.0,0.0,0.0,0.0,0.0,0.0,0.0,0.0,0.0,0.0,0.0,0.0,0.0,0.0,0.0,0.0,0.0,0.0,0.0,0.0,0.0,0.0,0.0,0.0,0.0,0.0,0.0,0.0,0.0,0.8536,0.8768,0.8903,0.8818,0.7386,0.6668,0.6726,0.5127,0.3557,0.0,0.0,0.0,0.0,0.0,0.0,0.0,0.0,0.0,0.0,0.0,0.0,0.0,0.0,0.0,0.0,0.0,0.0,0.0,0.0,0.0,0.0,0.0,0.0,0.0,0.0,0.0,0.0,0.0,0.0,0.0,0.0,0.0,0.0,0.0,0.0,0.0,0.0,0.0,0.0,0.0,1.2197,1.2394,1.2733,1.3099,0.0,0.0,1.2451,1.2542,1.3029,1.2665,1.042,0.0,0.0,0.0,0.0,0.0,0.0,0.0,0.0,0.0,0.0,0.0,0.0,0.0,0.0,0.0,0.0,0.0,0.0,0.0,0.0,0.0,0.0,0.0,0.0,0.0,0.0,0.0,0.0,0.0,0.0,0.0,0.0,0.0,0.0,0.0,0.0,0.0,0.0,0.0,0.0,0.0,0.0,0.0,0.0,0.0,0.0,0.0,0.0,0.0,0.0,0.0,0.0,0.0,0.9905,0.9656,1.016,1.0066,0.9315,0.8595,0.8097,0.7824,0.6682,0.5521,0.0,0.0,0.0,0.0,0.0,0.0,0.0,0.0,0.0,0.0,0.0,0.0,0.0,0.0,0.0,0.0,0.0,0.0,0.0,0.0,0.0,0.0,0.0,0.0,0.0,0.0,0.0,0.0,0.6782,0.7402,0.7756,0.0,0.0,0.0,0.0,0.0,0.0,0.0,0.0,0.0,0.0,1.3246,1.3666,1.385,0.0,0.0,1.3992,1.3153,1.4006,1.3518,1.2683,1.1549,1.1561,0.0,0.0,0.0,0.0,0.0,0.0,0.0,0.0,0.0,0.0,0.0,0.0,0.0,0.0,0.0,0.0,0.0,0.0,0.0,0.0,0.0,0.0,0.0,0.0,0.0,0.0,0.0,0.0,0.0,0.0,0.0,0.0,0.0,0.0,0.0,0.0,0.0,0.0,0.0,0.0,0.0,0.0,0.0,0.0,0.0,0.0,0.0,0.0,0.0,0.0,0.0,0.0,1.0982,1.0681,1.1427,1.1291,1.0111,0.9706,0.9231,0.8685,0.7807,0.6983,0.0,0.0,0.0,0.0,0.0,0.0,0.0,0.0,0.0,0.0,0.0,0.0,0.0,0.0,0.0,0.0,0.0,0.0,0.0,0.0,0.0,0.0,0.0,0.0,0.0,0.0,0.0,0.0,0.834,0.8787,0.8934,0.0,0.0,0.0,0.0,0.0,0.0,0.0,0.0,0.0,0.0,1.4905,1.5451,1.533,1.554,1.6586,1.4935,1.3982,1.4974,1.4497,1.3815,1.3141,0.0,0.0,0.0,0.0,0.0,0.0,0.0,0.0,0.0,0.0,0.0,0.0,0.0,0.0,0.0,0.0,0.0,0.0,0.0,0.0,0.0,0.0,0.0,0.0,0.0,0.0,0.0,0.0,0.0,0.0,0.8866,0.0,0.0,0.0,0.0,0.0,0.0,0.0,0.0,0.0,0.0,0.0,0.0,0.0,0.0,0.0,0.0,0.0,0.0,0.0,0.0,0.0,0.0,1.1632,1.149,1.2506,1.2522,1.1474,1.064,0.9907,0.9291,0.8458,0.7627,0.6889,0.0,0.0,0.0,0.0,0.0,0.0,0.0,0.0,0.0,0.0,0.0,0.0,0.0,0.0,0.0,0.0,0.0,0.0,0.0,0.0,0.0,0.0,0.0,0.0,0.0,0.0,0.8841,0.9532,0.9986,0.0,0.0,0.0,0.0,0.0,0.0,0.0,0.0,0.0,0.0,1.6596,1.7214,1.7707,1.716,1.6675,1.675,1.5735,1.511,1.5464,1.6532,1.6961,0.0,0.0,0.0,0.0,0.0,0.0,0.0,0.0,0.0,0.0,0.0,0.0,0.0,0.0,0.0,0.0,0.0,0.0,0.0,0.0,0.0,0.0,0.0,0.0,0.0,0.0,0.0,1.455,1.3925,0.0,0.0,0.0,0.0,0.0,0.0,0.0,0.0,0.0,0.0,0.0,1.8356,1.9118,0.0,0.0,0.0,0.0,0.0,0.0,0.0,0.0,0.0,0.0,0.0,0.0,1.2948,1.2814,1.3256,1.2995,1.1992,1.1526,1.1013,1.0387,0.9661,0.8496,0.6822,0.0,0.0,0.0,0.0,0.0,0.0,0.0,0.0,0.0,0.0,0.0,0.0,0.0,0.0,0.0,0.0,0.0,0.0,0.0,0.0,0.0,0.0,0.0,0.0,0.0,0.9747,0.0,0.0,0.0,0.0,0.0,0.0,0.0,0.0,0.0,0.0,0.0,1.6031,1.7065,1.7408,1.7805,1.8417,1.8257,1.8184,0.0,0.0,0.0,0.0,0.0,0.0,0.0,0.0,0.0,0.0,0.0,0.0,0.0,0.0,2.003,1.8832,1.8796,1.9097,1.9608,0.0,0.0,0.0,0.0,0.0,0.0,0.0,0.0,0.0,0.0,0.0,0.0,0.0,0.0,0.0,0.0,1.6986,0.0,0.0,0.0,0.0,0.0,0.0,0.0,0.0,1.9687,2.0364,2.0759,2.1332,2.1501,0.0,2.1138,1.9459,0.0,0.0,0.0,0.0,0.0,0.0,0.0,0.0,1.4408,1.411,1.4492,1.4123,1.2957,1.2582,1.2028,1.1216,1.0711,0.9626,0.7846,0.7592,0.6944,0.0,0.0,0.0,0.0,0.0,0.0,0.0,0.0,0.0,0.0,0.0,0.0,0.0,0.0,0.0,0.0,0.0,0.0,0.0,0.0,0.0,0.0,0.0,1.1765,0.0,0.0,0.0,0.0,0.0,0.0,0.0,0.0,0.0,1.7471,1.7865,1.8611,1.9465,1.9471,1.9693,2.054,0.0,0.0,0.0,0.0,0.0,0.0,0.0,2.0255,2.0332,2.0855,2.1242,2.1204,2.1978,2.2626,2.2606,0.0,0.0,2.1573,2.1617,2.2015,2.2304,2.286,2.32,2.274,2.3934,2.492,0.0,0.0,0.0,0.0,0.0,0.0,0.0,0.0,2.0547,2.042,0.0,1.92,0.0,0.0,0.0,0.0,0.0,2.1199,0.0,0.0,2.2513,2.263,2.2314,2.1818,2.1709,2.1918,2.2119,2.1728,2.0919,1.9813,0.0,0.0,0.0,0.0,0.0,0.0,1.5848,1.5437,1.6123,1.5777,1.424,1.3697,1.2878,1.1794,1.1587,1.0976,0.9928,0.9709,0.8984,0.7507,0.6876,0.0,0.0,0.0,0.0,0.0,0.0,0.0,0.0,0.0,0.0,0.0,0.0,0.0,0.0,0.0,0.0,0.0,0.0,0.0,0.0,1.2987,0.0,0.0,0.0,0.0,0.0,0.0,0.0,0.0,0.0,0.0,1.9009,2.0476,2.2126,2.2797,0.0,0.0,0.0,0.0,2.2057,2.2635,2.1956,2.1208,2.0709,2.1994,2.2815,2.1952,0.0,0.0,2.3323,2.4395,2.5199,2.4574,2.5781,2.6347,2.4687,2.5118,2.5993,2.6738,2.6972,2.7381,2.7711,2.72,2.7104,2.5485,0.0,0.0,0.0,0.0,2.3535,2.3915,2.4587,2.4287,2.3772,2.3151,2.2702,0.0,0.0,0.0,0.0,0.0,0.0,2.2684,2.3475,2.3195,2.3748,2.4858,2.433,2.4299,2.4804,2.4841,2.4337,2.3331,2.298,2.1229,1.8176,0.0,0.0,0.0,0.0,1.5667,1.5801,1.5763,1.5389,1.4645,1.4374,1.3681,1.251,1.1946,1.1531,1.1307,1.128,1.0914,1.0178,0.9667,0.0,0.0,0.0,0.0,0.0,0.0,0.0,0.0,0.0,0.0,0.0,0.0,0.0,0.0,0.0,0.0,0.0,0.0,0.0,1.366,1.3574,1.4311,0.0,0.0,0.0,0.0,0.0,0.0,0.0,0.0,0.0,2.2092,2.2321,2.2842,0.0,0.0,2.3302,2.4727,2.3867,2.3513,2.4716,2.4045,0.0,0.0,2.4262,2.4459,2.5016,2.6191,2.7034,2.7014,2.7406,2.7646,2.7456,2.7828,2.7866,2.7128,2.7411,2.7936,2.8181,2.8265,2.8191,2.7971,2.8318,2.8611,2.953,2.7901,2.6554,2.6071,2.6147,2.6086,2.6514,2.7233,2.6709,2.6382,2.6214,2.5524,2.4744,2.3922,2.3573,0.0,0.0,0.0,2.4181,2.445,2.3889,2.4094,2.4843,2.4345,2.4295,2.4628,2.44,2.3896,2.321,2.2958,2.1767,1.9634,0.0,0.0,1.7745,1.7179,1.672,1.6449,1.6219,1.5802,1.5242,1.4744,1.4129,1.3407,1.2924,1.2581,1.2341,1.2471,1.2151,1.1351,1.1189,1.0809,0.0,0.0,0.0,0.0,0.0,0.0,0.0,0.0,0.0,0.0,0.0,1.0907,1.0347,0.0,0.0,0.0,1.3791,1.5551,1.6327,1.6138,0.0,0.0,0.0,0.0,0.0,0.0,0.0,2.2926,2.4116,2.4788,2.4471,2.4121,2.4053,2.4401,2.4123,2.4391,2.5699,0.0,2.4997,2.6075,2.5695,2.5464,2.5947,2.5787,2.5887,2.6595,2.7194,2.7662,2.8002,2.8056,2.8203,2.852,2.8656,2.8656,2.8775,2.9057,2.9116,2.8757,2.8981,2.9136,2.8852,2.9095,2.9262,3.2865,3.2131,2.8371,2.7296,2.8048,2.8048,2.8473,2.9116,2.8164,2.831,2.9076,2.7683,2.6966,2.686,2.6375,0.0,2.536,2.6411,2.6228,2.5124,2.4543,2.3987,2.3388,2.2911,2.2671,2.2724,2.2072,2.1714,2.1699,2.1103,2.0737,2.0637,2.0949,2.0168,1.8485,1.8765,1.8363,1.715,1.7125,1.6762,1.5974,1.4979,1.4433,1.4387,1.4281,1.3893,1.3215,1.3442,1.3011,1.1744,1.1979,1.1836,1.1184,0.0,0.0,0.0,0.0,0.0,0.0,0.0,0.0,0.0,0.0,0.0,0.0,0.0,0.0,0.0,1.5041,0.0,1.8994,1.9782,0.0,0.0,0.0,2.1419,2.1908,2.2628,2.3373,2.4105,0.0,0.0,2.6124,2.5744,2.5517,2.5695,2.5477,2.5709,2.6816,2.6418,2.6274,2.6861,2.6851,2.6731,2.6463,2.668,2.6921,2.7124,2.7195,2.7348,2.748,2.7547,2.7831,2.868,2.8763,2.9052,3.0025,3.0151,2.9894,2.9094,2.9593,3.014,3.0001,2.976,2.9516,3.1163,3.1343,2.9892,2.9725,3.0325,3.0338,3.0174,2.9909,2.9667,2.9194,2.8612,2.8232,2.7525,2.6676,2.6529,2.6396,2.6262,2.6072,2.5858,2.5508,2.442,2.4144,2.4461,2.3382,2.3203,2.3827,2.3273,2.2809,2.2513,2.2373,2.1823,2.1026,2.1056,2.0356,1.8952,1.8234,1.7726,1.7405,1.7392,1.7131,1.6585,1.5991,1.5477,1.5051,1.4629,1.4464,1.4514,1.4616,1.4607,1.4584,1.4379,1.4179,1.3988,1.2929,0.0,0.0,0.0,0.0,0.0,0.0,0.0,0.0,0.0,1.4523,1.3463,0.0,1.7317,0.0,1.6612,1.8137,2.057,2.0301,0.0,0.0,2.3043,2.3413,2.4355,2.4575,2.4708,2.4925,2.5502,2.5967,2.6113,2.6401,2.6606,2.6661,2.5893,2.584,2.7238,2.6744,2.6521,2.7237,2.688,2.6479,2.6761,2.6857,2.7111,2.7517,2.8009,2.8549,2.8941,2.9481,2.9912,3.0145,3.0187,3.0391,3.0756,3.0853,3.0861,3.0778,3.0813,3.0676,3.0281,3.0433,3.0525,3.165,3.1898,3.158,3.1457,3.1389,3.0897,3.0356,2.9754,2.9497,2.904,2.8441,2.8521,2.8186,2.7559,2.7707,2.7469,2.6905,2.6747,2.6193,2.5296,2.4303,2.3897,2.3962,2.2935,2.274,2.3202,2.2601,2.2179,2.1942,2.1693,2.1222,2.0625,2.061,2.0245,1.9486,1.8741,1.8147,1.772,1.7578,1.7374,1.7118,1.6862,1.6593,1.6359,1.6015,1.5768,1.5581,1.5689,1.5593,1.5235,1.5414,1.5315,1.4896,1.431,1.4026,0.0,0.0,0.0,0.0,0.0,0.0,0.0,0.0,0.0,0.0,0.0,1.8717,1.8818,1.8987,2.0088,2.252,2.2236,2.2684,2.4583,2.4753,2.4949,2.5562,2.5562,2.5553,2.5584,2.5856,2.6147,2.6427,2.642,2.6622,2.7236,2.6496,2.6249,2.7105,2.6883,2.6791,2.7475,2.7116,2.7002,2.7641,2.792,2.8171,2.8436,2.8849,2.9239,2.953,2.9872,3.024,3.0532,3.0596,3.0752,3.1188,3.1289,3.1348,3.1453,3.1606,3.141,3.0907,3.1035,3.1172,3.2881,3.294,3.2866,3.2377,3.157,3.0729,3.0009,2.9357,2.8907,2.8652,2.865,2.8666,2.8638,2.8565,2.8919,2.8383,2.7235,2.7463,2.6601,2.4839,2.4134,2.3487,2.2823,2.2165,2.1861,2.185,2.1218,2.0901,2.0941,2.0408,2.0148,2.0113,2.0078,2.0061,2.0021,1.9653,1.9063,1.8279,1.7921,1.7727,1.7686,1.7626,1.7654,1.7713,1.7576,1.72,1.6485,1.6678,1.6277,1.5176,1.5889,1.5969,1.5119,1.5441,1.544,0.0,1.5028,0.0,0.0,0.0,0.0,0.0,0.0,0.0,0.0,1.8279,1.9663,2.1594,2.1533,2.225,2.4257,2.4481,2.4935,2.5889,2.6025,2.6016,2.6003,2.598,2.5988,2.6001,2.6054,2.6304,2.6767,2.6279,2.641,2.7468,2.7184,2.6914,2.7176,2.7291,2.7377,2.765,2.7604,2.7734,2.8396,2.8913,2.9156,2.9231,2.9315,2.9467,2.9429,2.9556,2.9812,3.0326,3.0463,3.0703,3.1338,3.1545,3.1608,3.1667,3.2121,3.2307,3.1796,3.1713,3.1692,3.2228,3.2631,3.2151,3.1508,3.0871,3.125,3.1025,3.0334,3.0239,2.9894,2.9378,2.8916,2.8381,2.7825,2.7881,2.7434,2.6626,2.6161,2.5425,2.4493,2.3853,2.3188,2.2473,2.1809,2.1608,2.1757,2.1182,2.1018,2.1214,2.1103,2.0942,2.073,2.0563,2.0378,2.017,0.0,0.0,0.0,1.9281,1.8968,1.8631,1.8414,1.8123,1.7725,1.7672,0.0,1.7277,1.7332,1.7238,1.6988,1.7148,0.0,0.0,0.0,0.0,0.0,0.0,0.0,0.0,0.0,0.0,0.0,1.9145,1.8896,1.9138,2.079,2.2054,2.2515,2.2872,2.3497,2.4618,2.5082,2.5545,2.6169,2.6207,2.6113,2.6011,2.5947,2.5911,2.5925,2.6327,2.6704,2.6818,2.7062,2.7379,2.7668,2.7591,2.7721,2.8184,2.8307,2.8441,2.8532,2.826,2.8026,2.8132,2.8312,2.8545,2.8359,2.8819,2.9174,2.9262,2.9719,3.0063,3.0287,3.0265,3.0534,3.1232,3.1777,3.2192,3.2312,3.2839,3.3075,3.2396,3.2613,3.2821,3.1878,0.0,3.1502,3.1105,0.0,3.1084,3.0784,2.9989,2.9688,2.9213,2.8591,2.8288,2.7945,2.761,2.7807,2.7293,2.6235,2.5724,2.512,2.4407,2.3414,2.2764,2.2382,2.1668,2.1418,2.1551,2.1343,2.1261,2.1293,2.1402,2.1324,2.1103,2.1119,2.1023,2.0894,2.0829,2.053,2.0005,1.9833,1.9639,1.9442,1.931,1.9123,1.888,0.0,0.0,0.0,0.0,0.0,0.0,0.0,0.0,0.0,0.0,0.0,1.7771,1.831,1.85,1.8244,1.8936,1.9584,1.9956,2.0785,2.1035,2.0544,2.1689,2.2575,2.2883,2.3098,2.3555,2.4257,2.4573,2.5081,2.5925,2.5915,2.6014,2.6569,2.6503,2.6528,2.6846,2.7153,2.7357,2.7357,2.7447,2.7715,2.792,2.7895,2.7868,2.8139,2.846,2.8841,2.9362,2.9404,2.9268,2.9282,2.9268,2.9268,2.9338,2.9596,2.9795,2.9837,3.0121,3.0475,3.0741,3.0839,3.1073,3.1734,3.2374,3.2688,3.2582,3.2952,3.3132,3.259,3.2709,3.2806,3.1649,3.1101,3.1101,3.0966,3.0752,3.0881,3.0272,2.9208,0.0,0.0,0.0,2.78,2.7737,2.7759,2.7949,2.7226,2.5851,2.554,2.4975,2.4181,2.3028,2.2443,2.2329,2.1742,2.1464,2.1526,2.1658,2.1658,2.1526,2.1675,2.1675,2.154,2.1643,2.1687,2.1672,2.1673,2.1228,2.0378,2.022,2.0166,2.0148,2.0113,2.0128,2.0152,2.0125,1.9936,1.9628,1.9534,1.9292,1.8958,1.9339,1.9266,1.8616,1.9462,1.9712,1.9092,1.9593,1.9683,1.9231,1.9683,1.9994,2.0008,2.1775,2.2513,2.1599,2.2182,2.2702,2.3036,2.325,2.3534,2.4024,2.4174,2.4658,2.5696,2.5627,2.5944,2.6937,2.6913,2.6853,2.7434,2.7446,2.7525,2.7436,2.74,2.7555,2.7895,2.7791,2.7765,2.78,2.8269,2.8944,2.974,3.0106,3.0507,3.0582,3.0507,3.0612,3.0447,3.0522,3.0612,3.0598,3.051,3.0655,3.1127,3.1206,3.1308,3.2055,3.2452,3.2759,3.2432,3.28,3.3,3.2524,3.2416,3.2414,3.161,3.1528,3.1512,3.1144,3.0582,3.1226,3.0365,2.8555,2.8428,2.8681,2.9124,2.8536,2.829,2.8257,2.769,2.6619,2.5251,2.5171,2.4413,0.0,2.2911,2.2589,2.2132,2.2032,2.2099,2.2332,2.236,2.236,2.2332,2.236,2.236,2.2318,2.2181,2.2051,2.1969,2.1938,2.1866,2.1718,2.1103,2.0763,2.0763,2.0547,2.0427,2.0436,2.0426,2.034,2.0106,2.0067,1.9997,1.9818,1.9888,1.987,1.9759,1.9921,1.9951,1.9869,2.0404,2.0688,2.0613,2.1222,2.159,2.159,2.1899,2.2071,2.2132,2.3322,2.389,2.345,2.4043,2.4649,2.4784,2.5196,2.5525,2.5822,2.5854,2.5923,2.6165,2.6129,2.6168,2.632,2.6197,2.6266,2.6396,2.6751,2.7052,2.7095,2.7018,2.7184,2.7679,2.8324,2.8928,2.958,3.0204,3.0554,3.0438,3.0583,3.0569,3.0612,3.0613,3.0673,3.0585,3.0264,3.0221,3.0657,3.0148,3.0075,3.1235,3.1501,3.1811,3.2002,3.2523,3.2747,3.2179,3.2044,3.2077,3.149,3.1103,3.104,3.0803,3.0472,3.0063,2.9089,2.7798,2.7548,2.7744,2.821,2.7928,2.789,2.7953,2.7217,2.6368,2.5445,2.451,2.3805,2.3255,2.2716,2.2406,2.2332,2.2312,2.2371,2.2515,2.2605,2.2592,2.2528,2.2605,2.2605,2.2497,2.2504,2.2541,2.2611,2.249,2.245,2.2422,2.1822,2.1507,2.1492,2.1367,2.1111,2.0691,2.0569,2.0461,2.0352,1.9877,1.9925,2.0664,2.0317,2.0221,2.0479,2.0803,2.0918,2.0793,2.1357,2.1516,2.1088,2.1344,2.1527,2.1527,2.1942,2.2161,2.2152,2.301,2.3449,2.3185,2.3921,2.4416,2.4416,2.4689,2.5007,2.5326,2.5246,2.5439,2.606,2.6068,2.6109,2.6472,2.6565,2.6565,2.655,2.6829,2.6902,2.6696,2.6245,2.6106,2.6728,2.7016,2.7595,2.8647,2.8967,2.9127,2.9356,3.0014,3.0337,3.0382,3.0924,3.0968,3.0645,3.0467,3.0773,3.0772,3.0444,3.0766,3.1534,3.1866,3.1964,3.191,3.2316,3.2448,3.2081,3.2061,3.2211,3.152,3.0998,3.0865,3.0741,3.0436,2.9015,2.8079,2.7528,2.7012,2.6978,2.7309,2.7253,2.7443,2.7687,2.6775,2.6048,2.5392,2.3981,2.3318,2.3258,2.2539,2.2326,2.2538,2.2569,2.2579,2.2646,2.2803,2.279,2.2672,2.279,2.279,2.2659,2.279,2.2957,2.3107,2.2944,2.2868,2.2842,2.246,2.2198,2.2113,2.1947,2.1516,2.0951,2.0583,2.042,2.0334,1.967,1.9803,2.0831,2.0554,2.0416,2.0652,2.1408,2.1659,2.1328,2.1843,2.1947,2.1372,2.1292,2.1309,2.1396,2.1957,2.224,2.2144,2.2568,2.2855,2.2902,2.3421,2.3784,2.3764,2.3759,2.3948,2.4386,2.4277,2.458,2.5642,2.5681,2.5803,2.6467,2.6625,2.6593,2.6641,2.6751,2.6718,2.6327,2.5663,2.5426,2.5802,2.5787,2.6204,2.722,2.7776,2.8186,2.8449,2.9423,3.011,3.0171,3.0797,3.0812,3.0432,3.0779,3.1064,3.0628,3.0655,3.0891,3.1366,3.1639,3.1728,3.1651,3.1975,3.2164,3.209,3.2412,3.2641,3.1947,3.1878,3.1807,3.1444,3.0577,2.9124,2.8433,2.826,2.7648,2.7336,2.7327,2.7157,2.7435,2.7794,2.6516,2.5507,2.4819,2.3938,2.3235,2.2699,2.2504,2.2579,2.2777,2.2777,2.2863,2.302,2.307,2.3052,2.3045,2.307,2.3052,2.3057,2.307,2.3095,2.3107,2.3095,2.3082,2.3082,2.3033,2.2842,2.2436,2.1748,2.1326,2.1258,2.0569,2.0137,1.9967,1.9857,1.9813,1.988,2.0423,2.0456,2.0052,2.1188,2.1566,2.071,2.1297,2.1639,2.156,2.1574,2.1668,2.1892,2.1991,2.2058,2.2044,2.2439,2.2713,2.2717,2.2972,2.3201,2.3049,2.3078,2.3188,2.3346,2.3304,2.3348,2.4121,2.4121,2.4381,2.5096,2.5349,2.5191,2.5397,2.5808,2.6067,2.602,2.5811,2.5686,2.5764,2.5279,2.5024,2.598,2.7263,2.8439,2.8671,2.9365,2.9815,2.9905,3.0038,3.0137,3.0046,2.9682,2.9329,3.0177,2.9433,2.9511,3.0197,3.0314,3.0404,3.1242,3.1485,3.1596,3.2132,3.2736,3.3071,3.2074,3.2022,3.1498,3.0838,2.9987,2.896,2.8247,2.7828,2.7702,2.7408,2.7087,2.749,2.7787,2.7826,2.628,2.5422,2.5143,2.3933,2.3253,2.297,2.294,2.301,2.3187,2.3217,2.3265,2.3336,2.3336,2.3354,2.3336,2.3324,2.3324,2.3336,2.3336,2.3324,2.3336,2.3336,2.3372,2.3399,2.3382,2.3347,2.3206,2.2683,2.1918,2.1068,2.0592,2.0089,1.9554,1.9079,1.9154,1.9934,2.0268,2.0314,2.0023,2.1461,2.1907,2.111,2.1591,2.201,2.213,2.2025,2.2008,2.2124,2.2243,2.2257,2.2139,2.2399,2.2525,2.247,2.3013,2.3415,2.3381,2.3468,2.3553,2.3618,2.3927,2.4197,2.4237,2.4617,2.4942,2.5013,2.5005,2.5005,2.5017,2.5223,2.5397,2.5412,2.5412,2.5444,2.5377,2.5055,2.4963,2.5268,2.6364,2.711,2.7518,2.8391,2.9112,2.9659,3.0253,3.0541,2.9807,3.018,3.0301,3.0095,2.9754,2.9803,3.0789,3.0761,3.075,3.1191,3.1618,3.1959,3.2244,3.2819,3.3214,3.2274,3.2275,3.1311,3.0382,2.9593,2.8853,2.8217,2.7806,2.7943,2.7708,2.7322,2.7991,2.8183,2.7836,2.6499,2.5791,2.5506,2.4465,2.3708,2.3437,2.3513,2.3579,2.3512,2.3505,2.3505,2.3517,2.3544,2.3567,2.3538,2.3517,2.3505,2.3505,2.3533,2.3549,2.3549,2.3582,2.3624,2.3656,2.3685,2.3727,2.3767,2.3495,2.2539,2.1028,2.0324,1.9726,1.9124,1.8474,1.8616,1.9676,1.994,1.9958,1.9797,2.139,2.2151,2.1798,2.2058,2.2364,2.2565,2.245,2.2388,2.2456,2.2602,2.2615,2.25,2.2531,2.2508,2.2453,2.3044,2.3399,2.3257,2.3368,2.3445,2.3496,2.3947,2.4199,2.4357,2.4694,2.4764,2.4938,2.4875,2.4893,2.4977,2.5017,2.5033,2.5033,2.5017,2.5005,2.5005,2.5001,2.4985,2.5001,2.5456,2.5984,2.657,2.7657,2.8583,2.927,3.0033,3.012,2.9541,3.0216,3.0551,2.9704,3.0345,3.0568,3.037,3.0521,3.0712,3.0919,3.1356,3.1937,3.2155,3.2749,3.3226,3.2643,3.3027,3.1649,3.0473,2.9718,2.892,2.8577,2.8453,2.8536,2.8513,2.8428,2.8525,2.8574,2.8451,2.7404,2.6519,2.5854,2.5647,2.4795,2.3666,2.4189,2.4206,2.3523,2.3505,2.3517,2.3555,2.3682,2.371,2.371,2.36,2.3505,2.3528,2.3664,2.3703,2.3724,2.384,2.3893,2.3895,2.3913,2.3905,2.3905,2.3875,2.2952,2.1261,1.9715,1.8961,1.8602,1.851,1.8545,1.8598,1.936,1.943,1.8904,2.0769,2.2162,2.2613,2.2571,2.2579,2.2764,2.276,2.2825,2.299,2.3057,2.3052,2.2977,2.2876,2.2799,2.276,2.285,2.2747,2.2365,2.2452,2.2353,2.2322,2.2276,2.2921,2.3932,2.3668,2.3735,2.4559,2.4688,2.4737,2.4989,2.5005,2.5025,2.5025,2.5005,2.5005,2.5005,2.5005,2.5025,2.5025,2.5183,2.5507,2.6777,2.7526,2.8257,2.9013,2.9407,2.9374,2.9225,2.9177,2.92,2.9239,2.9396,2.952,2.9546,2.9637,2.9785,3.0103,3.0712,3.1234,3.1967,3.2579,3.3152,3.2524,3.1763,3.069,2.9771,2.9029,2.8708,2.86,2.86,2.86,2.86,2.86,2.86,2.86,2.86,2.8204,2.7268,2.6033,2.5535,2.4707,2.3735,2.3981,2.3966,2.3732,2.3685,2.375,2.3873,2.3935,2.4016,2.4077,2.4018,2.4016,2.4008,2.4057,2.4068,2.4096,2.4126,2.4164,2.4238,2.422,2.4247,2.4282,2.3846,2.3168,2.2392,2.118,2.002,1.8923,1.8834,1.8834,1.8825,1.9472,1.9493,1.8969,2.028,2.1779,2.2815,2.2932,2.2919,2.2995,2.2995,2.3033,2.3107,2.3271,2.3271,2.3163,2.3157,2.3187,2.3045,2.2995,2.2876,2.2782,2.2686,2.2686,2.2755,2.3126,2.3405,2.3718,2.3868,2.4117,2.4347,2.4493,2.492,2.5313,2.5378,2.5182,2.5162,2.5084,2.5025,2.5025,2.5103,2.5182,2.5201,2.5314,2.5696,2.6555,2.7116,2.7762,2.8709,2.9254,2.9407,2.9373,2.9,2.8948,2.9253,2.9134,2.89,2.9108,2.9265,2.9329,2.9874,3.0453,3.1099,3.1843,3.2544,3.3234,3.1836,3.0636,3.002,2.9337,2.8636,2.86,2.86,2.86,2.86,2.86,2.86,2.86,2.86,2.86,2.86,2.7875,2.6604,2.623,2.5434,2.4234,2.4415,2.4302,2.386,2.3876,2.3966,2.4084,2.4152,2.4247,2.4348,2.4312,2.4294,2.4284,2.4339,2.4366,2.4375,2.441,2.4452,2.4485,2.4483,2.4545,2.4546,2.4105,2.3609,2.3206,2.2493,2.1283,1.9612,1.9454,1.9275,1.9123,1.9408,1.9576,1.9661,2.0402,2.1555,2.2874,2.3107,2.3107,2.3107,2.3107,2.3144,2.3223,2.3377,2.3412,2.3242,2.34,2.3354,2.3175,2.3107,2.3107,2.3107,2.3077,2.3107,2.316,2.356,2.385,2.3812,2.3952,2.394,2.3963,2.4378,2.4945,2.5465,2.5538,2.5478,2.5432,2.5259,2.5201,2.522,2.5282,2.5394,2.5394,2.5492,2.5853,2.6444,2.6887,2.7572,2.8488,2.9336,2.9496,2.9456,2.9033,2.8859,2.9167,2.9102,2.8783,2.8733,2.8923,2.9352,2.9918,3.0402,3.1008,3.1775,3.2569,3.3321,3.0563,2.9893,2.9784,2.9282,2.8636,2.86,2.86,2.86,2.86,2.86,2.86,2.86,2.86,2.86,2.86,2.8147,2.761,2.7948,2.7043,2.5179,2.5708,2.5248,2.4018,2.4253,2.4306,2.428,2.4321,2.4421,2.4513,2.4401,2.4339,2.4321,2.4444,2.4503,2.4522,2.4594,2.4676,2.4665,2.4676,2.4684,2.4681,2.4598,2.426,2.3641,2.3401,2.2481,2.0606,2.0393,2.0047,1.9385,1.9191,1.9723,2.0737,2.1069,2.1703,2.29,2.3126,2.3102,2.3132,2.3126,2.3247,2.3406,2.3526,2.3531,2.3481,2.3504,2.3406,2.3163,2.3107,2.3107,2.3107,2.3107,2.3107,2.3107,2.3217,2.3478,2.3794,2.3484,2.318,2.3602,2.4254,2.4652,2.4978,2.5567,2.5888,2.5701,2.5605,2.5549,2.5511,2.5549,2.5605,2.5605,2.5677,2.5977,2.6324,2.6713,2.7506,2.8336,2.9124,2.9599,2.9583,2.9279,2.8923,2.9041,2.8796,2.8522,2.9173,2.9373,2.9805,3.0299,3.0642,3.1087,3.1995,3.2863,3.3542,3.0077,2.973,2.9192,2.8853,2.86,2.86,2.86,2.86,2.86,2.86,2.86,2.86,2.86,2.86,2.86,2.8455,2.8256,2.8437,2.7586,2.6172,2.6231,2.5885,2.515,2.5578,2.5697,2.5291,2.5378,2.5174,2.4722,2.4615,2.458,2.4578,2.4602,2.4645,2.4618,2.4665,2.4681,2.4681,2.4681,2.4681,2.4681,2.47,2.4557,2.4369,2.4298,2.3701,2.2607,2.1905,2.145,2.1108,2.0494,2.0508,2.1197,2.1375,2.2094,2.3401,2.3463,2.3359,2.3377,2.3377,2.3394,2.3531,2.3742,2.3761,2.3565,2.3631,2.352,2.3187,2.3107,2.3107,2.3107,2.3107,2.3107,2.3107,2.3107,2.3177,2.3415,2.3228,2.34,2.3972,2.4541,2.5094,2.563,2.62,2.6233,2.6036,2.5893,2.575,2.5645,2.567,2.5807,2.5824,2.593,2.6018,2.6274,2.6599,2.7205,2.8016,2.8829,2.9412,2.9438,2.9338,2.9004,2.8656,2.8403,2.8666,2.9299,2.987,3.0236,3.0563,3.0868,3.1566,3.2453,3.3117,3.3667,2.9475,2.9377,2.8849,2.8637,2.8637,2.8612,2.86,2.86,2.86,2.8637,2.87,2.8712,2.8743,2.8773,2.8767,2.8737,2.8724,2.8767,2.8214,2.7257,2.6958,2.6501,2.591,2.6483,2.6712,2.6363,2.6383,2.5984,2.5214,2.5177,2.5027,2.4764,2.4681,2.47,2.4681,2.4681,2.4681,2.4707,2.4742,2.4772,2.4794,2.4818,2.4818,2.4794,2.4772,2.4486,2.3934,2.3356,2.2783,2.2111,2.1232,2.1031,2.1549,2.1643,2.2282,2.3489,2.3774,2.3657,2.3657,2.3639,2.3689,2.3803,2.3999,2.4029,2.3795,2.3824,2.3613,2.3324,2.318,2.3107,2.3107,2.3107,2.3107,2.3107,2.3107,2.3107,2.3107,2.3107,2.3265,2.3788,2.4322,2.5014,2.5601,2.588,2.6111,2.6017,2.568,2.5542,2.5464,2.5561,2.5693,2.5892,2.6094,2.6165,2.6217,2.6531,2.6914,2.7701,2.8497,2.8922,2.9136,2.8998,2.8717,2.8228,2.79,2.8473,2.9139,2.9969,3.0506,3.0798,3.1112,3.1675,3.2324,3.2897,3.3493,2.8816,2.8785,2.8737,2.8718,2.8731,2.8669,2.8669,2.8632,2.8682,2.8761,2.8887,2.8945,2.8978,2.9093,2.9093,2.9045,2.8962,2.9056,2.9001,2.8617,2.8158,2.7474,2.7058,2.7148,2.7232,2.7254,2.7252,2.681,2.6067,2.5898,2.5598,2.4951,2.4775,2.4681,2.4681,2.4681,2.4681,2.4696,2.4837,2.4888,2.4895,2.5012,2.5024,2.4903,2.4896,2.483,2.4655,2.449,2.3825,2.2435,2.1632,2.1518,2.1824,2.1894,2.2618,2.3894,2.3953,2.3923,2.3923,2.3913,2.3991,2.4135,2.4201,2.4192,2.4078,2.3899,2.371,2.3463,2.3247,2.3107,2.3107,2.3107,2.3107,2.3107,2.3107,2.3107,2.3107,2.3107,2.3177,2.3312,2.3809,2.4476,2.4972,2.5089,2.539,2.5454,2.505,2.4959,2.523,2.5445,2.5541,2.5805,2.6152,2.6202,2.6236,2.6428,2.6777,2.7066,2.7926,2.8478,2.874,2.8605,2.8276,2.7792,2.7998,2.8527,2.9159,3.0071,3.072,3.1038,3.1368,3.1695,3.2127,3.2677,3.3258,2.8846,2.8798,2.8773,2.8857,2.8982,2.8971,2.8959,2.8982,2.9129,2.9107,2.9104,2.9204,2.9246,2.9254,2.9307,2.9266,2.9241,2.9295,2.9328,2.924,2.9132,2.8995,2.8707,2.8269,2.807,2.8097,2.8087,2.7665,2.6894,2.6311,2.5888,2.5635,2.4951,2.4681,2.4681,2.4681,2.4681,2.4704,2.4844,2.4908,2.4942,2.5037,2.5078,2.5049,2.5043,2.5043,2.4975,2.4902,2.4356,2.3299,2.2958,2.2869,2.2952,2.2951,2.3351,2.4194,2.4293,2.4201,2.4183,2.4183,2.4229,2.4275,2.4401,2.441,2.4173,2.3979,2.3771,2.3526,2.3259,2.3107,2.3107,2.3107,2.3107,2.3107,2.3107,2.3107,2.3107,2.3107,2.3107,2.3177,2.3799,2.4234,2.4546,2.4842,2.516,2.5123,2.4834,2.4689,2.5088,2.518,2.5228,2.5855,2.622,2.6185,2.6239,2.6415,2.655,2.6575,2.7206,2.8016,2.8183,2.8193,2.7721,2.7215,2.8543,2.9282,2.9764,3.0453,3.0888,3.1372,3.1572,3.1854,3.204,3.2472,3.2971,2.8957,2.9007,2.8973,2.909,2.9256,2.9246,2.9225,2.9237,2.9339,2.9398,2.9368,2.9456,2.9542,2.9561,2.9598,2.9561,2.9494,2.957,2.957,2.9533,2.9607,2.9653,2.9586,2.919,2.902,2.8985,2.8985,2.8291,2.7326,2.6697,2.618,2.5448,2.4951,2.47,2.4681,2.47,2.4746,2.4801,2.4922,2.4993,2.5074,2.5192,2.5233,2.5192,2.5176,2.5185,2.509,2.4981,2.4482,2.3764,2.3519,2.3494,2.3494,2.3465,2.3844,2.4612,2.4539,2.4471,2.4471,2.4452,2.4462,2.449,2.4582,2.4522,2.4347,2.4106,2.3813,2.3685,2.3324,2.3126,2.3107,2.3107,2.3107,2.3107,2.3107,2.3107,2.3107,2.3107,2.3107,2.3212,2.3506,2.3975,2.4216,2.4431,2.4528,2.4534,2.4133,2.4447,2.4933,2.4907,2.508,2.5728,2.6211,2.6263,2.6384,2.6573,2.6556,2.6536,2.6477,2.732,2.77,2.7735,2.7436,2.7467,2.8882,2.9881,3.0076,3.054,3.1404,3.1747,3.1875,3.185,3.1959,3.211,3.2647,2.9186,2.9446,2.931,2.9357,2.9514,2.9467,2.9476,2.9466,2.9683,2.9795,2.9897,2.9903,3.0067,3.0046,2.9991,2.9855,2.9753,2.9864,2.9839,2.9822,2.9855,2.9907,2.9849,2.979,2.9698,2.9674,2.9798,2.8971,2.7995,2.7537,2.6532,2.5645,2.5148,2.4806,2.4764,2.4727,2.4801,2.4895,2.505,2.516,2.5253,2.5364,2.5387,2.5337,2.5303,2.5274,2.516,2.4974,2.4587,2.3904,2.37,2.3708,2.3682,2.3663,2.3975,2.4512,2.4676,2.4668,2.4684,2.466,2.4668,2.4663,2.4674,2.4674,2.4513,2.4201,2.3927,2.3855,2.3435,2.3193,2.3125,2.316,2.3212,2.3212,2.316,2.3212,2.3107,2.3107,2.3107,2.3107,2.3125,2.3488,2.3716,2.3664,2.3388,2.3994,2.3749,2.4088,2.4504,2.4608,2.4975,2.5648,2.6034,2.6353,2.6539,2.674,2.6622,2.6505,2.6167,2.6519,2.7148,2.7249,2.7129,2.7582,2.8895,2.9503,2.9575,3.035,3.1565,3.1856,3.1784,3.1691,3.1644,3.1825,3.2202,2.9775,3.0498,2.9795,2.9616,2.9794,2.9813,2.9813,2.9859,3.0682,3.0875,3.0888,3.095,3.0982,3.0939,3.0377,3.0091,3.0014,3.0083,3.0091,3.0038,3.0098,3.0091,3.0022,2.9956,2.9907,2.9872,2.9872,2.9609,2.9139,2.8356,2.7831,2.6783,2.583,2.5487,2.4877,2.4874,2.4915,2.4936,2.5132,2.5259,2.5322,2.5423,2.548,2.5455,2.5455,2.5451,2.5369,2.5182,2.4978,2.4784,2.4556,2.4366,2.4369,2.4388,2.4474,2.4606,2.4681,2.4681,2.4681,2.4681,2.4681,2.4692,2.4684,2.4687,2.4658,2.4302,2.4047,2.3876,2.3526,2.3241,2.3149,2.3694,2.3611,2.337,2.3593,2.3746,2.3295,2.3107,2.3107,2.3142,2.3125,2.3177,2.3383,2.3353,2.3252,2.3398,2.3593,2.3796,2.4156,2.4535,2.5009,2.5726,2.6132,2.6419,2.6315,2.6512,2.6513,2.6246,2.5899,2.5883,2.6501,2.6951,2.6882,2.7644,2.8822,2.9176,2.9386,3.0664,3.2022,3.1825,3.1656,3.1635,3.161,3.1679,3.2008,2.9833,3.0356,2.9922,2.9864,3.0019,3.0023,3.0023,3.0209,3.1039,3.142,3.1356,3.1397,3.1397,3.1272,3.0572,3.0164,3.0169,3.019,3.019,3.0161,3.019,3.0183,3.0142,3.0064,3.0026,2.9996,3.0007,2.982,2.9238,2.8529,2.7555,2.6849,2.6088,2.5366,2.5004,2.5018,2.5084,2.5099,2.5205,2.5322,2.5406,2.5459,2.5507,2.5507,2.5507,2.5507,2.5472,2.5313,2.5171,2.5061,2.4908,2.4757,2.4715,2.4681,2.4681,2.4681,2.4681,2.4681,2.4681,2.4681,2.4681,2.4681,2.4681,2.4962,2.493,2.4616,2.4327,2.4296,2.3927,2.3336,2.324,2.3829,2.3834,2.347,2.3852,2.4062,2.3716,2.3365,2.3282,2.3435,2.3365,2.3435,2.3453,2.3265,2.3488,2.3739,2.3967,2.4239,2.5317,2.5584,2.5418,2.5858,2.6286,2.6439,2.6165,2.621,2.6344,2.5978,2.5466,2.5605,2.6036,2.6435,2.6735,2.7653,2.8578,2.9237,2.9676,3.1061,3.1882,3.1716,3.1579,3.1579,3.1538,3.1485,3.1998,2.9835,3.0127,3.0013,3.0042,3.0197,3.0204,3.0197,3.0319,3.1057,3.1458,3.1496,3.1439,3.1439,3.1228,3.0567,3.023,3.0204,3.0166,3.0147,2.9872,3.0128,3.0025,2.9923,2.9839,2.9818,2.9927,3.006,2.9661,2.8863,2.8119,2.7673,2.6469,2.5895,2.55,2.5238,2.5157,2.523,2.5255,2.5315,2.5389,2.548,2.5492,2.5515,2.5507,2.5507,2.5507,2.5487,2.5337,2.5198,2.509,2.4961,2.483,2.4727,2.4681,2.4681,2.4681,2.4681,2.4681,2.4681,2.4681,2.4681,2.4681,2.4681,2.512,2.545,2.4929,2.4643,2.4566,2.4277,2.3525,2.3507,2.4199,2.4206,2.3892,2.4238,2.4519,2.4361,2.3839,2.3944,2.394,2.3558,2.333,2.3453,2.3418,2.3781,2.4115,2.4344,2.4734,2.5754,2.6127,2.5628,2.5109,2.5269,2.5895,2.5801,2.5735,2.5903,2.5379,2.4872,2.5193,2.5495,2.5775,2.6243,2.7272,2.8131,2.884,2.9688,3.0695,3.1255,3.1342,3.1504,3.1523,3.1408,3.1254,3.2021,3.0398,3.118,3.0455,3.0183,3.0204,3.0204,3.0204,3.0345,3.1102,3.1477,3.1496,3.1496,3.1477,3.1255,3.0574,3.0223,3.0204,3.0192,2.9841,2.9452,2.9726,2.9841,2.9338,2.928,2.9228,2.9305,2.9718,2.9684,2.922,2.931,2.8228,2.6918,2.6845,2.6542,2.5496,2.5293,2.5342,2.535,2.541,2.5479,2.5495,2.5515,2.5503,2.5515,2.5511,2.5511,2.5455,2.5274,2.5132,2.5091,2.4861,2.4761,2.4782,2.4775,2.4793,2.4775,2.4718,2.4718,2.4831,2.47,2.47,2.4681,2.4681,2.5139,2.5514,2.501,2.4663,2.4671,2.4306,2.3691,2.4263,2.4797,2.5174,2.5196,2.5458,2.5805,2.5349,2.4963,2.4717,2.4625,2.3892,2.33,2.3646,2.3874,2.4102,2.4519,2.487,2.4906,2.5357,2.537,2.4903,2.4341,2.3842,2.4659,2.531,2.53,2.5289,2.4565,2.4216,2.4569,2.4853,2.51,2.5744,2.693,2.7908,2.8714,2.958,3.0381,3.0855,3.1136,3.1319,3.1468,3.1428,3.1438,3.2303,3.0368,3.0777,3.0357,3.0204,3.0204,3.0204,3.0204,3.0338,3.1102,3.1496,3.1496,3.1496,3.1477,3.1228,3.0567,3.0204,3.0204,3.0204,2.9707,2.9204,2.928,2.9357,2.8917,2.8891,2.9242,2.9567,2.9975,2.9726,2.9006,2.9235,2.8587,2.7558,2.7262,2.652,2.5643,2.5461,2.5471,2.5467,2.5527,2.5538,2.552,2.5517,2.5506,2.5511,2.5523,2.5519,2.5468,2.5313,2.5171,2.5072,2.4896,2.502,2.5246,2.5364,2.5372,2.5335,2.5027,2.497,2.5139,2.5027,2.47,2.4681,2.4718,2.5364,2.5839,2.5452,2.47,2.4489,2.4226,2.3721,2.4022,2.5052,2.5309,2.524,2.5934,2.6367,2.6072,2.5686,2.5472,2.5257,2.4541,2.4208,2.4366,2.4524,2.4559,2.4875,2.5331,2.5331,2.5226,2.49,2.4582,2.4077,2.3694,2.4147,2.4782,2.473,2.4659,2.3973,2.3698,2.4053,2.4604,2.501,2.5779,2.6827,2.7728,2.8469,2.9059,2.9738,3.0318,3.0896,3.1148,3.1348,3.1451,3.1783,3.2505,3.0204,3.0223,3.0376,3.0433,3.0452,3.0452,3.0472,3.0567,3.0968,3.1197,3.1236,3.1217,3.1152,3.098,3.0567,3.0204,3.0204,3.0204,2.97,2.9121,2.9204,2.9166,2.893,2.8975,2.9185,2.9574,2.9765,2.9574,2.9051,2.8968,2.8396,2.7478,2.6775,2.6238,2.5662,2.5541,2.5602,2.5605,2.5599,2.5577,2.5544,2.5518,2.5508,2.551,2.5506,2.5518,2.5503,2.5373,2.5392,2.5382,2.5355,2.5487,2.6081,2.6244,2.632,2.6311,2.5665,2.5646,2.5617,2.5748,2.5383,2.5158,2.5177,2.604,2.6684,2.6319,2.5227,2.4654,2.42,2.4307,2.476,2.5168,2.5503,2.5729,2.6282,2.6788,2.67,2.649,2.6283,2.5875,2.5239,2.5011,2.5085,2.5033,2.505,2.5331,2.5739,2.5507,2.5349,2.498,2.4611,2.4116,2.3866,2.4064,2.4265,2.409,2.3933,2.3553,2.3476,2.3746,2.445,2.515,2.6014,2.6824,2.7291,2.7997,2.8538,2.9133,2.9816,3.0402,3.0891,3.1227,3.1399,3.1627,3.2137,3.0204,3.0242,3.0961,3.1293,3.1274,3.1217,3.1255,3.1178,3.0643,3.0364,3.0472,3.0395,3.0414,3.0357,3.0319,3.0204,3.0204,3.0166,2.9746,2.9089,2.9452,2.9414,2.8968,2.8911,2.9051,2.9402,2.9287,2.9032,2.9045,2.9045,2.823,2.7199,2.6998,2.632,2.5955,2.5832,2.5598,2.5637,2.5637,2.5589,2.5557,2.5525,2.5515,2.5511,2.5511,2.5508,2.5529,2.5485,2.561,2.6031,2.6007,2.6337,2.69,2.7054,2.7486,2.7665,2.7392,2.6668,2.6368,2.6416,2.6397,2.6078,2.6322,2.7279,2.7537,2.7605,2.6823,2.6232,2.5397,2.5143,2.5673,2.5966,2.638,2.6766,2.7158,2.7449,2.7417,2.7122,2.6946,2.6756,2.6191,2.5805,2.5682,2.5577,2.5542,2.5858,2.602,2.5752,2.5331,2.484,2.4366,2.3804,2.3558,2.3751,2.3821,2.3633,2.35,2.3163,2.3463,2.3705,2.458,2.5432,2.6063,2.6784,2.7217,2.7539,2.8001,2.8625,2.9349,2.9903,3.0342,3.0868,3.1382,3.1646,3.1876,3.0204,3.0287,3.1057,3.114,3.0835,3.1197,3.1133,3.072,3.0383,3.0204,3.0204,3.0204,3.0204,3.0204,3.0204,3.0204,3.0204,3.0204,2.9726,2.9108,2.9318,2.9299,2.8994,2.8949,2.9044,2.9537,2.9666,2.9807,2.9679,2.9583,2.9056,2.8217,2.8009,2.7833,2.6814,2.6502,2.6394,2.6223,2.5912,2.5634,2.5589,2.5564,2.5538,2.5548,2.5551,2.5525,2.5559,2.594,2.5818,2.6063,2.6269,2.6976,2.7315,2.7662,2.8247,2.8988,2.8838,2.8237,2.758,2.7355,2.7054,2.6894,2.7035,2.7298,2.7687,2.7884,2.7405,2.6006,2.5827,2.5904,2.6153,2.6349,2.6769,2.7226,2.7674,2.771,2.7716,2.7698,2.749,2.7332,2.7142,2.6753,2.6402,2.6279,2.6314,2.6595,2.6297,2.563,2.5015,2.4278,2.3804,2.33,2.3195,2.3247,2.33,2.3265,2.333,2.3235,2.3807,2.4199,2.4983,2.5754,2.635,2.6874,2.7382,2.761,2.7667,2.8178,2.8928,2.9368,2.9739,3.0355,3.0972,3.1452,3.1842,3.0204,3.028,3.1076,3.1083,3.0567,3.1171,3.1121,3.0567,3.0287,3.0204,3.0204,3.0204,3.0204,3.0204,3.0204,3.0204,3.0204,3.0204,2.9841,2.9414,2.9242,2.9299,2.9338,2.9338,2.9606,3.0226,3.0145,3.0213,3.0298,3.0257,2.9906,2.9328,2.8662,2.8493,2.8048,2.7482,2.7116,2.675,2.6281,2.5912,2.5656,2.5601,2.5592,2.5609,2.5602,2.558,2.5619,2.5925,2.5833,2.6071,2.6784,2.7462,2.7746,2.8383,2.8932,2.9476,2.9439,2.9251,2.8669,2.8293,2.7786,2.7636,2.7786,2.8106,2.8033,2.8125,2.7988,2.6851,2.648,2.6281,2.6158,2.683,2.7022,2.7374,2.7671,2.7712,2.7748,2.7768,2.7736,2.7561,2.7473,2.7543,2.7245,2.7052,2.7104,2.735,2.6736,2.57,2.4822,2.4015,2.3598,2.323,2.3107,2.3107,2.3107,2.3089,2.3102,2.3413,2.3987,2.4546,2.526,2.5911,2.6507,2.7039,2.7532,2.755,2.7538,2.8026,2.8486,2.8733,2.9085,2.9858,3.051,3.1059,3.1635,3.0204,3.0287,3.1121,3.1369,3.1236,3.1419,3.1465,3.1102,3.0472,3.0223,3.0204,3.0204,3.0204,3.0242,3.0319,3.0319,3.0249,3.0223,3.0204,3.0173,3.0115,3.0051,3.0058,3.011,3.0227,3.0292,3.0629,3.0739,3.0646,3.0946,3.0248,2.9395,2.9183,2.8473,2.8149,2.8084,2.7446,2.7022,2.6556,2.6164,2.5776,2.5601,2.5601,2.5601,2.5598,2.5598,2.5595,2.5822,2.596,2.6251,2.7238,2.7755,2.8165,2.8973,2.9513,2.9626,2.9701,2.957,2.9326,2.9232,2.9035,2.8791,2.8838,2.9157,2.9082,2.9008,2.8823,2.8352,2.7622,2.7471,2.7461,2.7642,2.7545,2.7627,2.7795,2.773,2.7815,2.7927,2.7877,2.7768,2.7786,2.7909,2.7716,2.742,2.735,2.7543,2.6964,2.5928,2.4892,2.4115,2.3716,2.337,2.316,2.3107,2.3107,2.3202,2.3492,2.3897,2.4413,2.4857,2.5368,2.6019,2.6897,2.7158,2.7585,2.7511,2.7436,2.7681,2.79,2.8015,2.8521,2.9516,3.0374,3.1023,3.1414,3.0204,3.0242,3.0567,3.0682,3.072,3.1274,3.1197,3.0701,3.0338,3.0204,3.0204,3.0204,3.0204,3.0345,3.0835,3.0968,3.0949,3.0987,3.1006,3.1006,3.0987,3.0682,3.0722,3.1064,3.1399,3.0853,3.1281,3.167,3.1399,3.1777,3.2069,3.1457,3.025,2.9857,2.9541,2.8783,2.7851,2.7058,2.6475,2.5892,2.5776,2.5601,2.5601,2.5601,2.5601,2.5601,2.5679,2.6161,2.6151,2.6434,2.7544,2.7975,2.8191,2.9087,2.9606,2.9654,2.9645,2.9701,2.9701,2.9701,2.9514,2.942,2.9495,2.9701,2.9664,2.9343,2.8852,2.8471,2.831,2.8189,2.7538,2.7748,2.7991,2.7964,2.7893,2.7806,2.7903,2.8035,2.7929,2.7754,2.8052,2.8315,2.8017,2.7681,2.7681,2.7646,2.6929,2.6156,2.5147,2.4317,2.3947,2.346,2.3214,2.3267,2.3284,2.3575,2.3931,2.4431,2.49,2.5412,2.5938,2.671,2.7434,2.7595,2.7569,2.7509,2.7417,2.7277,2.7447,2.7845,2.8558,2.9468,3.0255,3.0939,3.1223,3.0204,3.0204,3.0204,3.0204,3.03,3.0854,3.0765,3.028,3.0223,3.0204,3.0204,3.0204,3.0204,3.0452,3.1064,3.1427,3.1484,3.1668,3.1821,3.184,3.1763,3.1465,3.1585,3.1864,3.2193,3.1594,3.2115,3.2657,3.232,3.2982,3.3014,3.2687,3.219,3.1603,3.1137,3.0065,2.8842,2.801,2.6941,2.6184,2.6106,2.5737,2.5601,2.5698,2.5873,2.5834,2.5931,2.6239,2.6301,2.649,2.7089,2.7826,2.8117,2.8555,2.9397,2.9504,2.9551,2.9683,2.9701,2.9701,2.9701,2.9608,2.9626,2.9701,2.9617,2.9384,2.9018,2.8688,2.8629,2.8402,2.7657,2.8067,2.8412,2.8418,2.7932,2.7795,2.8064,2.8228,2.7982,2.7771,2.8052,2.8193,2.807,2.7733,2.7751,2.7751,2.742,2.6553,2.5442,2.4733,2.428,2.3751,2.321,2.3351,2.3527,2.3984,2.4477,2.5241,2.5707,2.6207,2.6794,2.7483,2.7642,2.7494,2.7463,2.7509,2.7388,2.7203,2.7451,2.7828,2.8852,3.0073,3.0092,3.0729,3.0896,3.0223,3.0204,3.0249,3.0261,3.0376,3.0249,3.0326,3.0452,3.0338,3.0319,3.0338,3.028,3.0204,3.0414,3.1121,3.1541,3.1801,3.2279,3.2623,3.2661,3.271,3.2638,3.2678,3.2845,3.3139,3.2998,3.3345,3.3555,3.3262,3.3635,3.3604,3.3604,3.3429,3.3099,3.3138,3.2318,3.1425,3.0441,2.8748,2.768,2.6731,2.6087,2.5854,2.5737,2.63,2.632,2.6184,2.6689,2.6709,2.6513,2.732,2.7674,2.7312,2.8782,2.9325,2.8829,2.9401,2.9664,2.9701,2.9701,2.9701,2.9701,2.9701,2.9701,2.9655,2.9492,2.9285,2.8963,2.8963,2.8863,2.8633,2.8487,2.8658,2.8564,2.8042,2.7888,2.8159,2.8466,2.8252,2.7944,2.7806,2.7771,2.7771,2.7736,2.7771,2.7771,2.7733,2.6968,2.5764,2.5129,2.4662,2.4153,2.3606,2.3954,2.4249,2.4518,2.5025,2.5839,2.6514,2.6992,2.736,2.7819,2.7801,2.7469,2.7594,2.7896,2.7506,2.7077,2.7793,2.8648,2.9816,3.0698,3.0577,3.0525,3.0814,3.0529,3.1064,3.1064,3.1389,3.1725,3.1274,3.1331,3.1687,3.1293,3.1026,3.0911,3.051,3.0204,3.0472,3.114,3.1828,3.2336,3.2451,3.2852,3.3555,3.3597,3.3226,3.33,3.3903,3.4086,3.3693,3.3983,3.441,3.4109,3.4459,3.4862,3.496,3.4629,3.4299,3.3367,3.2435,3.1564,3.0655,2.9467,2.834,2.7077,2.6653,2.6242,2.5792,2.6572,2.6828,2.6553,2.7272,2.7378,2.7098,2.7986,2.8109,2.792,2.9288,2.9596,2.9298,2.9683,2.9683,2.9701,2.9701,2.9701,2.9701,2.9701,2.9701,2.9664,2.9511,2.9353,2.9228,2.9089,2.887,2.8531,2.8458,2.8528,2.8397,2.8095,2.8042,2.8216,2.8614,2.8659,2.8237,2.7982,2.8263,2.8368,2.8105,2.8052,2.7999,2.7964,2.707,2.5901,2.546,2.5046,2.4602,2.4268,2.4653,2.5009,2.5412,2.5922,2.6709,2.7294,2.7763,2.8075,2.8361,2.834,2.8214,2.8266,2.8285,2.8149,2.8186,2.8785,2.9644,3.0452,3.0603,3.0189,3.0394,3.0944,3.1011,3.1546,3.1833,3.2419,3.2932,3.2267,3.2241,3.2565,3.2107,3.1878,3.1713,3.1026,3.0854,3.1197,3.1675,3.2382,3.31,3.3501,3.3692,3.4412,3.451,3.4278,3.4462,3.4905,3.4902,3.4531,3.4906,3.5406,3.4983,3.5503,3.5659,3.5639,3.5775,3.5173,3.4222,3.3445,3.2788,3.1933,3.0904,2.9447,2.8456,2.7757,2.7077,2.6958,2.7272,2.7683,2.7641,2.7938,2.8372,2.8327,2.8492,2.8875,2.8992,2.9521,3.0066,3.0133,3.0114,3.0002,2.9795,2.9701,2.9701,2.9701,2.9701,2.9701,2.9673,2.9579,2.9665,2.9556,2.9248,2.932,2.9303,2.9176,2.8932,2.8855,2.9036,2.902,2.8874,2.9278,2.8794,2.8391,2.8126,2.8499,2.8857,2.8631,2.8386,2.8298,2.8193,2.7155,2.6233,2.591,2.5583,2.5181,2.5022,2.5415,2.5923,2.6466,2.6984,2.7607,2.8083,2.8515,2.8816,2.909,2.9029,2.8943,2.8898,2.8921,2.9126,2.9361,2.9619,2.9904,3.0366,3.0277,2.9766,3.0357,3.1191,3.1564,3.1718,3.2472,3.3231,3.3761,3.315,3.2879,3.2814,3.2756,3.2699,3.2604,3.1687,3.1484,3.226,3.2508,3.2928,3.3697,3.4461,3.487,3.5109,3.517,3.5152,3.5252,3.5488,3.5466,3.5592,3.5741,3.5736,3.5736,3.5756,3.5795,3.5795,3.5795,3.5562,3.5173,3.475,3.4187,3.3313,3.2267,3.104,3.0185,2.9211,2.8511,2.8414,2.8826,2.8822,2.8822,2.9029,2.8947,2.883,2.8731,2.8894,2.9334,3.0185,3.065,3.0912,3.0912,3.0265,3.0002,2.9908,2.9701,2.972,2.9833,2.9758,2.9823,2.9955,3.0166,3.0163,2.9995,3.0446,3.074,3.0376,3.0021,3.024,3.0532,3.0367,3.0023,2.9676,2.8941,2.8461,2.8142,2.8314,2.8805,2.876,2.8436,2.8549,2.8338,2.7686,2.6894,2.6596,2.6264,2.591,2.5913,2.6234,2.6752,2.7307,2.7784,2.8316,2.8815,2.9255,2.9555,2.97,2.9662,2.9574,2.9506,2.952,2.9578,2.979,3.0093,3.0384,3.0667,3.0479,3.015,3.0936,3.1669,3.1021,3.1685,3.2459,3.3276,3.4074,3.4404,3.4538,3.4426,3.3891,3.3337,3.2642,3.1821,3.1613,3.0987,3.1553,3.2374,3.3215,3.3994,3.4759,3.517,3.5502,3.5577,3.5646,3.5708,3.5775,3.5769,3.5782,3.5834,3.5834,3.5834,3.5853,3.5795,3.5795,3.5795,3.5698,3.5523,3.508,3.4497,3.3511,3.2691,3.1914,3.1017,3.0182,2.9852,3.0512,3.0298,2.9735,3.0431,3.0361,2.9836,2.9741,2.9884,3.0385,3.0735,3.1006,3.1541,3.0922,3.0077,3.0359,3.0021,2.9795,3.0002,3.0283,3.0527,3.0555,3.0677,3.0899,3.0822,3.0559,3.0764,3.1005,3.0849,3.0822,3.1127,3.1304,3.1096,3.0679,3.0044,2.9303,2.8467,2.813,2.8454,2.8894,2.8549,2.8295,2.8576,2.8464,2.7856,2.7437,2.7109,2.699,2.6623,2.661,2.689,2.7502,2.8085,2.8515,2.8976,2.9375,2.964,2.9753,2.9891,3.0145,3.0228,3.0149,3.002,2.9909,3.0207,3.0579,3.0782,3.1016,3.0791,3.0757,3.146,3.2125,3.1175,3.1763,3.2883,3.3836,3.4642,3.5158,3.5355,3.5223,3.4752,3.4244,3.3782,3.2964,3.2419,3.244,3.2357,3.2669,3.3823,3.4043,3.4592,3.5301,3.5631,3.567,3.5733,3.578,3.5782,3.5795,3.5892,3.6028,3.6125,3.6261,3.628,3.5795,3.5795,3.5814,3.5775,3.5698,3.5523,3.51,3.4536,3.3915,3.3313,3.271,3.1778,3.139,3.2163,3.1541,3.0722,3.172,3.141,3.0859,3.0753,3.1165,3.1808,3.2268,3.1879,3.2227,3.1466,3.0865,3.0799,3.049,3.0415,3.064,3.1053,3.1523,3.1654,3.1719,3.1674,3.1539,3.1086,3.0813,3.1016,3.1227,3.1551,3.1886,3.1749,3.1608,3.106,3.0473,2.9588,2.8609,2.8495,2.8785,2.8758,2.8332,2.8205,2.8573,2.847,2.7856,2.7546,2.737,2.7409,2.7341,2.7364,2.7494,2.813,2.8537,2.8586,2.8891,2.9364,2.9605,2.9827,3.0283,3.0744,3.083,3.0804,3.0647,3.0427,3.0734,3.1072,3.119,3.119,3.1016,3.11,3.167,3.2295,3.1576,3.1717,3.3403,3.452,3.5372,3.5489,3.5531,3.5512,3.5392,3.5409,3.5164,3.4455,3.4206,3.3814,3.3166,3.3465,3.4108,3.4338,3.4629,3.5409,3.5635,3.5733,3.5752,3.5784,3.5946,3.5892,3.5892,3.6047,3.6712,3.6809,3.6479,3.5853,3.5989,3.5989,3.5814,3.5795,3.5678,3.5546,3.5119,3.4595,3.442,3.3934,3.3468,3.3313,3.3332,3.3079,3.2342,3.2103,3.199,3.1802,3.1814,3.226,3.3089,3.3691,3.3206,3.263,3.1936,3.1673,3.1325,3.1025,3.1137,3.1485,3.2048,3.2105,3.2011,3.2067,3.1956,3.1958,3.1542,3.147,3.1642,3.1479,3.1628,3.2286,3.2596,3.2256,3.1699,3.0839,2.9652,2.8784,2.8437,2.8724,2.8682,2.8275,2.8109,2.8517,2.8566,2.7942,2.7882,2.7796,2.7947,2.8102,2.7988,2.8067,2.8538,2.879,2.8426,2.8656,2.925,2.9779,3.0106,3.0718,3.1382,3.1244,3.1035,3.1067,3.1052,3.1171,3.119,3.119,3.119,3.119,3.1464,3.1924,3.2466,3.0791,3.095,3.2715,3.4269,3.5563,3.564,3.5689,3.5806,3.5729,3.5303,3.4666,3.4396,3.4065,3.3807,3.3417,3.3705,3.4321,3.4532,3.4892,3.5383,3.5723,3.5751,3.5765,3.5801,3.6105,3.6397,3.6319,3.6008,3.6304,3.6615,3.6712,3.5969,3.6241,3.6436,3.5834,3.5834,3.5911,3.5795,3.5581,3.5333,3.527,3.5236,3.5002,3.4711,3.4478,3.4183,3.3634,3.3451,3.3144,3.2793,3.2511,3.285,3.3488,3.366,3.3842,3.3625,3.2349,3.2095,3.2132,3.1738,3.1456,3.1494,3.1729,3.1663,3.1719,3.1954,3.2074,3.2106,3.2139,3.2115,3.2054,3.1787,3.1818,3.266,3.3357,3.2814,3.227,3.1066,2.9777,2.9125,2.8608,2.8517,2.8528,2.8344,2.8176,2.8255,2.8522,2.845,2.8628,2.8647,2.8825,2.8895,2.8539,2.8649,2.9063,2.8871,2.8436,2.8662,2.9265,2.9827,3.0366,3.0864,3.1349,3.1271,3.1173,3.1171,3.1171,3.119,3.119,3.119,3.1224,3.1241,3.1546,3.1989,3.2594,3.0477,3.0689,3.2015,3.3581,3.4944,3.5189,3.5464,3.5847,3.588,3.5577,3.5084,3.4929,3.4635,3.407,3.3814,3.4011,3.4646,3.4501,3.4971,3.549,3.5794,3.5782,3.5795,3.5834,3.5969,3.63,3.6498,3.6362,3.6028,3.6537,3.6712,3.6086,3.6552,3.6708,3.6008,3.6067,3.6144,3.5834,3.5853,3.5872,3.5872,3.5756,3.5639,3.5367,3.5251,3.4947,3.4448,3.4182,3.3911,3.373,3.3658,3.3824,3.4169,3.4183,3.4064,3.3692,3.2987,3.2424,3.2789,3.2545,3.1851,3.2057,3.2236,3.2489,3.1748,3.186,3.1475,3.1509,3.1843,3.1878,3.1967,3.1794,3.2329,3.3085,3.3172,3.2868,3.227,3.1405,3.027,2.9377,2.9056,2.9015,2.8813,2.8088,2.8052,2.8516,2.8681,2.8779,2.9005,2.9488,2.969,2.9703,2.9378,2.9184,2.9408,2.8998,2.8325,2.8716,2.9357,2.9837,3.0342,3.0847,3.119,3.119,3.119,3.119,3.119,3.1241,3.1207,3.119,3.1241,3.1292,3.1715,3.2205,3.278,3.0608,3.0819,3.1607,3.2911,3.4337,3.4567,3.5139,3.5829,3.5978,3.5988,3.5877,3.5719,3.5771,3.5465,3.4878,3.5175,3.516,3.469,3.5054,3.5597,3.5963,3.5946,3.5931,3.5969,3.6086,3.6401,3.6789,3.6358,3.5853,3.6537,3.677,3.6183,3.6401,3.6789,3.6343,3.6479,3.6712,3.63,3.6164,3.6164,3.6086,3.6008,3.6008,3.5989,3.5879,3.548,3.4947,3.4521,3.443,3.4431,3.4606,3.4693,3.4718,3.4603,3.4069,3.3669,3.3081,3.2949,3.3221,3.3014,3.2995,3.3221,3.3314,3.2845,3.2011,3.1493,3.1089,3.114,3.1472,3.1744,3.1832,3.2091,3.2693,3.3143,3.3042,3.285,3.2252,3.1673,3.0744,2.9786,2.9663,2.9607,2.8929,2.818,2.8264,2.8726,2.8972,2.9058,2.9297,2.9986,3.0454,3.0421,3.0231,3.0093,3.0073,2.9195,2.8459,2.8998,2.9602,2.9956,3.0355,3.087,3.1171,3.119,3.119,3.1207,3.1309,3.1393,3.1326,3.136,3.185,3.2138,3.2341,3.2797,3.3085,3.1093,3.181,3.1993,3.3046,3.447,3.4653,3.5163,3.5885,3.5988,3.5967,3.5912,3.5901,3.5863,3.5828,3.5022,3.5058,3.5512,3.4983,3.5158,3.5713,3.6393,3.6261,3.628,3.6653,3.6358,3.6653,3.71,3.7061,3.6474,3.6789,3.6731,3.6105,3.7566,3.745,3.6226,3.6615,3.7217,3.6906,3.6921,3.7038,3.7422,3.729,3.6902,3.683,3.6736,3.659,3.6256,3.5599,3.5308,3.5162,3.5095,3.5072,3.4983,3.4841,3.4346,3.3802,3.3206,3.3212,3.3325,3.3156,3.3212,3.3314,3.3089,3.2349,3.1641,3.1146,3.0928,3.0966,3.128,3.1654,3.1854,3.2151,3.2661,3.2951,3.3013,3.2651,3.218,3.1713,3.1078,3.062,3.0427,3.0008,2.9306,2.887,2.8818,2.9222,2.9541,2.9653,2.9957,3.0556,3.1105,3.0987,3.0835,3.1169,3.1175,2.96,2.8884,2.942,2.9808,3.0115,3.0479,3.0937,3.1168,3.119,3.1207,3.1224,3.136,3.1582,3.1802,3.1935,3.2696,3.3136,3.322,3.3339,3.3575]}]]